<?xml version="1.0" encoding="UTF-8" standalone="no" ?>
<gpx xmlns="http://www.topografix.com/GPX/1/1" xmlns:xsi="http://www.w3.org/2001/XMLSchema-instance" xsi:schemaLocation="http://www.topografix.com/GPX/1/1 http://www.topografix.com/GPX/1/1/gpx.xsd" version="1.1" creator="VisuGPX - https://www.visugpx.com">
  <metadata>
    <name>Lacs de la Tempête</name>
    <desc><![CDATA[Au départ du lac de St Guerin]]></desc>
  </metadata>
  <wpt lat="45.6214" lon="6.54306">
    <ele>2131.859375</ele>
    <name><![CDATA[Repas]]></name>
    <type><![CDATA[user]]></type>
  </wpt>
  <trk>
    <name><![CDATA[Lacs de la Tempete_2021-06-25]]></name>
    <trkseg>
      <trkpt lat="45.65111" lon="6.58119">
        <ele>1584.39</ele>
        <time>2021-06-25T06:51:11Z</time>
      </trkpt>
      <trkpt lat="45.65111" lon="6.5812">
        <ele>1584.39</ele>
        <time>2021-06-25T06:51:12Z</time>
      </trkpt>
      <trkpt lat="45.65108" lon="6.58121">
        <ele>1585.35</ele>
        <time>2021-06-25T06:51:50Z</time>
      </trkpt>
      <trkpt lat="45.65109" lon="6.5812">
        <ele>1583.91</ele>
        <time>2021-06-25T06:51:56Z</time>
      </trkpt>
      <trkpt lat="45.6511" lon="6.58119">
        <ele>1583.91</ele>
        <time>2021-06-25T06:52:15Z</time>
      </trkpt>
      <trkpt lat="45.65109" lon="6.58116">
        <ele>1584.39</ele>
        <time>2021-06-25T06:52:29Z</time>
      </trkpt>
      <trkpt lat="45.65108" lon="6.58113">
        <ele>1584.39</ele>
        <time>2021-06-25T06:52:42Z</time>
      </trkpt>
      <trkpt lat="45.65105" lon="6.58109">
        <ele>1584.39</ele>
        <time>2021-06-25T06:52:53Z</time>
      </trkpt>
      <trkpt lat="45.65103" lon="6.58107">
        <ele>1584.39</ele>
        <time>2021-06-25T06:52:56Z</time>
      </trkpt>
      <trkpt lat="45.65097" lon="6.58109">
        <ele>1584.39</ele>
        <time>2021-06-25T06:53:01Z</time>
      </trkpt>
      <trkpt lat="45.65096" lon="6.58113">
        <ele>1584.39</ele>
        <time>2021-06-25T06:53:05Z</time>
      </trkpt>
      <trkpt lat="45.651" lon="6.58136">
        <ele>1582.47</ele>
        <time>2021-06-25T06:53:22Z</time>
      </trkpt>
      <trkpt lat="45.65106" lon="6.58157">
        <ele>1581.51</ele>
        <time>2021-06-25T06:53:37Z</time>
      </trkpt>
      <trkpt lat="45.65111" lon="6.58181">
        <ele>1579.58</ele>
        <time>2021-06-25T06:53:54Z</time>
      </trkpt>
      <trkpt lat="45.65115" lon="6.58206">
        <ele>1579.1</ele>
        <time>2021-06-25T06:54:09Z</time>
      </trkpt>
      <trkpt lat="45.65116" lon="6.58219">
        <ele>1578.14</ele>
        <time>2021-06-25T06:54:18Z</time>
      </trkpt>
      <trkpt lat="45.65119" lon="6.58238">
        <ele>1577.66</ele>
        <time>2021-06-25T06:54:30Z</time>
      </trkpt>
      <trkpt lat="45.65118" lon="6.58253">
        <ele>1576.7</ele>
        <time>2021-06-25T06:54:39Z</time>
      </trkpt>
      <trkpt lat="45.6511" lon="6.58249">
        <ele>1576.22</ele>
        <time>2021-06-25T06:54:45Z</time>
      </trkpt>
      <trkpt lat="45.65104" lon="6.5822">
        <ele>1573.82</ele>
        <time>2021-06-25T06:55:03Z</time>
      </trkpt>
      <trkpt lat="45.65099" lon="6.58192">
        <ele>1572.85</ele>
        <time>2021-06-25T06:55:20Z</time>
      </trkpt>
      <trkpt lat="45.6509" lon="6.58165">
        <ele>1570.93</ele>
        <time>2021-06-25T06:55:37Z</time>
      </trkpt>
      <trkpt lat="45.65083" lon="6.58144">
        <ele>1569.97</ele>
        <time>2021-06-25T06:55:53Z</time>
      </trkpt>
      <trkpt lat="45.65074" lon="6.58119">
        <ele>1568.53</ele>
        <time>2021-06-25T06:56:10Z</time>
      </trkpt>
      <trkpt lat="45.65073" lon="6.58115">
        <ele>1568.05</ele>
        <time>2021-06-25T06:56:13Z</time>
      </trkpt>
      <trkpt lat="45.65064" lon="6.58093">
        <ele>1566.12</ele>
        <time>2021-06-25T06:56:27Z</time>
      </trkpt>
      <trkpt lat="45.65063" lon="6.5809">
        <ele>1566.12</ele>
        <time>2021-06-25T06:56:29Z</time>
      </trkpt>
      <trkpt lat="45.6506" lon="6.58086">
        <ele>1566.12</ele>
        <time>2021-06-25T06:56:37Z</time>
      </trkpt>
      <trkpt lat="45.6506" lon="6.58075">
        <ele>1565.64</ele>
        <time>2021-06-25T06:56:43Z</time>
      </trkpt>
      <trkpt lat="45.6506" lon="6.58065">
        <ele>1564.2</ele>
        <time>2021-06-25T06:56:58Z</time>
      </trkpt>
      <trkpt lat="45.65061" lon="6.58063">
        <ele>1564.2</ele>
        <time>2021-06-25T06:57:16Z</time>
      </trkpt>
      <trkpt lat="45.65062" lon="6.58049">
        <ele>1563.24</ele>
        <time>2021-06-25T06:57:24Z</time>
      </trkpt>
      <trkpt lat="45.65043" lon="6.58027">
        <ele>1562.76</ele>
        <time>2021-06-25T06:57:42Z</time>
      </trkpt>
      <trkpt lat="45.65028" lon="6.58001">
        <ele>1562.76</ele>
        <time>2021-06-25T06:57:59Z</time>
      </trkpt>
      <trkpt lat="45.65026" lon="6.57998">
        <ele>1562.76</ele>
        <time>2021-06-25T06:58:14Z</time>
      </trkpt>
      <trkpt lat="45.65017" lon="6.57965">
        <ele>1562.76</ele>
        <time>2021-06-25T06:58:31Z</time>
      </trkpt>
      <trkpt lat="45.65015" lon="6.57927">
        <ele>1562.76</ele>
        <time>2021-06-25T06:58:49Z</time>
      </trkpt>
      <trkpt lat="45.65016" lon="6.57894">
        <ele>1562.76</ele>
        <time>2021-06-25T06:59:05Z</time>
      </trkpt>
      <trkpt lat="45.65021" lon="6.57868">
        <ele>1562.28</ele>
        <time>2021-06-25T06:59:19Z</time>
      </trkpt>
      <trkpt lat="45.65028" lon="6.57849">
        <ele>1562.28</ele>
        <time>2021-06-25T06:59:33Z</time>
      </trkpt>
      <trkpt lat="45.65037" lon="6.57832">
        <ele>1562.28</ele>
        <time>2021-06-25T06:59:46Z</time>
      </trkpt>
      <trkpt lat="45.65041" lon="6.57824">
        <ele>1562.28</ele>
        <time>2021-06-25T06:59:52Z</time>
      </trkpt>
      <trkpt lat="45.65053" lon="6.57804">
        <ele>1562.28</ele>
        <time>2021-06-25T07:00:09Z</time>
      </trkpt>
      <trkpt lat="45.6505" lon="6.57791">
        <ele>1562.28</ele>
        <time>2021-06-25T07:00:21Z</time>
      </trkpt>
      <trkpt lat="45.65045" lon="6.5779">
        <ele>1562.28</ele>
        <time>2021-06-25T07:00:28Z</time>
      </trkpt>
      <trkpt lat="45.65033" lon="6.57786">
        <ele>1562.28</ele>
        <time>2021-06-25T07:00:42Z</time>
      </trkpt>
      <trkpt lat="45.65024" lon="6.57783">
        <ele>1563.72</ele>
        <time>2021-06-25T07:00:53Z</time>
      </trkpt>
      <trkpt lat="45.65009" lon="6.57779">
        <ele>1563.72</ele>
        <time>2021-06-25T07:01:07Z</time>
      </trkpt>
      <trkpt lat="45.65001" lon="6.57774">
        <ele>1564.2</ele>
        <time>2021-06-25T07:01:20Z</time>
      </trkpt>
      <trkpt lat="45.64991" lon="6.57773">
        <ele>1564.2</ele>
        <time>2021-06-25T07:01:31Z</time>
      </trkpt>
      <trkpt lat="45.64975" lon="6.57777">
        <ele>1564.2</ele>
        <time>2021-06-25T07:01:45Z</time>
      </trkpt>
      <trkpt lat="45.64962" lon="6.57777">
        <ele>1564.2</ele>
        <time>2021-06-25T07:01:59Z</time>
      </trkpt>
      <trkpt lat="45.64957" lon="6.57774">
        <ele>1564.2</ele>
        <time>2021-06-25T07:02:05Z</time>
      </trkpt>
      <trkpt lat="45.64948" lon="6.57771">
        <ele>1564.2</ele>
        <time>2021-06-25T07:02:15Z</time>
      </trkpt>
      <trkpt lat="45.64936" lon="6.57758">
        <ele>1563.72</ele>
        <time>2021-06-25T07:02:29Z</time>
      </trkpt>
      <trkpt lat="45.64921" lon="6.57756">
        <ele>1564.2</ele>
        <time>2021-06-25T07:02:42Z</time>
      </trkpt>
      <trkpt lat="45.64911" lon="6.57754">
        <ele>1564.68</ele>
        <time>2021-06-25T07:02:53Z</time>
      </trkpt>
      <trkpt lat="45.64908" lon="6.57753">
        <ele>1564.68</ele>
        <time>2021-06-25T07:02:57Z</time>
      </trkpt>
      <trkpt lat="45.64905" lon="6.57751">
        <ele>1564.68</ele>
        <time>2021-06-25T07:03:00Z</time>
      </trkpt>
      <trkpt lat="45.6489" lon="6.57751">
        <ele>1565.16</ele>
        <time>2021-06-25T07:03:12Z</time>
      </trkpt>
      <trkpt lat="45.64879" lon="6.5775">
        <ele>1566.12</ele>
        <time>2021-06-25T07:03:21Z</time>
      </trkpt>
      <trkpt lat="45.64869" lon="6.57748">
        <ele>1566.12</ele>
        <time>2021-06-25T07:03:30Z</time>
      </trkpt>
      <trkpt lat="45.64863" lon="6.57748">
        <ele>1566.12</ele>
        <time>2021-06-25T07:03:35Z</time>
      </trkpt>
      <trkpt lat="45.64851" lon="6.57745">
        <ele>1567.09</ele>
        <time>2021-06-25T07:03:47Z</time>
      </trkpt>
      <trkpt lat="45.64838" lon="6.57741">
        <ele>1567.57</ele>
        <time>2021-06-25T07:04:01Z</time>
      </trkpt>
      <trkpt lat="45.64833" lon="6.5774">
        <ele>1567.57</ele>
        <time>2021-06-25T07:04:06Z</time>
      </trkpt>
      <trkpt lat="45.64827" lon="6.5774">
        <ele>1568.05</ele>
        <time>2021-06-25T07:04:12Z</time>
      </trkpt>
      <trkpt lat="45.64813" lon="6.57744">
        <ele>1568.53</ele>
        <time>2021-06-25T07:04:25Z</time>
      </trkpt>
      <trkpt lat="45.64809" lon="6.57744">
        <ele>1568.53</ele>
        <time>2021-06-25T07:04:29Z</time>
      </trkpt>
      <trkpt lat="45.64804" lon="6.57744">
        <ele>1569.01</ele>
        <time>2021-06-25T07:04:34Z</time>
      </trkpt>
      <trkpt lat="45.64783" lon="6.57754">
        <ele>1569.01</ele>
        <time>2021-06-25T07:04:50Z</time>
      </trkpt>
      <trkpt lat="45.64765" lon="6.57744">
        <ele>1569.01</ele>
        <time>2021-06-25T07:05:07Z</time>
      </trkpt>
      <trkpt lat="45.64757" lon="6.57737">
        <ele>1569.01</ele>
        <time>2021-06-25T07:05:16Z</time>
      </trkpt>
      <trkpt lat="45.6475" lon="6.57736">
        <ele>1568.05</ele>
        <time>2021-06-25T07:05:22Z</time>
      </trkpt>
      <trkpt lat="45.64736" lon="6.57732">
        <ele>1567.57</ele>
        <time>2021-06-25T07:05:36Z</time>
      </trkpt>
      <trkpt lat="45.64728" lon="6.57729">
        <ele>1567.09</ele>
        <time>2021-06-25T07:06:02Z</time>
      </trkpt>
      <trkpt lat="45.64726" lon="6.57734">
        <ele>1567.09</ele>
        <time>2021-06-25T07:06:25Z</time>
      </trkpt>
      <trkpt lat="45.64725" lon="6.57739">
        <ele>1567.09</ele>
        <time>2021-06-25T07:06:40Z</time>
      </trkpt>
      <trkpt lat="45.64721" lon="6.57741">
        <ele>1567.09</ele>
        <time>2021-06-25T07:06:56Z</time>
      </trkpt>
      <trkpt lat="45.6472" lon="6.57741">
        <ele>1567.09</ele>
        <time>2021-06-25T07:06:57Z</time>
      </trkpt>
      <trkpt lat="45.6471" lon="6.57735">
        <ele>1566.12</ele>
        <time>2021-06-25T07:07:09Z</time>
      </trkpt>
      <trkpt lat="45.64697" lon="6.57736">
        <ele>1565.64</ele>
        <time>2021-06-25T07:07:21Z</time>
      </trkpt>
      <trkpt lat="45.64682" lon="6.57733">
        <ele>1565.64</ele>
        <time>2021-06-25T07:07:35Z</time>
      </trkpt>
      <trkpt lat="45.64667" lon="6.57733">
        <ele>1565.16</ele>
        <time>2021-06-25T07:07:50Z</time>
      </trkpt>
      <trkpt lat="45.64659" lon="6.5773">
        <ele>1565.16</ele>
        <time>2021-06-25T07:08:01Z</time>
      </trkpt>
      <trkpt lat="45.64653" lon="6.57729">
        <ele>1565.16</ele>
        <time>2021-06-25T07:08:09Z</time>
      </trkpt>
      <trkpt lat="45.64642" lon="6.57723">
        <ele>1565.16</ele>
        <time>2021-06-25T07:08:23Z</time>
      </trkpt>
      <trkpt lat="45.64631" lon="6.5772">
        <ele>1564.68</ele>
        <time>2021-06-25T07:08:37Z</time>
      </trkpt>
      <trkpt lat="45.6462" lon="6.57715">
        <ele>1564.68</ele>
        <time>2021-06-25T07:08:51Z</time>
      </trkpt>
      <trkpt lat="45.64619" lon="6.57715">
        <ele>1564.68</ele>
        <time>2021-06-25T07:08:52Z</time>
      </trkpt>
      <trkpt lat="45.64612" lon="6.57715">
        <ele>1564.68</ele>
        <time>2021-06-25T07:08:57Z</time>
      </trkpt>
      <trkpt lat="45.64607" lon="6.57714">
        <ele>1564.68</ele>
        <time>2021-06-25T07:09:03Z</time>
      </trkpt>
      <trkpt lat="45.64594" lon="6.57718">
        <ele>1563.72</ele>
        <time>2021-06-25T07:09:17Z</time>
      </trkpt>
      <trkpt lat="45.64582" lon="6.5772">
        <ele>1563.24</ele>
        <time>2021-06-25T07:09:31Z</time>
      </trkpt>
      <trkpt lat="45.64579" lon="6.57721">
        <ele>1563.24</ele>
        <time>2021-06-25T07:09:36Z</time>
      </trkpt>
      <trkpt lat="45.64568" lon="6.5772">
        <ele>1563.24</ele>
        <time>2021-06-25T07:09:49Z</time>
      </trkpt>
      <trkpt lat="45.64561" lon="6.57717">
        <ele>1563.24</ele>
        <time>2021-06-25T07:10:00Z</time>
      </trkpt>
      <trkpt lat="45.64551" lon="6.57715">
        <ele>1563.24</ele>
        <time>2021-06-25T07:10:13Z</time>
      </trkpt>
      <trkpt lat="45.64537" lon="6.57714">
        <ele>1563.24</ele>
        <time>2021-06-25T07:10:27Z</time>
      </trkpt>
      <trkpt lat="45.64529" lon="6.57715">
        <ele>1564.2</ele>
        <time>2021-06-25T07:10:34Z</time>
      </trkpt>
      <trkpt lat="45.64523" lon="6.57715">
        <ele>1564.2</ele>
        <time>2021-06-25T07:10:37Z</time>
      </trkpt>
      <trkpt lat="45.64502" lon="6.57714">
        <ele>1564.2</ele>
        <time>2021-06-25T07:10:53Z</time>
      </trkpt>
      <trkpt lat="45.64499" lon="6.57711">
        <ele>1564.2</ele>
        <time>2021-06-25T07:10:56Z</time>
      </trkpt>
      <trkpt lat="45.64488" lon="6.57709">
        <ele>1564.68</ele>
        <time>2021-06-25T07:11:09Z</time>
      </trkpt>
      <trkpt lat="45.64474" lon="6.57707">
        <ele>1564.68</ele>
        <time>2021-06-25T07:11:23Z</time>
      </trkpt>
      <trkpt lat="45.64464" lon="6.57704">
        <ele>1564.68</ele>
        <time>2021-06-25T07:11:36Z</time>
      </trkpt>
      <trkpt lat="45.64452" lon="6.57701">
        <ele>1565.16</ele>
        <time>2021-06-25T07:11:52Z</time>
      </trkpt>
      <trkpt lat="45.6444" lon="6.57702">
        <ele>1565.64</ele>
        <time>2021-06-25T07:12:07Z</time>
      </trkpt>
      <trkpt lat="45.6444" lon="6.577">
        <ele>1565.64</ele>
        <time>2021-06-25T07:12:26Z</time>
      </trkpt>
      <trkpt lat="45.64433" lon="6.57696">
        <ele>1565.64</ele>
        <time>2021-06-25T07:12:42Z</time>
      </trkpt>
      <trkpt lat="45.64427" lon="6.57693">
        <ele>1565.64</ele>
        <time>2021-06-25T07:12:57Z</time>
      </trkpt>
      <trkpt lat="45.64419" lon="6.57687">
        <ele>1565.64</ele>
        <time>2021-06-25T07:13:11Z</time>
      </trkpt>
      <trkpt lat="45.64414" lon="6.57684">
        <ele>1565.64</ele>
        <time>2021-06-25T07:13:23Z</time>
      </trkpt>
      <trkpt lat="45.64404" lon="6.57681">
        <ele>1565.64</ele>
        <time>2021-06-25T07:13:40Z</time>
      </trkpt>
      <trkpt lat="45.64396" lon="6.57685">
        <ele>1566.12</ele>
        <time>2021-06-25T07:13:53Z</time>
      </trkpt>
      <trkpt lat="45.6439" lon="6.5768">
        <ele>1566.12</ele>
        <time>2021-06-25T07:14:03Z</time>
      </trkpt>
      <trkpt lat="45.64379" lon="6.57677">
        <ele>1566.61</ele>
        <time>2021-06-25T07:14:15Z</time>
      </trkpt>
      <trkpt lat="45.64368" lon="6.5767">
        <ele>1566.61</ele>
        <time>2021-06-25T07:14:30Z</time>
      </trkpt>
      <trkpt lat="45.64356" lon="6.5766">
        <ele>1566.12</ele>
        <time>2021-06-25T07:14:45Z</time>
      </trkpt>
      <trkpt lat="45.64342" lon="6.57652">
        <ele>1566.12</ele>
        <time>2021-06-25T07:15:01Z</time>
      </trkpt>
      <trkpt lat="45.64328" lon="6.5765">
        <ele>1566.12</ele>
        <time>2021-06-25T07:15:15Z</time>
      </trkpt>
      <trkpt lat="45.64326" lon="6.5765">
        <ele>1564.68</ele>
        <time>2021-06-25T07:15:17Z</time>
      </trkpt>
      <trkpt lat="45.64316" lon="6.57647">
        <ele>1564.2</ele>
        <time>2021-06-25T07:15:29Z</time>
      </trkpt>
      <trkpt lat="45.64308" lon="6.57646">
        <ele>1563.72</ele>
        <time>2021-06-25T07:15:39Z</time>
      </trkpt>
      <trkpt lat="45.64305" lon="6.57646">
        <ele>1563.72</ele>
        <time>2021-06-25T07:15:41Z</time>
      </trkpt>
      <trkpt lat="45.64279" lon="6.57644">
        <ele>1562.76</ele>
        <time>2021-06-25T07:15:58Z</time>
      </trkpt>
      <trkpt lat="45.64262" lon="6.57639">
        <ele>1562.76</ele>
        <time>2021-06-25T07:16:10Z</time>
      </trkpt>
      <trkpt lat="45.64248" lon="6.57639">
        <ele>1563.24</ele>
        <time>2021-06-25T07:16:21Z</time>
      </trkpt>
      <trkpt lat="45.64235" lon="6.57629">
        <ele>1562.76</ele>
        <time>2021-06-25T07:16:34Z</time>
      </trkpt>
      <trkpt lat="45.64225" lon="6.57616">
        <ele>1562.76</ele>
        <time>2021-06-25T07:16:49Z</time>
      </trkpt>
      <trkpt lat="45.64215" lon="6.57604">
        <ele>1562.76</ele>
        <time>2021-06-25T07:17:02Z</time>
      </trkpt>
      <trkpt lat="45.64211" lon="6.57601">
        <ele>1562.76</ele>
        <time>2021-06-25T07:17:06Z</time>
      </trkpt>
      <trkpt lat="45.64206" lon="6.57597">
        <ele>1562.76</ele>
        <time>2021-06-25T07:17:11Z</time>
      </trkpt>
      <trkpt lat="45.64202" lon="6.57596">
        <ele>1564.2</ele>
        <time>2021-06-25T07:17:15Z</time>
      </trkpt>
      <trkpt lat="45.642" lon="6.57595">
        <ele>1564.2</ele>
        <time>2021-06-25T07:17:17Z</time>
      </trkpt>
      <trkpt lat="45.64183" lon="6.57586">
        <ele>1565.16</ele>
        <time>2021-06-25T07:17:34Z</time>
      </trkpt>
      <trkpt lat="45.64173" lon="6.57584">
        <ele>1565.16</ele>
        <time>2021-06-25T07:17:46Z</time>
      </trkpt>
      <trkpt lat="45.64164" lon="6.57583">
        <ele>1565.16</ele>
        <time>2021-06-25T07:17:59Z</time>
      </trkpt>
      <trkpt lat="45.64157" lon="6.57583">
        <ele>1566.61</ele>
        <time>2021-06-25T07:18:13Z</time>
      </trkpt>
      <trkpt lat="45.64155" lon="6.57582">
        <ele>1568.53</ele>
        <time>2021-06-25T07:18:24Z</time>
      </trkpt>
      <trkpt lat="45.64149" lon="6.57576">
        <ele>1570.45</ele>
        <time>2021-06-25T07:18:37Z</time>
      </trkpt>
      <trkpt lat="45.64141" lon="6.57567">
        <ele>1572.37</ele>
        <time>2021-06-25T07:18:51Z</time>
      </trkpt>
      <trkpt lat="45.64138" lon="6.57557">
        <ele>1574.3</ele>
        <time>2021-06-25T07:19:04Z</time>
      </trkpt>
      <trkpt lat="45.64141" lon="6.57546">
        <ele>1577.18</ele>
        <time>2021-06-25T07:19:19Z</time>
      </trkpt>
      <trkpt lat="45.6414" lon="6.57544">
        <ele>1577.18</ele>
        <time>2021-06-25T07:19:36Z</time>
      </trkpt>
      <trkpt lat="45.64139" lon="6.57537">
        <ele>1577.66</ele>
        <time>2021-06-25T07:20:04Z</time>
      </trkpt>
      <trkpt lat="45.64136" lon="6.57539">
        <ele>1577.66</ele>
        <time>2021-06-25T07:20:20Z</time>
      </trkpt>
      <trkpt lat="45.64132" lon="6.57533">
        <ele>1578.14</ele>
        <time>2021-06-25T07:20:41Z</time>
      </trkpt>
      <trkpt lat="45.64126" lon="6.57522">
        <ele>1578.14</ele>
        <time>2021-06-25T07:20:55Z</time>
      </trkpt>
      <trkpt lat="45.6412" lon="6.57514">
        <ele>1578.14</ele>
        <time>2021-06-25T07:21:07Z</time>
      </trkpt>
      <trkpt lat="45.64113" lon="6.57506">
        <ele>1578.14</ele>
        <time>2021-06-25T07:21:22Z</time>
      </trkpt>
      <trkpt lat="45.64106" lon="6.57498">
        <ele>1578.14</ele>
        <time>2021-06-25T07:21:36Z</time>
      </trkpt>
      <trkpt lat="45.64104" lon="6.57492">
        <ele>1578.14</ele>
        <time>2021-06-25T07:21:44Z</time>
      </trkpt>
      <trkpt lat="45.64095" lon="6.57486">
        <ele>1578.14</ele>
        <time>2021-06-25T07:21:57Z</time>
      </trkpt>
      <trkpt lat="45.64085" lon="6.57477">
        <ele>1578.14</ele>
        <time>2021-06-25T07:22:10Z</time>
      </trkpt>
      <trkpt lat="45.64081" lon="6.57472">
        <ele>1578.62</ele>
        <time>2021-06-25T07:22:21Z</time>
      </trkpt>
      <trkpt lat="45.64071" lon="6.57468">
        <ele>1580.54</ele>
        <time>2021-06-25T07:22:36Z</time>
      </trkpt>
      <trkpt lat="45.64065" lon="6.57467">
        <ele>1580.54</ele>
        <time>2021-06-25T07:22:48Z</time>
      </trkpt>
      <trkpt lat="45.64057" lon="6.57459">
        <ele>1580.54</ele>
        <time>2021-06-25T07:23:01Z</time>
      </trkpt>
      <trkpt lat="45.64053" lon="6.57456">
        <ele>1582.47</ele>
        <time>2021-06-25T07:23:12Z</time>
      </trkpt>
      <trkpt lat="45.64052" lon="6.57455">
        <ele>1581.03</ele>
        <time>2021-06-25T07:23:15Z</time>
      </trkpt>
      <trkpt lat="45.64044" lon="6.57447">
        <ele>1582.47</ele>
        <time>2021-06-25T07:23:30Z</time>
      </trkpt>
      <trkpt lat="45.64034" lon="6.5744">
        <ele>1583.43</ele>
        <time>2021-06-25T07:23:44Z</time>
      </trkpt>
      <trkpt lat="45.64021" lon="6.57437">
        <ele>1585.35</ele>
        <time>2021-06-25T07:23:58Z</time>
      </trkpt>
      <trkpt lat="45.64009" lon="6.57434">
        <ele>1587.27</ele>
        <time>2021-06-25T07:24:12Z</time>
      </trkpt>
      <trkpt lat="45.64005" lon="6.57417">
        <ele>1589.2</ele>
        <time>2021-06-25T07:24:27Z</time>
      </trkpt>
      <trkpt lat="45.64005" lon="6.57401">
        <ele>1591.12</ele>
        <time>2021-06-25T07:24:42Z</time>
      </trkpt>
      <trkpt lat="45.64003" lon="6.57388">
        <ele>1593.04</ele>
        <time>2021-06-25T07:24:55Z</time>
      </trkpt>
      <trkpt lat="45.63996" lon="6.57377">
        <ele>1595.93</ele>
        <time>2021-06-25T07:25:10Z</time>
      </trkpt>
      <trkpt lat="45.63986" lon="6.5737">
        <ele>1594.96</ele>
        <time>2021-06-25T07:25:23Z</time>
      </trkpt>
      <trkpt lat="45.63983" lon="6.57367">
        <ele>1594.96</ele>
        <time>2021-06-25T07:25:36Z</time>
      </trkpt>
      <trkpt lat="45.6398" lon="6.57362">
        <ele>1594.96</ele>
        <time>2021-06-25T07:25:51Z</time>
      </trkpt>
      <trkpt lat="45.6397" lon="6.57357">
        <ele>1594.96</ele>
        <time>2021-06-25T07:26:03Z</time>
      </trkpt>
      <trkpt lat="45.63968" lon="6.57353">
        <ele>1596.41</ele>
        <time>2021-06-25T07:26:16Z</time>
      </trkpt>
      <trkpt lat="45.63955" lon="6.57349">
        <ele>1596.89</ele>
        <time>2021-06-25T07:26:32Z</time>
      </trkpt>
      <trkpt lat="45.63952" lon="6.5735">
        <ele>1596.89</ele>
        <time>2021-06-25T07:26:35Z</time>
      </trkpt>
      <trkpt lat="45.63946" lon="6.5735">
        <ele>1597.85</ele>
        <time>2021-06-25T07:26:40Z</time>
      </trkpt>
      <trkpt lat="45.63937" lon="6.57343">
        <ele>1599.29</ele>
        <time>2021-06-25T07:26:52Z</time>
      </trkpt>
      <trkpt lat="45.63931" lon="6.57342">
        <ele>1600.25</ele>
        <time>2021-06-25T07:27:04Z</time>
      </trkpt>
      <trkpt lat="45.63926" lon="6.57327">
        <ele>1602.66</ele>
        <time>2021-06-25T07:27:18Z</time>
      </trkpt>
      <trkpt lat="45.63923" lon="6.57322">
        <ele>1603.14</ele>
        <time>2021-06-25T07:27:23Z</time>
      </trkpt>
      <trkpt lat="45.63918" lon="6.57306">
        <ele>1606.02</ele>
        <time>2021-06-25T07:27:37Z</time>
      </trkpt>
      <trkpt lat="45.63914" lon="6.57304">
        <ele>1606.98</ele>
        <time>2021-06-25T07:27:55Z</time>
      </trkpt>
      <trkpt lat="45.63912" lon="6.57297">
        <ele>1607.94</ele>
        <time>2021-06-25T07:28:08Z</time>
      </trkpt>
      <trkpt lat="45.6391" lon="6.57293">
        <ele>1608.9</ele>
        <time>2021-06-25T07:28:14Z</time>
      </trkpt>
      <trkpt lat="45.63905" lon="6.57279">
        <ele>1611.31</ele>
        <time>2021-06-25T07:28:27Z</time>
      </trkpt>
      <trkpt lat="45.639" lon="6.57272">
        <ele>1614.19</ele>
        <time>2021-06-25T07:28:42Z</time>
      </trkpt>
      <trkpt lat="45.63892" lon="6.57263">
        <ele>1615.63</ele>
        <time>2021-06-25T07:28:57Z</time>
      </trkpt>
      <trkpt lat="45.63887" lon="6.57254">
        <ele>1618.04</ele>
        <time>2021-06-25T07:29:11Z</time>
      </trkpt>
      <trkpt lat="45.63883" lon="6.57244">
        <ele>1619.48</ele>
        <time>2021-06-25T07:29:25Z</time>
      </trkpt>
      <trkpt lat="45.63878" lon="6.57234">
        <ele>1620.92</ele>
        <time>2021-06-25T07:29:37Z</time>
      </trkpt>
      <trkpt lat="45.6387" lon="6.57225">
        <ele>1622.84</ele>
        <time>2021-06-25T07:29:51Z</time>
      </trkpt>
      <trkpt lat="45.6386" lon="6.57213">
        <ele>1623.32</ele>
        <time>2021-06-25T07:30:06Z</time>
      </trkpt>
      <trkpt lat="45.63853" lon="6.57207">
        <ele>1622.36</ele>
        <time>2021-06-25T07:30:15Z</time>
      </trkpt>
      <trkpt lat="45.63847" lon="6.57203">
        <ele>1621.88</ele>
        <time>2021-06-25T07:30:29Z</time>
      </trkpt>
      <trkpt lat="45.63842" lon="6.57197">
        <ele>1623.32</ele>
        <time>2021-06-25T07:30:41Z</time>
      </trkpt>
      <trkpt lat="45.63835" lon="6.57191">
        <ele>1625.73</ele>
        <time>2021-06-25T07:30:55Z</time>
      </trkpt>
      <trkpt lat="45.6383" lon="6.57181">
        <ele>1626.21</ele>
        <time>2021-06-25T07:31:08Z</time>
      </trkpt>
      <trkpt lat="45.63831" lon="6.57179">
        <ele>1626.69</ele>
        <time>2021-06-25T07:31:31Z</time>
      </trkpt>
      <trkpt lat="45.63834" lon="6.57178">
        <ele>1627.17</ele>
        <time>2021-06-25T07:31:59Z</time>
      </trkpt>
      <trkpt lat="45.63825" lon="6.57175">
        <ele>1627.65</ele>
        <time>2021-06-25T07:32:19Z</time>
      </trkpt>
      <trkpt lat="45.63822" lon="6.57177">
        <ele>1627.65</ele>
        <time>2021-06-25T07:32:55Z</time>
      </trkpt>
      <trkpt lat="45.63826" lon="6.57178">
        <ele>1628.13</ele>
        <time>2021-06-25T07:33:22Z</time>
      </trkpt>
      <trkpt lat="45.6383" lon="6.57175">
        <ele>1628.61</ele>
        <time>2021-06-25T07:33:36Z</time>
      </trkpt>
      <trkpt lat="45.63827" lon="6.57167">
        <ele>1628.61</ele>
        <time>2021-06-25T07:33:54Z</time>
      </trkpt>
      <trkpt lat="45.63821" lon="6.57158">
        <ele>1628.61</ele>
        <time>2021-06-25T07:34:08Z</time>
      </trkpt>
      <trkpt lat="45.63811" lon="6.57159">
        <ele>1628.61</ele>
        <time>2021-06-25T07:34:22Z</time>
      </trkpt>
      <trkpt lat="45.63802" lon="6.57153">
        <ele>1628.61</ele>
        <time>2021-06-25T07:34:38Z</time>
      </trkpt>
      <trkpt lat="45.63793" lon="6.57155">
        <ele>1628.61</ele>
        <time>2021-06-25T07:34:50Z</time>
      </trkpt>
      <trkpt lat="45.63791" lon="6.57139">
        <ele>1629.09</ele>
        <time>2021-06-25T07:35:03Z</time>
      </trkpt>
      <trkpt lat="45.63791" lon="6.57124">
        <ele>1631.01</ele>
        <time>2021-06-25T07:35:18Z</time>
      </trkpt>
      <trkpt lat="45.63787" lon="6.57118">
        <ele>1630.05</ele>
        <time>2021-06-25T07:35:24Z</time>
      </trkpt>
      <trkpt lat="45.63785" lon="6.57115">
        <ele>1630.05</ele>
        <time>2021-06-25T07:35:27Z</time>
      </trkpt>
      <trkpt lat="45.6378" lon="6.57107">
        <ele>1631.01</ele>
        <time>2021-06-25T07:35:41Z</time>
      </trkpt>
      <trkpt lat="45.63777" lon="6.57098">
        <ele>1631.49</ele>
        <time>2021-06-25T07:35:53Z</time>
      </trkpt>
      <trkpt lat="45.63774" lon="6.57093">
        <ele>1631.98</ele>
        <time>2021-06-25T07:36:08Z</time>
      </trkpt>
      <trkpt lat="45.63773" lon="6.57102">
        <ele>1631.98</ele>
        <time>2021-06-25T07:36:22Z</time>
      </trkpt>
      <trkpt lat="45.63774" lon="6.57105">
        <ele>1632.46</ele>
        <time>2021-06-25T07:36:44Z</time>
      </trkpt>
      <trkpt lat="45.63767" lon="6.57114">
        <ele>1634.38</ele>
        <time>2021-06-25T07:36:59Z</time>
      </trkpt>
      <trkpt lat="45.63762" lon="6.57109">
        <ele>1636.78</ele>
        <time>2021-06-25T07:37:11Z</time>
      </trkpt>
      <trkpt lat="45.6376" lon="6.571">
        <ele>1638.7</ele>
        <time>2021-06-25T07:37:25Z</time>
      </trkpt>
      <trkpt lat="45.63758" lon="6.57089">
        <ele>1640.15</ele>
        <time>2021-06-25T07:37:37Z</time>
      </trkpt>
      <trkpt lat="45.63753" lon="6.57079">
        <ele>1642.07</ele>
        <time>2021-06-25T07:37:51Z</time>
      </trkpt>
      <trkpt lat="45.6375" lon="6.57089">
        <ele>1644.95</ele>
        <time>2021-06-25T07:38:07Z</time>
      </trkpt>
      <trkpt lat="45.63744" lon="6.57091">
        <ele>1647.36</ele>
        <time>2021-06-25T07:38:21Z</time>
      </trkpt>
      <trkpt lat="45.6374" lon="6.57078">
        <ele>1648.8</ele>
        <time>2021-06-25T07:38:36Z</time>
      </trkpt>
      <trkpt lat="45.63737" lon="6.57084">
        <ele>1651.2</ele>
        <time>2021-06-25T07:38:49Z</time>
      </trkpt>
      <trkpt lat="45.63731" lon="6.57084">
        <ele>1652.64</ele>
        <time>2021-06-25T07:39:03Z</time>
      </trkpt>
      <trkpt lat="45.63729" lon="6.57074">
        <ele>1654.09</ele>
        <time>2021-06-25T07:39:19Z</time>
      </trkpt>
      <trkpt lat="45.63723" lon="6.57081">
        <ele>1656.01</ele>
        <time>2021-06-25T07:39:35Z</time>
      </trkpt>
      <trkpt lat="45.63718" lon="6.57081">
        <ele>1657.93</ele>
        <time>2021-06-25T07:39:49Z</time>
      </trkpt>
      <trkpt lat="45.63712" lon="6.57074">
        <ele>1659.85</ele>
        <time>2021-06-25T07:40:03Z</time>
      </trkpt>
      <trkpt lat="45.63705" lon="6.5707">
        <ele>1662.74</ele>
        <time>2021-06-25T07:40:18Z</time>
      </trkpt>
      <trkpt lat="45.63702" lon="6.57063">
        <ele>1664.18</ele>
        <time>2021-06-25T07:40:33Z</time>
      </trkpt>
      <trkpt lat="45.63701" lon="6.57055">
        <ele>1666.1</ele>
        <time>2021-06-25T07:40:47Z</time>
      </trkpt>
      <trkpt lat="45.63696" lon="6.57057">
        <ele>1668.02</ele>
        <time>2021-06-25T07:41:01Z</time>
      </trkpt>
      <trkpt lat="45.63691" lon="6.57054">
        <ele>1669.47</ele>
        <time>2021-06-25T07:41:13Z</time>
      </trkpt>
      <trkpt lat="45.6369" lon="6.57053">
        <ele>1670.43</ele>
        <time>2021-06-25T07:41:28Z</time>
      </trkpt>
      <trkpt lat="45.6369" lon="6.57054">
        <ele>1671.87</ele>
        <time>2021-06-25T07:41:41Z</time>
      </trkpt>
      <trkpt lat="45.6369" lon="6.57053">
        <ele>1671.87</ele>
        <time>2021-06-25T07:42:00Z</time>
      </trkpt>
      <trkpt lat="45.63686" lon="6.57062">
        <ele>1672.83</ele>
        <time>2021-06-25T07:42:13Z</time>
      </trkpt>
      <trkpt lat="45.63678" lon="6.57069">
        <ele>1674.27</ele>
        <time>2021-06-25T07:42:27Z</time>
      </trkpt>
      <trkpt lat="45.63671" lon="6.57068">
        <ele>1675.72</ele>
        <time>2021-06-25T07:42:40Z</time>
      </trkpt>
      <trkpt lat="45.63667" lon="6.5706">
        <ele>1676.68</ele>
        <time>2021-06-25T07:42:53Z</time>
      </trkpt>
      <trkpt lat="45.63659" lon="6.5706">
        <ele>1679.08</ele>
        <time>2021-06-25T07:43:10Z</time>
      </trkpt>
      <trkpt lat="45.63649" lon="6.57055">
        <ele>1680.52</ele>
        <time>2021-06-25T07:43:26Z</time>
      </trkpt>
      <trkpt lat="45.63643" lon="6.57047">
        <ele>1682.44</ele>
        <time>2021-06-25T07:43:40Z</time>
      </trkpt>
      <trkpt lat="45.63639" lon="6.57042">
        <ele>1680.04</ele>
        <time>2021-06-25T07:43:53Z</time>
      </trkpt>
      <trkpt lat="45.63628" lon="6.57039">
        <ele>1680.52</ele>
        <time>2021-06-25T07:44:07Z</time>
      </trkpt>
      <trkpt lat="45.6362" lon="6.57036">
        <ele>1682.93</ele>
        <time>2021-06-25T07:44:21Z</time>
      </trkpt>
      <trkpt lat="45.63621" lon="6.5703">
        <ele>1683.41</ele>
        <time>2021-06-25T07:44:33Z</time>
      </trkpt>
      <trkpt lat="45.63628" lon="6.57023">
        <ele>1683.41</ele>
        <time>2021-06-25T07:44:49Z</time>
      </trkpt>
      <trkpt lat="45.6363" lon="6.57016">
        <ele>1684.37</ele>
        <time>2021-06-25T07:44:58Z</time>
      </trkpt>
      <trkpt lat="45.63633" lon="6.57013">
        <ele>1684.37</ele>
        <time>2021-06-25T07:45:15Z</time>
      </trkpt>
      <trkpt lat="45.63633" lon="6.57013">
        <ele>1684.37</ele>
        <time>2021-06-25T07:45:42Z</time>
      </trkpt>
      <trkpt lat="45.63634" lon="6.57014">
        <ele>1682.93</ele>
        <time>2021-06-25T07:45:50Z</time>
      </trkpt>
      <trkpt lat="45.63636" lon="6.57015">
        <ele>1683.41</ele>
        <time>2021-06-25T07:46:25Z</time>
      </trkpt>
      <trkpt lat="45.63635" lon="6.57013">
        <ele>1683.41</ele>
        <time>2021-06-25T07:46:52Z</time>
      </trkpt>
      <trkpt lat="45.63636" lon="6.57013">
        <ele>1685.81</ele>
        <time>2021-06-25T07:46:58Z</time>
      </trkpt>
      <trkpt lat="45.63636" lon="6.57013">
        <ele>1684.37</ele>
        <time>2021-06-25T07:47:00Z</time>
      </trkpt>
      <trkpt lat="45.63635" lon="6.57013">
        <ele>1684.85</ele>
        <time>2021-06-25T07:47:21Z</time>
      </trkpt>
      <trkpt lat="45.63633" lon="6.57014">
        <ele>1684.85</ele>
        <time>2021-06-25T07:47:55Z</time>
      </trkpt>
      <trkpt lat="45.63632" lon="6.57012">
        <ele>1685.81</ele>
        <time>2021-06-25T07:48:18Z</time>
      </trkpt>
      <trkpt lat="45.63633" lon="6.57012">
        <ele>1684.37</ele>
        <time>2021-06-25T07:48:20Z</time>
      </trkpt>
      <trkpt lat="45.63634" lon="6.57009">
        <ele>1685.81</ele>
        <time>2021-06-25T07:48:30Z</time>
      </trkpt>
      <trkpt lat="45.63632" lon="6.57">
        <ele>1688.21</ele>
        <time>2021-06-25T07:48:44Z</time>
      </trkpt>
      <trkpt lat="45.63626" lon="6.56987">
        <ele>1689.65</ele>
        <time>2021-06-25T07:49:00Z</time>
      </trkpt>
      <trkpt lat="45.63619" lon="6.56974">
        <ele>1690.62</ele>
        <time>2021-06-25T07:49:14Z</time>
      </trkpt>
      <trkpt lat="45.63611" lon="6.5696">
        <ele>1691.58</ele>
        <time>2021-06-25T07:49:29Z</time>
      </trkpt>
      <trkpt lat="45.63601" lon="6.56951">
        <ele>1691.58</ele>
        <time>2021-06-25T07:49:45Z</time>
      </trkpt>
      <trkpt lat="45.63593" lon="6.56941">
        <ele>1691.58</ele>
        <time>2021-06-25T07:50:00Z</time>
      </trkpt>
      <trkpt lat="45.63589" lon="6.56933">
        <ele>1693.98</ele>
        <time>2021-06-25T07:50:14Z</time>
      </trkpt>
      <trkpt lat="45.63585" lon="6.56927">
        <ele>1696.38</ele>
        <time>2021-06-25T07:50:28Z</time>
      </trkpt>
      <trkpt lat="45.63583" lon="6.56918">
        <ele>1698.79</ele>
        <time>2021-06-25T07:50:43Z</time>
      </trkpt>
      <trkpt lat="45.63579" lon="6.56916">
        <ele>1699.27</ele>
        <time>2021-06-25T07:50:56Z</time>
      </trkpt>
      <trkpt lat="45.63575" lon="6.56915">
        <ele>1699.27</ele>
        <time>2021-06-25T07:51:02Z</time>
      </trkpt>
      <trkpt lat="45.63564" lon="6.56915">
        <ele>1698.79</ele>
        <time>2021-06-25T07:51:16Z</time>
      </trkpt>
      <trkpt lat="45.63555" lon="6.56916">
        <ele>1699.27</ele>
        <time>2021-06-25T07:51:31Z</time>
      </trkpt>
      <trkpt lat="45.6355" lon="6.5691">
        <ele>1701.67</ele>
        <time>2021-06-25T07:51:44Z</time>
      </trkpt>
      <trkpt lat="45.63543" lon="6.56906">
        <ele>1703.59</ele>
        <time>2021-06-25T07:51:59Z</time>
      </trkpt>
      <trkpt lat="45.63534" lon="6.56897">
        <ele>1705.04</ele>
        <time>2021-06-25T07:52:13Z</time>
      </trkpt>
      <trkpt lat="45.63526" lon="6.56884">
        <ele>1706.96</ele>
        <time>2021-06-25T07:52:30Z</time>
      </trkpt>
      <trkpt lat="45.63524" lon="6.56874">
        <ele>1708.4</ele>
        <time>2021-06-25T07:52:43Z</time>
      </trkpt>
      <trkpt lat="45.63518" lon="6.56865">
        <ele>1709.84</ele>
        <time>2021-06-25T07:52:57Z</time>
      </trkpt>
      <trkpt lat="45.63513" lon="6.56855">
        <ele>1712.25</ele>
        <time>2021-06-25T07:53:12Z</time>
      </trkpt>
      <trkpt lat="45.63508" lon="6.56849">
        <ele>1713.21</ele>
        <time>2021-06-25T07:53:25Z</time>
      </trkpt>
      <trkpt lat="45.63499" lon="6.56842">
        <ele>1714.65</ele>
        <time>2021-06-25T07:53:40Z</time>
      </trkpt>
      <trkpt lat="45.63489" lon="6.56839">
        <ele>1715.61</ele>
        <time>2021-06-25T07:53:54Z</time>
      </trkpt>
      <trkpt lat="45.63482" lon="6.56832">
        <ele>1715.61</ele>
        <time>2021-06-25T07:54:06Z</time>
      </trkpt>
      <trkpt lat="45.63481" lon="6.56815">
        <ele>1715.61</ele>
        <time>2021-06-25T07:54:22Z</time>
      </trkpt>
      <trkpt lat="45.63479" lon="6.56805">
        <ele>1717.05</ele>
        <time>2021-06-25T07:54:36Z</time>
      </trkpt>
      <trkpt lat="45.63476" lon="6.56787">
        <ele>1716.57</ele>
        <time>2021-06-25T07:54:51Z</time>
      </trkpt>
      <trkpt lat="45.63471" lon="6.56773">
        <ele>1716.57</ele>
        <time>2021-06-25T07:55:04Z</time>
      </trkpt>
      <trkpt lat="45.63462" lon="6.56764">
        <ele>1716.57</ele>
        <time>2021-06-25T07:55:18Z</time>
      </trkpt>
      <trkpt lat="45.63453" lon="6.56759">
        <ele>1716.57</ele>
        <time>2021-06-25T07:55:30Z</time>
      </trkpt>
      <trkpt lat="45.63443" lon="6.5675">
        <ele>1718.49</ele>
        <time>2021-06-25T07:55:47Z</time>
      </trkpt>
      <trkpt lat="45.63439" lon="6.56739">
        <ele>1719.94</ele>
        <time>2021-06-25T07:56:02Z</time>
      </trkpt>
      <trkpt lat="45.63432" lon="6.56722">
        <ele>1720.9</ele>
        <time>2021-06-25T07:56:20Z</time>
      </trkpt>
      <trkpt lat="45.63427" lon="6.56708">
        <ele>1721.86</ele>
        <time>2021-06-25T07:56:35Z</time>
      </trkpt>
      <trkpt lat="45.63422" lon="6.56698">
        <ele>1723.3</ele>
        <time>2021-06-25T07:56:49Z</time>
      </trkpt>
      <trkpt lat="45.63416" lon="6.56691">
        <ele>1725.22</ele>
        <time>2021-06-25T07:57:02Z</time>
      </trkpt>
      <trkpt lat="45.63406" lon="6.56687">
        <ele>1723.78</ele>
        <time>2021-06-25T07:57:17Z</time>
      </trkpt>
      <trkpt lat="45.63399" lon="6.56672">
        <ele>1721.86</ele>
        <time>2021-06-25T07:57:35Z</time>
      </trkpt>
      <trkpt lat="45.63397" lon="6.56662">
        <ele>1722.82</ele>
        <time>2021-06-25T07:57:46Z</time>
      </trkpt>
      <trkpt lat="45.63407" lon="6.56664">
        <ele>1723.3</ele>
        <time>2021-06-25T07:57:59Z</time>
      </trkpt>
      <trkpt lat="45.63414" lon="6.56661">
        <ele>1724.74</ele>
        <time>2021-06-25T07:58:15Z</time>
      </trkpt>
      <trkpt lat="45.63409" lon="6.56654">
        <ele>1727.15</ele>
        <time>2021-06-25T07:58:28Z</time>
      </trkpt>
      <trkpt lat="45.63404" lon="6.56646">
        <ele>1728.59</ele>
        <time>2021-06-25T07:58:40Z</time>
      </trkpt>
      <trkpt lat="45.63399" lon="6.56638">
        <ele>1730.99</ele>
        <time>2021-06-25T07:58:54Z</time>
      </trkpt>
      <trkpt lat="45.63401" lon="6.56629">
        <ele>1733.39</ele>
        <time>2021-06-25T07:59:11Z</time>
      </trkpt>
      <trkpt lat="45.63404" lon="6.56625">
        <ele>1734.84</ele>
        <time>2021-06-25T07:59:24Z</time>
      </trkpt>
      <trkpt lat="45.63406" lon="6.56617">
        <ele>1737.24</ele>
        <time>2021-06-25T07:59:41Z</time>
      </trkpt>
      <trkpt lat="45.63405" lon="6.56608">
        <ele>1739.16</ele>
        <time>2021-06-25T07:59:56Z</time>
      </trkpt>
      <trkpt lat="45.63402" lon="6.56604">
        <ele>1741.08</ele>
        <time>2021-06-25T08:00:08Z</time>
      </trkpt>
      <trkpt lat="45.63396" lon="6.56597">
        <ele>1742.05</ele>
        <time>2021-06-25T08:00:22Z</time>
      </trkpt>
      <trkpt lat="45.63389" lon="6.56597">
        <ele>1743.97</ele>
        <time>2021-06-25T08:00:38Z</time>
      </trkpt>
      <trkpt lat="45.63381" lon="6.56594">
        <ele>1744.45</ele>
        <time>2021-06-25T08:00:51Z</time>
      </trkpt>
      <trkpt lat="45.6338" lon="6.56592">
        <ele>1745.41</ele>
        <time>2021-06-25T08:01:12Z</time>
      </trkpt>
      <trkpt lat="45.63381" lon="6.56591">
        <ele>1745.41</ele>
        <time>2021-06-25T08:01:23Z</time>
      </trkpt>
      <trkpt lat="45.6338" lon="6.5659">
        <ele>1745.41</ele>
        <time>2021-06-25T08:01:49Z</time>
      </trkpt>
      <trkpt lat="45.63379" lon="6.56588">
        <ele>1746.37</ele>
        <time>2021-06-25T08:02:06Z</time>
      </trkpt>
      <trkpt lat="45.63377" lon="6.56594">
        <ele>1746.85</ele>
        <time>2021-06-25T08:02:39Z</time>
      </trkpt>
      <trkpt lat="45.63377" lon="6.56593">
        <ele>1746.85</ele>
        <time>2021-06-25T08:03:14Z</time>
      </trkpt>
      <trkpt lat="45.63379" lon="6.56595">
        <ele>1746.85</ele>
        <time>2021-06-25T08:03:38Z</time>
      </trkpt>
      <trkpt lat="45.63378" lon="6.56589">
        <ele>1747.81</ele>
        <time>2021-06-25T08:03:56Z</time>
      </trkpt>
      <trkpt lat="45.63373" lon="6.56585">
        <ele>1749.26</ele>
        <time>2021-06-25T08:04:10Z</time>
      </trkpt>
      <trkpt lat="45.63369" lon="6.56581">
        <ele>1750.22</ele>
        <time>2021-06-25T08:04:24Z</time>
      </trkpt>
      <trkpt lat="45.63363" lon="6.56576">
        <ele>1751.18</ele>
        <time>2021-06-25T08:04:40Z</time>
      </trkpt>
      <trkpt lat="45.63355" lon="6.5657">
        <ele>1753.58</ele>
        <time>2021-06-25T08:04:54Z</time>
      </trkpt>
      <trkpt lat="45.63347" lon="6.56567">
        <ele>1755.02</ele>
        <time>2021-06-25T08:05:07Z</time>
      </trkpt>
      <trkpt lat="45.63342" lon="6.5656">
        <ele>1756.95</ele>
        <time>2021-06-25T08:05:21Z</time>
      </trkpt>
      <trkpt lat="45.63338" lon="6.56551">
        <ele>1758.39</ele>
        <time>2021-06-25T08:05:33Z</time>
      </trkpt>
      <trkpt lat="45.63336" lon="6.56547">
        <ele>1759.35</ele>
        <time>2021-06-25T08:05:44Z</time>
      </trkpt>
      <trkpt lat="45.63334" lon="6.56549">
        <ele>1759.83</ele>
        <time>2021-06-25T08:05:56Z</time>
      </trkpt>
      <trkpt lat="45.63331" lon="6.56552">
        <ele>1759.83</ele>
        <time>2021-06-25T08:06:09Z</time>
      </trkpt>
      <trkpt lat="45.6333" lon="6.56552">
        <ele>1759.83</ele>
        <time>2021-06-25T08:06:22Z</time>
      </trkpt>
      <trkpt lat="45.63329" lon="6.56553">
        <ele>1759.83</ele>
        <time>2021-06-25T08:06:33Z</time>
      </trkpt>
      <trkpt lat="45.63326" lon="6.56554">
        <ele>1760.31</ele>
        <time>2021-06-25T08:06:53Z</time>
      </trkpt>
      <trkpt lat="45.63318" lon="6.5655">
        <ele>1761.75</ele>
        <time>2021-06-25T08:07:05Z</time>
      </trkpt>
      <trkpt lat="45.63313" lon="6.56546">
        <ele>1764.16</ele>
        <time>2021-06-25T08:07:18Z</time>
      </trkpt>
      <trkpt lat="45.63313" lon="6.56557">
        <ele>1766.08</ele>
        <time>2021-06-25T08:07:31Z</time>
      </trkpt>
      <trkpt lat="45.6331" lon="6.56564">
        <ele>1768.96</ele>
        <time>2021-06-25T08:07:46Z</time>
      </trkpt>
      <trkpt lat="45.63306" lon="6.56575">
        <ele>1771.37</ele>
        <time>2021-06-25T08:08:01Z</time>
      </trkpt>
      <trkpt lat="45.63298" lon="6.56577">
        <ele>1772.81</ele>
        <time>2021-06-25T08:08:15Z</time>
      </trkpt>
      <trkpt lat="45.63294" lon="6.56565">
        <ele>1774.25</ele>
        <time>2021-06-25T08:08:29Z</time>
      </trkpt>
      <trkpt lat="45.63291" lon="6.56557">
        <ele>1776.17</ele>
        <time>2021-06-25T08:08:43Z</time>
      </trkpt>
      <trkpt lat="45.63285" lon="6.56559">
        <ele>1778.1</ele>
        <time>2021-06-25T08:08:57Z</time>
      </trkpt>
      <trkpt lat="45.63281" lon="6.56557">
        <ele>1779.54</ele>
        <time>2021-06-25T08:09:09Z</time>
      </trkpt>
      <trkpt lat="45.63275" lon="6.56549">
        <ele>1781.94</ele>
        <time>2021-06-25T08:09:23Z</time>
      </trkpt>
      <trkpt lat="45.63268" lon="6.56542">
        <ele>1783.86</ele>
        <time>2021-06-25T08:09:39Z</time>
      </trkpt>
      <trkpt lat="45.63264" lon="6.56533">
        <ele>1785.79</ele>
        <time>2021-06-25T08:09:53Z</time>
      </trkpt>
      <trkpt lat="45.63259" lon="6.56529">
        <ele>1787.23</ele>
        <time>2021-06-25T08:10:07Z</time>
      </trkpt>
      <trkpt lat="45.63256" lon="6.56536">
        <ele>1788.67</ele>
        <time>2021-06-25T08:10:22Z</time>
      </trkpt>
      <trkpt lat="45.63248" lon="6.56536">
        <ele>1790.59</ele>
        <time>2021-06-25T08:10:38Z</time>
      </trkpt>
      <trkpt lat="45.6324" lon="6.56533">
        <ele>1792.03</ele>
        <time>2021-06-25T08:10:52Z</time>
      </trkpt>
      <trkpt lat="45.63237" lon="6.56524">
        <ele>1794.44</ele>
        <time>2021-06-25T08:11:06Z</time>
      </trkpt>
      <trkpt lat="45.63231" lon="6.56518">
        <ele>1795.88</ele>
        <time>2021-06-25T08:11:19Z</time>
      </trkpt>
      <trkpt lat="45.63227" lon="6.56511">
        <ele>1797.8</ele>
        <time>2021-06-25T08:11:33Z</time>
      </trkpt>
      <trkpt lat="45.63224" lon="6.56504">
        <ele>1799.73</ele>
        <time>2021-06-25T08:11:45Z</time>
      </trkpt>
      <trkpt lat="45.63218" lon="6.565">
        <ele>1801.65</ele>
        <time>2021-06-25T08:11:58Z</time>
      </trkpt>
      <trkpt lat="45.63213" lon="6.56496">
        <ele>1803.57</ele>
        <time>2021-06-25T08:12:13Z</time>
      </trkpt>
      <trkpt lat="45.63212" lon="6.56485">
        <ele>1805.49</ele>
        <time>2021-06-25T08:12:30Z</time>
      </trkpt>
      <trkpt lat="45.63211" lon="6.56472">
        <ele>1806.94</ele>
        <time>2021-06-25T08:12:45Z</time>
      </trkpt>
      <trkpt lat="45.63208" lon="6.56468">
        <ele>1808.86</ele>
        <time>2021-06-25T08:13:00Z</time>
      </trkpt>
      <trkpt lat="45.63202" lon="6.56469">
        <ele>1810.78</ele>
        <time>2021-06-25T08:13:13Z</time>
      </trkpt>
      <trkpt lat="45.63197" lon="6.56469">
        <ele>1812.7</ele>
        <time>2021-06-25T08:13:25Z</time>
      </trkpt>
      <trkpt lat="45.63194" lon="6.56462">
        <ele>1814.15</ele>
        <time>2021-06-25T08:13:40Z</time>
      </trkpt>
      <trkpt lat="45.63189" lon="6.56458">
        <ele>1815.59</ele>
        <time>2021-06-25T08:13:58Z</time>
      </trkpt>
      <trkpt lat="45.63183" lon="6.56456">
        <ele>1817.51</ele>
        <time>2021-06-25T08:14:11Z</time>
      </trkpt>
      <trkpt lat="45.63181" lon="6.56453">
        <ele>1818.47</ele>
        <time>2021-06-25T08:14:29Z</time>
      </trkpt>
      <trkpt lat="45.63182" lon="6.56454">
        <ele>1818.47</ele>
        <time>2021-06-25T08:14:47Z</time>
      </trkpt>
      <trkpt lat="45.63185" lon="6.56456">
        <ele>1818.47</ele>
        <time>2021-06-25T08:15:20Z</time>
      </trkpt>
      <trkpt lat="45.63182" lon="6.56453">
        <ele>1818.47</ele>
        <time>2021-06-25T08:15:38Z</time>
      </trkpt>
      <trkpt lat="45.63184" lon="6.56452">
        <ele>1818.47</ele>
        <time>2021-06-25T08:16:00Z</time>
      </trkpt>
      <trkpt lat="45.63183" lon="6.56447">
        <ele>1818.95</ele>
        <time>2021-06-25T08:16:26Z</time>
      </trkpt>
      <trkpt lat="45.63179" lon="6.56443">
        <ele>1818.95</ele>
        <time>2021-06-25T08:16:49Z</time>
      </trkpt>
      <trkpt lat="45.63179" lon="6.56445">
        <ele>1818.95</ele>
        <time>2021-06-25T08:17:10Z</time>
      </trkpt>
      <trkpt lat="45.63179" lon="6.56446">
        <ele>1819.43</ele>
        <time>2021-06-25T08:17:36Z</time>
      </trkpt>
      <trkpt lat="45.63175" lon="6.56445">
        <ele>1819.43</ele>
        <time>2021-06-25T08:18:03Z</time>
      </trkpt>
      <trkpt lat="45.63176" lon="6.56445">
        <ele>1819.43</ele>
        <time>2021-06-25T08:18:29Z</time>
      </trkpt>
      <trkpt lat="45.63173" lon="6.56443">
        <ele>1819.91</ele>
        <time>2021-06-25T08:18:48Z</time>
      </trkpt>
      <trkpt lat="45.63167" lon="6.56438">
        <ele>1822.8</ele>
        <time>2021-06-25T08:19:06Z</time>
      </trkpt>
      <trkpt lat="45.63161" lon="6.56429">
        <ele>1825.2</ele>
        <time>2021-06-25T08:19:23Z</time>
      </trkpt>
      <trkpt lat="45.63157" lon="6.56421">
        <ele>1827.6</ele>
        <time>2021-06-25T08:19:37Z</time>
      </trkpt>
      <trkpt lat="45.63153" lon="6.56416">
        <ele>1828.56</ele>
        <time>2021-06-25T08:19:52Z</time>
      </trkpt>
      <trkpt lat="45.63151" lon="6.56406">
        <ele>1830.49</ele>
        <time>2021-06-25T08:20:04Z</time>
      </trkpt>
      <trkpt lat="45.63147" lon="6.56396">
        <ele>1831.45</ele>
        <time>2021-06-25T08:20:17Z</time>
      </trkpt>
      <trkpt lat="45.63146" lon="6.56379">
        <ele>1832.41</ele>
        <time>2021-06-25T08:20:32Z</time>
      </trkpt>
      <trkpt lat="45.63143" lon="6.56366">
        <ele>1833.37</ele>
        <time>2021-06-25T08:20:45Z</time>
      </trkpt>
      <trkpt lat="45.6314" lon="6.56354">
        <ele>1834.81</ele>
        <time>2021-06-25T08:20:59Z</time>
      </trkpt>
      <trkpt lat="45.63136" lon="6.56343">
        <ele>1837.22</ele>
        <time>2021-06-25T08:21:15Z</time>
      </trkpt>
      <trkpt lat="45.63132" lon="6.56334">
        <ele>1838.66</ele>
        <time>2021-06-25T08:21:32Z</time>
      </trkpt>
      <trkpt lat="45.63129" lon="6.56327">
        <ele>1839.62</ele>
        <time>2021-06-25T08:21:45Z</time>
      </trkpt>
      <trkpt lat="45.63126" lon="6.56318">
        <ele>1840.58</ele>
        <time>2021-06-25T08:21:59Z</time>
      </trkpt>
      <trkpt lat="45.63124" lon="6.56313">
        <ele>1842.02</ele>
        <time>2021-06-25T08:22:12Z</time>
      </trkpt>
      <trkpt lat="45.63118" lon="6.56312">
        <ele>1844.91</ele>
        <time>2021-06-25T08:22:26Z</time>
      </trkpt>
      <trkpt lat="45.63116" lon="6.56309">
        <ele>1846.35</ele>
        <time>2021-06-25T08:22:39Z</time>
      </trkpt>
      <trkpt lat="45.63111" lon="6.56302">
        <ele>1847.79</ele>
        <time>2021-06-25T08:22:53Z</time>
      </trkpt>
      <trkpt lat="45.63108" lon="6.56293">
        <ele>1849.23</ele>
        <time>2021-06-25T08:23:09Z</time>
      </trkpt>
      <trkpt lat="45.63105" lon="6.56296">
        <ele>1851.64</ele>
        <time>2021-06-25T08:23:22Z</time>
      </trkpt>
      <trkpt lat="45.63102" lon="6.56298">
        <ele>1853.08</ele>
        <time>2021-06-25T08:23:36Z</time>
      </trkpt>
      <trkpt lat="45.63099" lon="6.56291">
        <ele>1855</ele>
        <time>2021-06-25T08:23:49Z</time>
      </trkpt>
      <trkpt lat="45.63096" lon="6.56286">
        <ele>1855.96</ele>
        <time>2021-06-25T08:24:01Z</time>
      </trkpt>
      <trkpt lat="45.63092" lon="6.56278">
        <ele>1858.37</ele>
        <time>2021-06-25T08:24:18Z</time>
      </trkpt>
      <trkpt lat="45.6309" lon="6.5627">
        <ele>1859.81</ele>
        <time>2021-06-25T08:24:32Z</time>
      </trkpt>
      <trkpt lat="45.63089" lon="6.56278">
        <ele>1861.25</ele>
        <time>2021-06-25T08:24:43Z</time>
      </trkpt>
      <trkpt lat="45.63087" lon="6.56285">
        <ele>1862.21</ele>
        <time>2021-06-25T08:24:56Z</time>
      </trkpt>
      <trkpt lat="45.63084" lon="6.56291">
        <ele>1863.17</ele>
        <time>2021-06-25T08:25:07Z</time>
      </trkpt>
      <trkpt lat="45.63079" lon="6.56283">
        <ele>1866.06</ele>
        <time>2021-06-25T08:25:20Z</time>
      </trkpt>
      <trkpt lat="45.63074" lon="6.5628">
        <ele>1868.94</ele>
        <time>2021-06-25T08:25:33Z</time>
      </trkpt>
      <trkpt lat="45.63066" lon="6.56274">
        <ele>1870.86</ele>
        <time>2021-06-25T08:25:48Z</time>
      </trkpt>
      <trkpt lat="45.63059" lon="6.56272">
        <ele>1874.23</ele>
        <time>2021-06-25T08:25:58Z</time>
      </trkpt>
      <trkpt lat="45.63057" lon="6.56272">
        <ele>1875.67</ele>
        <time>2021-06-25T08:26:10Z</time>
      </trkpt>
      <trkpt lat="45.63058" lon="6.5627">
        <ele>1875.67</ele>
        <time>2021-06-25T08:26:39Z</time>
      </trkpt>
      <trkpt lat="45.63057" lon="6.56269">
        <ele>1876.15</ele>
        <time>2021-06-25T08:27:04Z</time>
      </trkpt>
      <trkpt lat="45.63058" lon="6.56271">
        <ele>1876.63</ele>
        <time>2021-06-25T08:27:32Z</time>
      </trkpt>
      <trkpt lat="45.63058" lon="6.56272">
        <ele>1876.63</ele>
        <time>2021-06-25T08:27:49Z</time>
      </trkpt>
      <trkpt lat="45.63056" lon="6.56269">
        <ele>1876.63</ele>
        <time>2021-06-25T08:28:08Z</time>
      </trkpt>
      <trkpt lat="45.63052" lon="6.56263">
        <ele>1879.51</ele>
        <time>2021-06-25T08:28:21Z</time>
      </trkpt>
      <trkpt lat="45.6305" lon="6.56262">
        <ele>1880</ele>
        <time>2021-06-25T08:28:36Z</time>
      </trkpt>
      <trkpt lat="45.63046" lon="6.56256">
        <ele>1881.92</ele>
        <time>2021-06-25T08:28:51Z</time>
      </trkpt>
      <trkpt lat="45.63038" lon="6.56252">
        <ele>1883.84</ele>
        <time>2021-06-25T08:29:04Z</time>
      </trkpt>
      <trkpt lat="45.63035" lon="6.5625">
        <ele>1885.76</ele>
        <time>2021-06-25T08:29:16Z</time>
      </trkpt>
      <trkpt lat="45.63033" lon="6.56247">
        <ele>1886.72</ele>
        <time>2021-06-25T08:29:33Z</time>
      </trkpt>
      <trkpt lat="45.63031" lon="6.56242">
        <ele>1888.65</ele>
        <time>2021-06-25T08:29:47Z</time>
      </trkpt>
      <trkpt lat="45.6303" lon="6.56242">
        <ele>1889.61</ele>
        <time>2021-06-25T08:30:09Z</time>
      </trkpt>
      <trkpt lat="45.63024" lon="6.56244">
        <ele>1891.53</ele>
        <time>2021-06-25T08:30:20Z</time>
      </trkpt>
      <trkpt lat="45.63022" lon="6.56237">
        <ele>1894.9</ele>
        <time>2021-06-25T08:30:32Z</time>
      </trkpt>
      <trkpt lat="45.63016" lon="6.5623">
        <ele>1895.86</ele>
        <time>2021-06-25T08:30:44Z</time>
      </trkpt>
      <trkpt lat="45.63016" lon="6.56224">
        <ele>1896.34</ele>
        <time>2021-06-25T08:31:04Z</time>
      </trkpt>
      <trkpt lat="45.63013" lon="6.56221">
        <ele>1897.78</ele>
        <time>2021-06-25T08:31:18Z</time>
      </trkpt>
      <trkpt lat="45.63014" lon="6.56223">
        <ele>1898.26</ele>
        <time>2021-06-25T08:31:42Z</time>
      </trkpt>
      <trkpt lat="45.63014" lon="6.56225">
        <ele>1898.26</ele>
        <time>2021-06-25T08:32:11Z</time>
      </trkpt>
      <trkpt lat="45.63015" lon="6.56227">
        <ele>1898.26</ele>
        <time>2021-06-25T08:32:40Z</time>
      </trkpt>
      <trkpt lat="45.63018" lon="6.56229">
        <ele>1898.74</ele>
        <time>2021-06-25T08:33:12Z</time>
      </trkpt>
      <trkpt lat="45.63016" lon="6.56227">
        <ele>1898.74</ele>
        <time>2021-06-25T08:33:37Z</time>
      </trkpt>
      <trkpt lat="45.6301" lon="6.56218">
        <ele>1899.7</ele>
        <time>2021-06-25T08:33:58Z</time>
      </trkpt>
      <trkpt lat="45.63004" lon="6.56208">
        <ele>1903.55</ele>
        <time>2021-06-25T08:34:11Z</time>
      </trkpt>
      <trkpt lat="45.63003" lon="6.56201">
        <ele>1905.95</ele>
        <time>2021-06-25T08:34:24Z</time>
      </trkpt>
      <trkpt lat="45.62998" lon="6.56193">
        <ele>1908.35</ele>
        <time>2021-06-25T08:34:36Z</time>
      </trkpt>
      <trkpt lat="45.62994" lon="6.56183">
        <ele>1909.8</ele>
        <time>2021-06-25T08:34:50Z</time>
      </trkpt>
      <trkpt lat="45.6299" lon="6.56172">
        <ele>1910.76</ele>
        <time>2021-06-25T08:35:04Z</time>
      </trkpt>
      <trkpt lat="45.62987" lon="6.56163">
        <ele>1912.2</ele>
        <time>2021-06-25T08:35:20Z</time>
      </trkpt>
      <trkpt lat="45.62987" lon="6.56158">
        <ele>1913.16</ele>
        <time>2021-06-25T08:35:39Z</time>
      </trkpt>
      <trkpt lat="45.62985" lon="6.56154">
        <ele>1914.12</ele>
        <time>2021-06-25T08:35:50Z</time>
      </trkpt>
      <trkpt lat="45.62983" lon="6.56148">
        <ele>1916.04</ele>
        <time>2021-06-25T08:36:06Z</time>
      </trkpt>
      <trkpt lat="45.62981" lon="6.56137">
        <ele>1917.97</ele>
        <time>2021-06-25T08:36:20Z</time>
      </trkpt>
      <trkpt lat="45.62978" lon="6.56133">
        <ele>1920.37</ele>
        <time>2021-06-25T08:36:32Z</time>
      </trkpt>
      <trkpt lat="45.62974" lon="6.56126">
        <ele>1921.33</ele>
        <time>2021-06-25T08:36:46Z</time>
      </trkpt>
      <trkpt lat="45.62973" lon="6.56118">
        <ele>1923.74</ele>
        <time>2021-06-25T08:36:59Z</time>
      </trkpt>
      <trkpt lat="45.62969" lon="6.56113">
        <ele>1925.18</ele>
        <time>2021-06-25T08:37:13Z</time>
      </trkpt>
      <trkpt lat="45.62966" lon="6.56106">
        <ele>1927.1</ele>
        <time>2021-06-25T08:37:30Z</time>
      </trkpt>
      <trkpt lat="45.62964" lon="6.56101">
        <ele>1929.02</ele>
        <time>2021-06-25T08:37:44Z</time>
      </trkpt>
      <trkpt lat="45.62961" lon="6.56096">
        <ele>1929.5</ele>
        <time>2021-06-25T08:37:55Z</time>
      </trkpt>
      <trkpt lat="45.62958" lon="6.56089">
        <ele>1930.95</ele>
        <time>2021-06-25T08:38:06Z</time>
      </trkpt>
      <trkpt lat="45.62955" lon="6.56084">
        <ele>1932.39</ele>
        <time>2021-06-25T08:38:18Z</time>
      </trkpt>
      <trkpt lat="45.62953" lon="6.56075">
        <ele>1934.31</ele>
        <time>2021-06-25T08:38:33Z</time>
      </trkpt>
      <trkpt lat="45.62947" lon="6.5607">
        <ele>1935.27</ele>
        <time>2021-06-25T08:38:45Z</time>
      </trkpt>
      <trkpt lat="45.62946" lon="6.5607">
        <ele>1935.75</ele>
        <time>2021-06-25T08:39:02Z</time>
      </trkpt>
      <trkpt lat="45.62946" lon="6.56071">
        <ele>1935.75</ele>
        <time>2021-06-25T08:39:26Z</time>
      </trkpt>
      <trkpt lat="45.62947" lon="6.56073">
        <ele>1935.75</ele>
        <time>2021-06-25T08:39:49Z</time>
      </trkpt>
      <trkpt lat="45.62947" lon="6.56072">
        <ele>1935.75</ele>
        <time>2021-06-25T08:40:14Z</time>
      </trkpt>
      <trkpt lat="45.62947" lon="6.56072">
        <ele>1935.75</ele>
        <time>2021-06-25T08:40:33Z</time>
      </trkpt>
      <trkpt lat="45.62947" lon="6.56072">
        <ele>1935.75</ele>
        <time>2021-06-25T08:41:01Z</time>
      </trkpt>
      <trkpt lat="45.62944" lon="6.56069">
        <ele>1936.23</ele>
        <time>2021-06-25T08:41:15Z</time>
      </trkpt>
      <trkpt lat="45.62939" lon="6.56061">
        <ele>1938.16</ele>
        <time>2021-06-25T08:41:27Z</time>
      </trkpt>
      <trkpt lat="45.62934" lon="6.56056">
        <ele>1939.12</ele>
        <time>2021-06-25T08:41:41Z</time>
      </trkpt>
      <trkpt lat="45.62925" lon="6.56051">
        <ele>1940.56</ele>
        <time>2021-06-25T08:41:55Z</time>
      </trkpt>
      <trkpt lat="45.6292" lon="6.56044">
        <ele>1942</ele>
        <time>2021-06-25T08:42:10Z</time>
      </trkpt>
      <trkpt lat="45.62917" lon="6.56037">
        <ele>1943.44</ele>
        <time>2021-06-25T08:42:21Z</time>
      </trkpt>
      <trkpt lat="45.62913" lon="6.56026">
        <ele>1945.36</ele>
        <time>2021-06-25T08:42:36Z</time>
      </trkpt>
      <trkpt lat="45.62907" lon="6.56017">
        <ele>1947.29</ele>
        <time>2021-06-25T08:42:53Z</time>
      </trkpt>
      <trkpt lat="45.62903" lon="6.56011">
        <ele>1948.73</ele>
        <time>2021-06-25T08:43:06Z</time>
      </trkpt>
      <trkpt lat="45.62897" lon="6.56006">
        <ele>1950.65</ele>
        <time>2021-06-25T08:43:21Z</time>
      </trkpt>
      <trkpt lat="45.6289" lon="6.56002">
        <ele>1952.09</ele>
        <time>2021-06-25T08:43:36Z</time>
      </trkpt>
      <trkpt lat="45.62884" lon="6.56001">
        <ele>1953.54</ele>
        <time>2021-06-25T08:43:47Z</time>
      </trkpt>
      <trkpt lat="45.62878" lon="6.55997">
        <ele>1954.98</ele>
        <time>2021-06-25T08:44:04Z</time>
      </trkpt>
      <trkpt lat="45.62876" lon="6.55989">
        <ele>1956.42</ele>
        <time>2021-06-25T08:44:16Z</time>
      </trkpt>
      <trkpt lat="45.62869" lon="6.55984">
        <ele>1957.86</ele>
        <time>2021-06-25T08:44:31Z</time>
      </trkpt>
      <trkpt lat="45.62862" lon="6.55983">
        <ele>1959.3</ele>
        <time>2021-06-25T08:44:46Z</time>
      </trkpt>
      <trkpt lat="45.62857" lon="6.55984">
        <ele>1961.71</ele>
        <time>2021-06-25T08:45:00Z</time>
      </trkpt>
      <trkpt lat="45.62857" lon="6.55984">
        <ele>1961.71</ele>
        <time>2021-06-25T08:45:01Z</time>
      </trkpt>
      <trkpt lat="45.62849" lon="6.55984">
        <ele>1963.15</ele>
        <time>2021-06-25T08:45:14Z</time>
      </trkpt>
      <trkpt lat="45.62843" lon="6.55984">
        <ele>1964.59</ele>
        <time>2021-06-25T08:45:26Z</time>
      </trkpt>
      <trkpt lat="45.62835" lon="6.55982">
        <ele>1966.03</ele>
        <time>2021-06-25T08:45:40Z</time>
      </trkpt>
      <trkpt lat="45.62829" lon="6.55977">
        <ele>1967.96</ele>
        <time>2021-06-25T08:45:55Z</time>
      </trkpt>
      <trkpt lat="45.62825" lon="6.55972">
        <ele>1969.88</ele>
        <time>2021-06-25T08:46:08Z</time>
      </trkpt>
      <trkpt lat="45.62821" lon="6.55966">
        <ele>1971.8</ele>
        <time>2021-06-25T08:46:24Z</time>
      </trkpt>
      <trkpt lat="45.62815" lon="6.55964">
        <ele>1973.72</ele>
        <time>2021-06-25T08:46:36Z</time>
      </trkpt>
      <trkpt lat="45.62812" lon="6.5596">
        <ele>1975.65</ele>
        <time>2021-06-25T08:46:52Z</time>
      </trkpt>
      <trkpt lat="45.62807" lon="6.55958">
        <ele>1977.09</ele>
        <time>2021-06-25T08:47:06Z</time>
      </trkpt>
      <trkpt lat="45.62801" lon="6.55956">
        <ele>1979.49</ele>
        <time>2021-06-25T08:47:20Z</time>
      </trkpt>
      <trkpt lat="45.62797" lon="6.55952">
        <ele>1980.93</ele>
        <time>2021-06-25T08:47:34Z</time>
      </trkpt>
      <trkpt lat="45.62794" lon="6.55944">
        <ele>1982.38</ele>
        <time>2021-06-25T08:47:46Z</time>
      </trkpt>
      <trkpt lat="45.62791" lon="6.55937">
        <ele>1983.34</ele>
        <time>2021-06-25T08:47:58Z</time>
      </trkpt>
      <trkpt lat="45.62786" lon="6.55928">
        <ele>1985.74</ele>
        <time>2021-06-25T08:48:11Z</time>
      </trkpt>
      <trkpt lat="45.62783" lon="6.55924">
        <ele>1989.1</ele>
        <time>2021-06-25T08:48:21Z</time>
      </trkpt>
      <trkpt lat="45.62778" lon="6.55915">
        <ele>1992.47</ele>
        <time>2021-06-25T08:48:33Z</time>
      </trkpt>
      <trkpt lat="45.62778" lon="6.55908">
        <ele>1993.43</ele>
        <time>2021-06-25T08:48:44Z</time>
      </trkpt>
      <trkpt lat="45.62777" lon="6.55901">
        <ele>1994.39</ele>
        <time>2021-06-25T08:48:59Z</time>
      </trkpt>
      <trkpt lat="45.62775" lon="6.55898">
        <ele>1994.39</ele>
        <time>2021-06-25T08:49:13Z</time>
      </trkpt>
      <trkpt lat="45.62772" lon="6.55896">
        <ele>1995.83</ele>
        <time>2021-06-25T08:49:23Z</time>
      </trkpt>
      <trkpt lat="45.62767" lon="6.55893">
        <ele>1997.76</ele>
        <time>2021-06-25T08:49:34Z</time>
      </trkpt>
      <trkpt lat="45.62762" lon="6.55891">
        <ele>1998.24</ele>
        <time>2021-06-25T08:49:47Z</time>
      </trkpt>
      <trkpt lat="45.62763" lon="6.55888">
        <ele>1998.72</ele>
        <time>2021-06-25T08:50:02Z</time>
      </trkpt>
      <trkpt lat="45.62764" lon="6.55888">
        <ele>1998.72</ele>
        <time>2021-06-25T08:50:22Z</time>
      </trkpt>
      <trkpt lat="45.62768" lon="6.55889">
        <ele>1998.72</ele>
        <time>2021-06-25T08:50:54Z</time>
      </trkpt>
      <trkpt lat="45.62768" lon="6.5589">
        <ele>1998.72</ele>
        <time>2021-06-25T08:51:20Z</time>
      </trkpt>
      <trkpt lat="45.62765" lon="6.5589">
        <ele>1998.72</ele>
        <time>2021-06-25T08:51:45Z</time>
      </trkpt>
      <trkpt lat="45.62766" lon="6.55886">
        <ele>1998.72</ele>
        <time>2021-06-25T08:52:06Z</time>
      </trkpt>
      <trkpt lat="45.62767" lon="6.55888">
        <ele>1999.2</ele>
        <time>2021-06-25T08:52:26Z</time>
      </trkpt>
      <trkpt lat="45.62769" lon="6.55886">
        <ele>1999.2</ele>
        <time>2021-06-25T08:52:52Z</time>
      </trkpt>
      <trkpt lat="45.62766" lon="6.5589">
        <ele>1999.2</ele>
        <time>2021-06-25T08:53:23Z</time>
      </trkpt>
      <trkpt lat="45.62765" lon="6.55891">
        <ele>1999.2</ele>
        <time>2021-06-25T08:53:39Z</time>
      </trkpt>
      <trkpt lat="45.62764" lon="6.55892">
        <ele>1999.68</ele>
        <time>2021-06-25T08:53:57Z</time>
      </trkpt>
      <trkpt lat="45.62764" lon="6.55891">
        <ele>1999.68</ele>
        <time>2021-06-25T08:54:21Z</time>
      </trkpt>
      <trkpt lat="45.62764" lon="6.55891">
        <ele>1999.68</ele>
        <time>2021-06-25T08:54:45Z</time>
      </trkpt>
      <trkpt lat="45.62761" lon="6.5589">
        <ele>1999.68</ele>
        <time>2021-06-25T08:55:05Z</time>
      </trkpt>
      <trkpt lat="45.62763" lon="6.55891">
        <ele>2000.16</ele>
        <time>2021-06-25T08:55:26Z</time>
      </trkpt>
      <trkpt lat="45.62762" lon="6.5589">
        <ele>1999.2</ele>
        <time>2021-06-25T08:55:43Z</time>
      </trkpt>
      <trkpt lat="45.62761" lon="6.55891">
        <ele>1999.2</ele>
        <time>2021-06-25T08:56:22Z</time>
      </trkpt>
      <trkpt lat="45.62763" lon="6.55889">
        <ele>1999.2</ele>
        <time>2021-06-25T08:56:55Z</time>
      </trkpt>
      <trkpt lat="45.62763" lon="6.5589">
        <ele>1999.2</ele>
        <time>2021-06-25T08:57:27Z</time>
      </trkpt>
      <trkpt lat="45.62758" lon="6.55881">
        <ele>2000.16</ele>
        <time>2021-06-25T08:57:45Z</time>
      </trkpt>
      <trkpt lat="45.62747" lon="6.55868">
        <ele>2002.56</ele>
        <time>2021-06-25T08:58:03Z</time>
      </trkpt>
      <trkpt lat="45.62742" lon="6.55857">
        <ele>2004.49</ele>
        <time>2021-06-25T08:58:18Z</time>
      </trkpt>
      <trkpt lat="45.62736" lon="6.55846">
        <ele>2005.93</ele>
        <time>2021-06-25T08:58:34Z</time>
      </trkpt>
      <trkpt lat="45.62733" lon="6.55836">
        <ele>2007.85</ele>
        <time>2021-06-25T08:58:47Z</time>
      </trkpt>
      <trkpt lat="45.62731" lon="6.55828">
        <ele>2008.81</ele>
        <time>2021-06-25T08:59:01Z</time>
      </trkpt>
      <trkpt lat="45.62729" lon="6.55818">
        <ele>2012.18</ele>
        <time>2021-06-25T08:59:17Z</time>
      </trkpt>
      <trkpt lat="45.62723" lon="6.55811">
        <ele>2013.14</ele>
        <time>2021-06-25T08:59:30Z</time>
      </trkpt>
      <trkpt lat="45.6272" lon="6.55806">
        <ele>2013.62</ele>
        <time>2021-06-25T08:59:44Z</time>
      </trkpt>
      <trkpt lat="45.62713" lon="6.55802">
        <ele>2016.5</ele>
        <time>2021-06-25T08:59:58Z</time>
      </trkpt>
      <trkpt lat="45.62706" lon="6.55797">
        <ele>2018.43</ele>
        <time>2021-06-25T09:00:13Z</time>
      </trkpt>
      <trkpt lat="45.62705" lon="6.55789">
        <ele>2020.35</ele>
        <time>2021-06-25T09:00:27Z</time>
      </trkpt>
      <trkpt lat="45.62701" lon="6.5578">
        <ele>2022.27</ele>
        <time>2021-06-25T09:00:40Z</time>
      </trkpt>
      <trkpt lat="45.62697" lon="6.55777">
        <ele>2023.71</ele>
        <time>2021-06-25T09:00:52Z</time>
      </trkpt>
      <trkpt lat="45.62694" lon="6.55771">
        <ele>2025.15</ele>
        <time>2021-06-25T09:01:05Z</time>
      </trkpt>
      <trkpt lat="45.62688" lon="6.55762">
        <ele>2026.6</ele>
        <time>2021-06-25T09:01:23Z</time>
      </trkpt>
      <trkpt lat="45.62685" lon="6.55753">
        <ele>2028.52</ele>
        <time>2021-06-25T09:01:37Z</time>
      </trkpt>
      <trkpt lat="45.6268" lon="6.55746">
        <ele>2029.96</ele>
        <time>2021-06-25T09:01:49Z</time>
      </trkpt>
      <trkpt lat="45.62676" lon="6.55739">
        <ele>2031.4</ele>
        <time>2021-06-25T09:02:04Z</time>
      </trkpt>
      <trkpt lat="45.62671" lon="6.5573">
        <ele>2033.33</ele>
        <time>2021-06-25T09:02:19Z</time>
      </trkpt>
      <trkpt lat="45.62666" lon="6.55722">
        <ele>2035.73</ele>
        <time>2021-06-25T09:02:33Z</time>
      </trkpt>
      <trkpt lat="45.62663" lon="6.55715">
        <ele>2037.65</ele>
        <time>2021-06-25T09:02:46Z</time>
      </trkpt>
      <trkpt lat="45.62657" lon="6.5571">
        <ele>2039.57</ele>
        <time>2021-06-25T09:02:58Z</time>
      </trkpt>
      <trkpt lat="45.62654" lon="6.55702">
        <ele>2041.02</ele>
        <time>2021-06-25T09:03:10Z</time>
      </trkpt>
      <trkpt lat="45.62652" lon="6.55693">
        <ele>2043.42</ele>
        <time>2021-06-25T09:03:24Z</time>
      </trkpt>
      <trkpt lat="45.6265" lon="6.55688">
        <ele>2044.86</ele>
        <time>2021-06-25T09:03:37Z</time>
      </trkpt>
      <trkpt lat="45.62649" lon="6.55683">
        <ele>2045.82</ele>
        <time>2021-06-25T09:03:59Z</time>
      </trkpt>
      <trkpt lat="45.62644" lon="6.55674">
        <ele>2047.75</ele>
        <time>2021-06-25T09:04:15Z</time>
      </trkpt>
      <trkpt lat="45.6264" lon="6.55667">
        <ele>2049.67</ele>
        <time>2021-06-25T09:04:30Z</time>
      </trkpt>
      <trkpt lat="45.62635" lon="6.5566">
        <ele>2050.63</ele>
        <time>2021-06-25T09:04:45Z</time>
      </trkpt>
      <trkpt lat="45.62631" lon="6.55653">
        <ele>2052.55</ele>
        <time>2021-06-25T09:04:59Z</time>
      </trkpt>
      <trkpt lat="45.62624" lon="6.55648">
        <ele>2054.47</ele>
        <time>2021-06-25T09:05:15Z</time>
      </trkpt>
      <trkpt lat="45.62619" lon="6.55643">
        <ele>2055.92</ele>
        <time>2021-06-25T09:05:31Z</time>
      </trkpt>
      <trkpt lat="45.62615" lon="6.55639">
        <ele>2057.36</ele>
        <time>2021-06-25T09:05:44Z</time>
      </trkpt>
      <trkpt lat="45.6261" lon="6.55634">
        <ele>2058.8</ele>
        <time>2021-06-25T09:05:56Z</time>
      </trkpt>
      <trkpt lat="45.62604" lon="6.55629">
        <ele>2060.72</ele>
        <time>2021-06-25T09:06:12Z</time>
      </trkpt>
      <trkpt lat="45.62598" lon="6.55622">
        <ele>2062.65</ele>
        <time>2021-06-25T09:06:25Z</time>
      </trkpt>
      <trkpt lat="45.62592" lon="6.55613">
        <ele>2065.05</ele>
        <time>2021-06-25T09:06:42Z</time>
      </trkpt>
      <trkpt lat="45.62586" lon="6.55607">
        <ele>2066.01</ele>
        <time>2021-06-25T09:06:54Z</time>
      </trkpt>
      <trkpt lat="45.62581" lon="6.55603">
        <ele>2067.45</ele>
        <time>2021-06-25T09:07:07Z</time>
      </trkpt>
      <trkpt lat="45.62577" lon="6.55598">
        <ele>2068.89</ele>
        <time>2021-06-25T09:07:24Z</time>
      </trkpt>
      <trkpt lat="45.62568" lon="6.5559">
        <ele>2070.82</ele>
        <time>2021-06-25T09:07:42Z</time>
      </trkpt>
      <trkpt lat="45.62562" lon="6.55585">
        <ele>2072.74</ele>
        <time>2021-06-25T09:07:55Z</time>
      </trkpt>
      <trkpt lat="45.62557" lon="6.55578">
        <ele>2074.66</ele>
        <time>2021-06-25T09:08:12Z</time>
      </trkpt>
      <trkpt lat="45.6255" lon="6.55572">
        <ele>2076.1</ele>
        <time>2021-06-25T09:08:29Z</time>
      </trkpt>
      <trkpt lat="45.62549" lon="6.55575">
        <ele>2076.1</ele>
        <time>2021-06-25T09:08:57Z</time>
      </trkpt>
      <trkpt lat="45.62545" lon="6.55569">
        <ele>2077.07</ele>
        <time>2021-06-25T09:09:10Z</time>
      </trkpt>
      <trkpt lat="45.62538" lon="6.55563">
        <ele>2078.51</ele>
        <time>2021-06-25T09:09:23Z</time>
      </trkpt>
      <trkpt lat="45.62532" lon="6.55557">
        <ele>2080.43</ele>
        <time>2021-06-25T09:09:38Z</time>
      </trkpt>
      <trkpt lat="45.62526" lon="6.55549">
        <ele>2081.87</ele>
        <time>2021-06-25T09:09:53Z</time>
      </trkpt>
      <trkpt lat="45.6252" lon="6.55542">
        <ele>2083.31</ele>
        <time>2021-06-25T09:10:05Z</time>
      </trkpt>
      <trkpt lat="45.62516" lon="6.55533">
        <ele>2085.72</ele>
        <time>2021-06-25T09:10:22Z</time>
      </trkpt>
      <trkpt lat="45.62512" lon="6.55526">
        <ele>2087.16</ele>
        <time>2021-06-25T09:10:36Z</time>
      </trkpt>
      <trkpt lat="45.62506" lon="6.5552">
        <ele>2088.6</ele>
        <time>2021-06-25T09:10:50Z</time>
      </trkpt>
      <trkpt lat="45.62498" lon="6.55514">
        <ele>2091</ele>
        <time>2021-06-25T09:11:06Z</time>
      </trkpt>
      <trkpt lat="45.62494" lon="6.55506">
        <ele>2092.93</ele>
        <time>2021-06-25T09:11:22Z</time>
      </trkpt>
      <trkpt lat="45.62494" lon="6.55506">
        <ele>2093.41</ele>
        <time>2021-06-25T09:11:43Z</time>
      </trkpt>
      <trkpt lat="45.62494" lon="6.55506">
        <ele>2094.85</ele>
        <time>2021-06-25T09:11:56Z</time>
      </trkpt>
      <trkpt lat="45.62487" lon="6.55497">
        <ele>2095.81</ele>
        <time>2021-06-25T09:12:12Z</time>
      </trkpt>
      <trkpt lat="45.62484" lon="6.55489">
        <ele>2098.21</ele>
        <time>2021-06-25T09:12:25Z</time>
      </trkpt>
      <trkpt lat="45.62478" lon="6.55482">
        <ele>2100.62</ele>
        <time>2021-06-25T09:12:40Z</time>
      </trkpt>
      <trkpt lat="45.62473" lon="6.55473">
        <ele>2103.02</ele>
        <time>2021-06-25T09:12:55Z</time>
      </trkpt>
      <trkpt lat="45.62467" lon="6.55467">
        <ele>2104.94</ele>
        <time>2021-06-25T09:13:07Z</time>
      </trkpt>
      <trkpt lat="45.62459" lon="6.5546">
        <ele>2107.83</ele>
        <time>2021-06-25T09:13:22Z</time>
      </trkpt>
      <trkpt lat="45.62452" lon="6.55452">
        <ele>2110.23</ele>
        <time>2021-06-25T09:13:34Z</time>
      </trkpt>
      <trkpt lat="45.62446" lon="6.55448">
        <ele>2111.67</ele>
        <time>2021-06-25T09:13:42Z</time>
      </trkpt>
      <trkpt lat="45.62436" lon="6.55442">
        <ele>2113.12</ele>
        <time>2021-06-25T09:13:56Z</time>
      </trkpt>
      <trkpt lat="45.62436" lon="6.55441">
        <ele>2113.6</ele>
        <time>2021-06-25T09:14:13Z</time>
      </trkpt>
      <trkpt lat="45.62434" lon="6.5544">
        <ele>2113.6</ele>
        <time>2021-06-25T09:14:28Z</time>
      </trkpt>
      <trkpt lat="45.62434" lon="6.55439">
        <ele>2113.6</ele>
        <time>2021-06-25T09:14:42Z</time>
      </trkpt>
      <trkpt lat="45.62435" lon="6.55439">
        <ele>2114.08</ele>
        <time>2021-06-25T09:14:45Z</time>
      </trkpt>
      <trkpt lat="45.62437" lon="6.55438">
        <ele>2112.63</ele>
        <time>2021-06-25T09:14:55Z</time>
      </trkpt>
      <trkpt lat="45.62439" lon="6.55436">
        <ele>2113.12</ele>
        <time>2021-06-25T09:15:27Z</time>
      </trkpt>
      <trkpt lat="45.62439" lon="6.55437">
        <ele>2113.12</ele>
        <time>2021-06-25T09:15:37Z</time>
      </trkpt>
      <trkpt lat="45.62434" lon="6.55439">
        <ele>2113.12</ele>
        <time>2021-06-25T09:15:47Z</time>
      </trkpt>
      <trkpt lat="45.62434" lon="6.5544">
        <ele>2114.08</ele>
        <time>2021-06-25T09:16:06Z</time>
      </trkpt>
      <trkpt lat="45.62436" lon="6.5544">
        <ele>2114.56</ele>
        <time>2021-06-25T09:16:22Z</time>
      </trkpt>
      <trkpt lat="45.62437" lon="6.55442">
        <ele>2114.56</ele>
        <time>2021-06-25T09:16:59Z</time>
      </trkpt>
      <trkpt lat="45.62436" lon="6.5544">
        <ele>2114.56</ele>
        <time>2021-06-25T09:17:21Z</time>
      </trkpt>
      <trkpt lat="45.62437" lon="6.55439">
        <ele>2114.56</ele>
        <time>2021-06-25T09:17:36Z</time>
      </trkpt>
      <trkpt lat="45.62435" lon="6.55438">
        <ele>2115.04</ele>
        <time>2021-06-25T09:18:02Z</time>
      </trkpt>
      <trkpt lat="45.62436" lon="6.55439">
        <ele>2115.04</ele>
        <time>2021-06-25T09:18:16Z</time>
      </trkpt>
      <trkpt lat="45.62435" lon="6.55439">
        <ele>2115.04</ele>
        <time>2021-06-25T09:18:40Z</time>
      </trkpt>
      <trkpt lat="45.62435" lon="6.55441">
        <ele>2113.6</ele>
        <time>2021-06-25T09:18:53Z</time>
      </trkpt>
      <trkpt lat="45.62434" lon="6.55442">
        <ele>2115.04</ele>
        <time>2021-06-25T09:19:15Z</time>
      </trkpt>
      <trkpt lat="45.62435" lon="6.55439">
        <ele>2114.08</ele>
        <time>2021-06-25T09:19:37Z</time>
      </trkpt>
      <trkpt lat="45.62435" lon="6.55438">
        <ele>2113.6</ele>
        <time>2021-06-25T09:19:51Z</time>
      </trkpt>
      <trkpt lat="45.62435" lon="6.55439">
        <ele>2116</ele>
        <time>2021-06-25T09:19:54Z</time>
      </trkpt>
      <trkpt lat="45.62435" lon="6.5544">
        <ele>2114.56</ele>
        <time>2021-06-25T09:19:58Z</time>
      </trkpt>
      <trkpt lat="45.62438" lon="6.55441">
        <ele>2114.56</ele>
        <time>2021-06-25T09:20:08Z</time>
      </trkpt>
      <trkpt lat="45.62439" lon="6.55441">
        <ele>2114.56</ele>
        <time>2021-06-25T09:20:26Z</time>
      </trkpt>
      <trkpt lat="45.62433" lon="6.55438">
        <ele>2114.56</ele>
        <time>2021-06-25T09:20:49Z</time>
      </trkpt>
      <trkpt lat="45.62432" lon="6.55436">
        <ele>2114.56</ele>
        <time>2021-06-25T09:20:52Z</time>
      </trkpt>
      <trkpt lat="45.62425" lon="6.55421">
        <ele>2114.08</ele>
        <time>2021-06-25T09:21:08Z</time>
      </trkpt>
      <trkpt lat="45.62424" lon="6.5542">
        <ele>2113.6</ele>
        <time>2021-06-25T09:21:23Z</time>
      </trkpt>
      <trkpt lat="45.62424" lon="6.55419">
        <ele>2114.56</ele>
        <time>2021-06-25T09:21:36Z</time>
      </trkpt>
      <trkpt lat="45.62426" lon="6.55417">
        <ele>2114.56</ele>
        <time>2021-06-25T09:21:59Z</time>
      </trkpt>
      <trkpt lat="45.62431" lon="6.55413">
        <ele>2115.52</ele>
        <time>2021-06-25T09:22:13Z</time>
      </trkpt>
      <trkpt lat="45.62431" lon="6.55415">
        <ele>2115.52</ele>
        <time>2021-06-25T09:22:32Z</time>
      </trkpt>
      <trkpt lat="45.62431" lon="6.55425">
        <ele>2115.52</ele>
        <time>2021-06-25T09:22:40Z</time>
      </trkpt>
      <trkpt lat="45.62432" lon="6.5543">
        <ele>2115.52</ele>
        <time>2021-06-25T09:22:55Z</time>
      </trkpt>
      <trkpt lat="45.62432" lon="6.55428">
        <ele>2116</ele>
        <time>2021-06-25T09:23:19Z</time>
      </trkpt>
      <trkpt lat="45.62434" lon="6.55429">
        <ele>2116</ele>
        <time>2021-06-25T09:23:40Z</time>
      </trkpt>
      <trkpt lat="45.62432" lon="6.55429">
        <ele>2116</ele>
        <time>2021-06-25T09:24:11Z</time>
      </trkpt>
      <trkpt lat="45.62431" lon="6.5543">
        <ele>2116</ele>
        <time>2021-06-25T09:24:35Z</time>
      </trkpt>
      <trkpt lat="45.62431" lon="6.55424">
        <ele>2116</ele>
        <time>2021-06-25T09:24:53Z</time>
      </trkpt>
      <trkpt lat="45.62431" lon="6.5542">
        <ele>2116</ele>
        <time>2021-06-25T09:24:56Z</time>
      </trkpt>
      <trkpt lat="45.62431" lon="6.55401">
        <ele>2116</ele>
        <time>2021-06-25T09:25:11Z</time>
      </trkpt>
      <trkpt lat="45.62428" lon="6.55382">
        <ele>2116</ele>
        <time>2021-06-25T09:25:25Z</time>
      </trkpt>
      <trkpt lat="45.62423" lon="6.55362">
        <ele>2116</ele>
        <time>2021-06-25T09:25:41Z</time>
      </trkpt>
      <trkpt lat="45.62418" lon="6.55339">
        <ele>2115.04</ele>
        <time>2021-06-25T09:25:56Z</time>
      </trkpt>
      <trkpt lat="45.62411" lon="6.55318">
        <ele>2114.08</ele>
        <time>2021-06-25T09:26:13Z</time>
      </trkpt>
      <trkpt lat="45.6241" lon="6.55307">
        <ele>2113.6</ele>
        <time>2021-06-25T09:26:21Z</time>
      </trkpt>
      <trkpt lat="45.6241" lon="6.55303">
        <ele>2113.12</ele>
        <time>2021-06-25T09:26:24Z</time>
      </trkpt>
      <trkpt lat="45.6241" lon="6.55299">
        <ele>2113.12</ele>
        <time>2021-06-25T09:26:27Z</time>
      </trkpt>
      <trkpt lat="45.6241" lon="6.55296">
        <ele>2113.12</ele>
        <time>2021-06-25T09:26:29Z</time>
      </trkpt>
      <trkpt lat="45.62408" lon="6.5529">
        <ele>2113.12</ele>
        <time>2021-06-25T09:26:33Z</time>
      </trkpt>
      <trkpt lat="45.62402" lon="6.55274">
        <ele>2113.12</ele>
        <time>2021-06-25T09:26:47Z</time>
      </trkpt>
      <trkpt lat="45.624" lon="6.5527">
        <ele>2114.56</ele>
        <time>2021-06-25T09:26:52Z</time>
      </trkpt>
      <trkpt lat="45.62396" lon="6.55258">
        <ele>2116.48</ele>
        <time>2021-06-25T09:27:06Z</time>
      </trkpt>
      <trkpt lat="45.62396" lon="6.55253">
        <ele>2117.44</ele>
        <time>2021-06-25T09:27:18Z</time>
      </trkpt>
      <trkpt lat="45.62395" lon="6.55253">
        <ele>2117.44</ele>
        <time>2021-06-25T09:27:46Z</time>
      </trkpt>
      <trkpt lat="45.62395" lon="6.55246">
        <ele>2117.92</ele>
        <time>2021-06-25T09:28:05Z</time>
      </trkpt>
      <trkpt lat="45.62392" lon="6.55238">
        <ele>2119.36</ele>
        <time>2021-06-25T09:28:20Z</time>
      </trkpt>
      <trkpt lat="45.62388" lon="6.55229">
        <ele>2119.84</ele>
        <time>2021-06-25T09:28:33Z</time>
      </trkpt>
      <trkpt lat="45.62385" lon="6.55219">
        <ele>2120.81</ele>
        <time>2021-06-25T09:28:48Z</time>
      </trkpt>
      <trkpt lat="45.62382" lon="6.55214">
        <ele>2122.73</ele>
        <time>2021-06-25T09:29:04Z</time>
      </trkpt>
      <trkpt lat="45.6238" lon="6.55208">
        <ele>2123.69</ele>
        <time>2021-06-25T09:29:21Z</time>
      </trkpt>
      <trkpt lat="45.62375" lon="6.55201">
        <ele>2125.13</ele>
        <time>2021-06-25T09:29:34Z</time>
      </trkpt>
      <trkpt lat="45.62368" lon="6.55185">
        <ele>2125.13</ele>
        <time>2021-06-25T09:29:49Z</time>
      </trkpt>
      <trkpt lat="45.62364" lon="6.55174">
        <ele>2125.13</ele>
        <time>2021-06-25T09:30:02Z</time>
      </trkpt>
      <trkpt lat="45.62361" lon="6.55167">
        <ele>2126.57</ele>
        <time>2021-06-25T09:30:17Z</time>
      </trkpt>
      <trkpt lat="45.62353" lon="6.55166">
        <ele>2128.98</ele>
        <time>2021-06-25T09:30:32Z</time>
      </trkpt>
      <trkpt lat="45.62351" lon="6.55168">
        <ele>2128.98</ele>
        <time>2021-06-25T09:30:43Z</time>
      </trkpt>
      <trkpt lat="45.62349" lon="6.55168">
        <ele>2126.57</ele>
        <time>2021-06-25T09:30:57Z</time>
      </trkpt>
      <trkpt lat="45.62344" lon="6.5516">
        <ele>2126.57</ele>
        <time>2021-06-25T09:31:12Z</time>
      </trkpt>
      <trkpt lat="45.62343" lon="6.55155">
        <ele>2125.61</ele>
        <time>2021-06-25T09:31:28Z</time>
      </trkpt>
      <trkpt lat="45.62343" lon="6.55151">
        <ele>2125.13</ele>
        <time>2021-06-25T09:31:41Z</time>
      </trkpt>
      <trkpt lat="45.62343" lon="6.55149">
        <ele>2123.69</ele>
        <time>2021-06-25T09:31:53Z</time>
      </trkpt>
      <trkpt lat="45.6234" lon="6.55145">
        <ele>2123.21</ele>
        <time>2021-06-25T09:32:07Z</time>
      </trkpt>
      <trkpt lat="45.6234" lon="6.55137">
        <ele>2122.73</ele>
        <time>2021-06-25T09:32:21Z</time>
      </trkpt>
      <trkpt lat="45.62334" lon="6.55132">
        <ele>2122.73</ele>
        <time>2021-06-25T09:32:34Z</time>
      </trkpt>
      <trkpt lat="45.62331" lon="6.55126">
        <ele>2123.21</ele>
        <time>2021-06-25T09:32:45Z</time>
      </trkpt>
      <trkpt lat="45.62329" lon="6.55115">
        <ele>2124.17</ele>
        <time>2021-06-25T09:32:58Z</time>
      </trkpt>
      <trkpt lat="45.62325" lon="6.5511">
        <ele>2125.13</ele>
        <time>2021-06-25T09:33:13Z</time>
      </trkpt>
      <trkpt lat="45.6232" lon="6.55104">
        <ele>2126.57</ele>
        <time>2021-06-25T09:33:28Z</time>
      </trkpt>
      <trkpt lat="45.62321" lon="6.55095">
        <ele>2128.5</ele>
        <time>2021-06-25T09:33:43Z</time>
      </trkpt>
      <trkpt lat="45.62323" lon="6.55088">
        <ele>2130.9</ele>
        <time>2021-06-25T09:33:58Z</time>
      </trkpt>
      <trkpt lat="45.6232" lon="6.55083">
        <ele>2131.86</ele>
        <time>2021-06-25T09:34:12Z</time>
      </trkpt>
      <trkpt lat="45.62318" lon="6.55081">
        <ele>2132.82</ele>
        <time>2021-06-25T09:34:25Z</time>
      </trkpt>
      <trkpt lat="45.62312" lon="6.55079">
        <ele>2133.78</ele>
        <time>2021-06-25T09:34:39Z</time>
      </trkpt>
      <trkpt lat="45.6231" lon="6.55076">
        <ele>2133.3</ele>
        <time>2021-06-25T09:34:45Z</time>
      </trkpt>
      <trkpt lat="45.62308" lon="6.55072">
        <ele>2132.34</ele>
        <time>2021-06-25T09:34:49Z</time>
      </trkpt>
      <trkpt lat="45.62308" lon="6.55073">
        <ele>2130.9</ele>
        <time>2021-06-25T09:35:02Z</time>
      </trkpt>
      <trkpt lat="45.62308" lon="6.55074">
        <ele>2130.9</ele>
        <time>2021-06-25T09:35:36Z</time>
      </trkpt>
      <trkpt lat="45.62309" lon="6.55074">
        <ele>2131.38</ele>
        <time>2021-06-25T09:36:01Z</time>
      </trkpt>
      <trkpt lat="45.6231" lon="6.55075">
        <ele>2131.38</ele>
        <time>2021-06-25T09:36:34Z</time>
      </trkpt>
      <trkpt lat="45.62306" lon="6.55075">
        <ele>2131.86</ele>
        <time>2021-06-25T09:37:10Z</time>
      </trkpt>
      <trkpt lat="45.62306" lon="6.55074">
        <ele>2132.82</ele>
        <time>2021-06-25T09:37:14Z</time>
      </trkpt>
      <trkpt lat="45.62304" lon="6.55069">
        <ele>2132.82</ele>
        <time>2021-06-25T09:37:36Z</time>
      </trkpt>
      <trkpt lat="45.62303" lon="6.55068">
        <ele>2132.82</ele>
        <time>2021-06-25T09:37:38Z</time>
      </trkpt>
      <trkpt lat="45.62301" lon="6.55066">
        <ele>2131.86</ele>
        <time>2021-06-25T09:37:42Z</time>
      </trkpt>
      <trkpt lat="45.62298" lon="6.5506">
        <ele>2131.86</ele>
        <time>2021-06-25T09:37:56Z</time>
      </trkpt>
      <trkpt lat="45.62299" lon="6.55061">
        <ele>2131.38</ele>
        <time>2021-06-25T09:38:24Z</time>
      </trkpt>
      <trkpt lat="45.62298" lon="6.55061">
        <ele>2131.86</ele>
        <time>2021-06-25T09:38:49Z</time>
      </trkpt>
      <trkpt lat="45.62298" lon="6.55055">
        <ele>2131.86</ele>
        <time>2021-06-25T09:39:11Z</time>
      </trkpt>
      <trkpt lat="45.62298" lon="6.55052">
        <ele>2131.86</ele>
        <time>2021-06-25T09:39:23Z</time>
      </trkpt>
      <trkpt lat="45.62298" lon="6.55051">
        <ele>2131.86</ele>
        <time>2021-06-25T09:39:36Z</time>
      </trkpt>
      <trkpt lat="45.62301" lon="6.55041">
        <ele>2131.86</ele>
        <time>2021-06-25T09:39:49Z</time>
      </trkpt>
      <trkpt lat="45.623" lon="6.55025">
        <ele>2130.9</ele>
        <time>2021-06-25T09:40:03Z</time>
      </trkpt>
      <trkpt lat="45.62297" lon="6.55016">
        <ele>2129.46</ele>
        <time>2021-06-25T09:40:09Z</time>
      </trkpt>
      <trkpt lat="45.62296" lon="6.55011">
        <ele>2129.46</ele>
        <time>2021-06-25T09:40:23Z</time>
      </trkpt>
      <trkpt lat="45.62293" lon="6.54996">
        <ele>2128.5</ele>
        <time>2021-06-25T09:40:40Z</time>
      </trkpt>
      <trkpt lat="45.62292" lon="6.54974">
        <ele>2128.02</ele>
        <time>2021-06-25T09:40:56Z</time>
      </trkpt>
      <trkpt lat="45.62289" lon="6.54961">
        <ele>2125.61</ele>
        <time>2021-06-25T09:41:09Z</time>
      </trkpt>
      <trkpt lat="45.62285" lon="6.54949">
        <ele>2122.73</ele>
        <time>2021-06-25T09:41:21Z</time>
      </trkpt>
      <trkpt lat="45.62284" lon="6.54937">
        <ele>2119.84</ele>
        <time>2021-06-25T09:41:35Z</time>
      </trkpt>
      <trkpt lat="45.62281" lon="6.5493">
        <ele>2117.92</ele>
        <time>2021-06-25T09:41:46Z</time>
      </trkpt>
      <trkpt lat="45.62281" lon="6.5493">
        <ele>2117.44</ele>
        <time>2021-06-25T09:41:47Z</time>
      </trkpt>
      <trkpt lat="45.62279" lon="6.54917">
        <ele>2116.96</ele>
        <time>2021-06-25T09:42:00Z</time>
      </trkpt>
      <trkpt lat="45.62281" lon="6.54914">
        <ele>2116.48</ele>
        <time>2021-06-25T09:42:23Z</time>
      </trkpt>
      <trkpt lat="45.62282" lon="6.5491">
        <ele>2116.48</ele>
        <time>2021-06-25T09:42:46Z</time>
      </trkpt>
      <trkpt lat="45.6228" lon="6.5491">
        <ele>2116.48</ele>
        <time>2021-06-25T09:42:50Z</time>
      </trkpt>
      <trkpt lat="45.6227" lon="6.54897">
        <ele>2116</ele>
        <time>2021-06-25T09:43:04Z</time>
      </trkpt>
      <trkpt lat="45.62265" lon="6.54881">
        <ele>2116</ele>
        <time>2021-06-25T09:43:18Z</time>
      </trkpt>
      <trkpt lat="45.62265" lon="6.54872">
        <ele>2117.44</ele>
        <time>2021-06-25T09:43:29Z</time>
      </trkpt>
      <trkpt lat="45.62267" lon="6.54863">
        <ele>2119.84</ele>
        <time>2021-06-25T09:43:43Z</time>
      </trkpt>
      <trkpt lat="45.62261" lon="6.54852">
        <ele>2120.32</ele>
        <time>2021-06-25T09:43:55Z</time>
      </trkpt>
      <trkpt lat="45.62259" lon="6.54849">
        <ele>2120.32</ele>
        <time>2021-06-25T09:43:58Z</time>
      </trkpt>
      <trkpt lat="45.62247" lon="6.54835">
        <ele>2118.4</ele>
        <time>2021-06-25T09:44:14Z</time>
      </trkpt>
      <trkpt lat="45.62245" lon="6.54831">
        <ele>2118.4</ele>
        <time>2021-06-25T09:44:18Z</time>
      </trkpt>
      <trkpt lat="45.62244" lon="6.54827">
        <ele>2119.84</ele>
        <time>2021-06-25T09:44:21Z</time>
      </trkpt>
      <trkpt lat="45.62235" lon="6.54816">
        <ele>2119.84</ele>
        <time>2021-06-25T09:44:34Z</time>
      </trkpt>
      <trkpt lat="45.62233" lon="6.54811">
        <ele>2120.32</ele>
        <time>2021-06-25T09:44:39Z</time>
      </trkpt>
      <trkpt lat="45.62227" lon="6.54798">
        <ele>2122.73</ele>
        <time>2021-06-25T09:44:53Z</time>
      </trkpt>
      <trkpt lat="45.62225" lon="6.54785">
        <ele>2122.73</ele>
        <time>2021-06-25T09:45:06Z</time>
      </trkpt>
      <trkpt lat="45.62223" lon="6.54774">
        <ele>2123.21</ele>
        <time>2021-06-25T09:45:14Z</time>
      </trkpt>
      <trkpt lat="45.62218" lon="6.54756">
        <ele>2124.65</ele>
        <time>2021-06-25T09:45:30Z</time>
      </trkpt>
      <trkpt lat="45.62213" lon="6.54742">
        <ele>2124.65</ele>
        <time>2021-06-25T09:45:44Z</time>
      </trkpt>
      <trkpt lat="45.62211" lon="6.54734">
        <ele>2125.13</ele>
        <time>2021-06-25T09:45:55Z</time>
      </trkpt>
      <trkpt lat="45.6221" lon="6.54726">
        <ele>2127.05</ele>
        <time>2021-06-25T09:46:06Z</time>
      </trkpt>
      <trkpt lat="45.62212" lon="6.5471">
        <ele>2127.53</ele>
        <time>2021-06-25T09:46:21Z</time>
      </trkpt>
      <trkpt lat="45.6221" lon="6.54697">
        <ele>2129.94</ele>
        <time>2021-06-25T09:46:34Z</time>
      </trkpt>
      <trkpt lat="45.62211" lon="6.54686">
        <ele>2131.86</ele>
        <time>2021-06-25T09:46:48Z</time>
      </trkpt>
      <trkpt lat="45.62209" lon="6.54678">
        <ele>2132.82</ele>
        <time>2021-06-25T09:47:01Z</time>
      </trkpt>
      <trkpt lat="45.62207" lon="6.54675">
        <ele>2134.26</ele>
        <time>2021-06-25T09:47:16Z</time>
      </trkpt>
      <trkpt lat="45.62202" lon="6.54674">
        <ele>2135.71</ele>
        <time>2021-06-25T09:47:30Z</time>
      </trkpt>
      <trkpt lat="45.62204" lon="6.54669">
        <ele>2137.63</ele>
        <time>2021-06-25T09:47:46Z</time>
      </trkpt>
      <trkpt lat="45.62205" lon="6.54672">
        <ele>2138.11</ele>
        <time>2021-06-25T09:48:13Z</time>
      </trkpt>
      <trkpt lat="45.62205" lon="6.54673">
        <ele>2138.11</ele>
        <time>2021-06-25T09:48:40Z</time>
      </trkpt>
      <trkpt lat="45.62203" lon="6.54667">
        <ele>2138.11</ele>
        <time>2021-06-25T09:48:53Z</time>
      </trkpt>
      <trkpt lat="45.62204" lon="6.54661">
        <ele>2140.99</ele>
        <time>2021-06-25T09:49:03Z</time>
      </trkpt>
      <trkpt lat="45.622" lon="6.54641">
        <ele>2140.03</ele>
        <time>2021-06-25T09:49:19Z</time>
      </trkpt>
      <trkpt lat="45.62194" lon="6.54631">
        <ele>2141.95</ele>
        <time>2021-06-25T09:49:32Z</time>
      </trkpt>
      <trkpt lat="45.62191" lon="6.54629">
        <ele>2143.4</ele>
        <time>2021-06-25T09:49:44Z</time>
      </trkpt>
      <trkpt lat="45.62187" lon="6.54622">
        <ele>2146.28</ele>
        <time>2021-06-25T09:49:57Z</time>
      </trkpt>
      <trkpt lat="45.62184" lon="6.54618">
        <ele>2147.72</ele>
        <time>2021-06-25T09:50:09Z</time>
      </trkpt>
      <trkpt lat="45.6218" lon="6.54616">
        <ele>2149.65</ele>
        <time>2021-06-25T09:50:21Z</time>
      </trkpt>
      <trkpt lat="45.62178" lon="6.54609">
        <ele>2152.05</ele>
        <time>2021-06-25T09:50:34Z</time>
      </trkpt>
      <trkpt lat="45.6218" lon="6.54605">
        <ele>2153.01</ele>
        <time>2021-06-25T09:50:48Z</time>
      </trkpt>
      <trkpt lat="45.62182" lon="6.54604">
        <ele>2153.01</ele>
        <time>2021-06-25T09:51:15Z</time>
      </trkpt>
      <trkpt lat="45.62179" lon="6.54596">
        <ele>2155.41</ele>
        <time>2021-06-25T09:51:28Z</time>
      </trkpt>
      <trkpt lat="45.62182" lon="6.54586">
        <ele>2157.34</ele>
        <time>2021-06-25T09:51:41Z</time>
      </trkpt>
      <trkpt lat="45.62183" lon="6.54584">
        <ele>2157.34</ele>
        <time>2021-06-25T09:51:44Z</time>
      </trkpt>
      <trkpt lat="45.62186" lon="6.54582">
        <ele>2157.34</ele>
        <time>2021-06-25T09:51:52Z</time>
      </trkpt>
      <trkpt lat="45.62191" lon="6.54588">
        <ele>2158.78</ele>
        <time>2021-06-25T09:52:04Z</time>
      </trkpt>
      <trkpt lat="45.62194" lon="6.54593">
        <ele>2156.86</ele>
        <time>2021-06-25T09:52:15Z</time>
      </trkpt>
      <trkpt lat="45.62191" lon="6.54584">
        <ele>2156.37</ele>
        <time>2021-06-25T09:52:27Z</time>
      </trkpt>
      <trkpt lat="45.62191" lon="6.54579">
        <ele>2154.93</ele>
        <time>2021-06-25T09:52:32Z</time>
      </trkpt>
      <trkpt lat="45.62192" lon="6.54571">
        <ele>2153.01</ele>
        <time>2021-06-25T09:52:40Z</time>
      </trkpt>
      <trkpt lat="45.62192" lon="6.5456">
        <ele>2154.45</ele>
        <time>2021-06-25T09:52:50Z</time>
      </trkpt>
      <trkpt lat="45.62192" lon="6.54548">
        <ele>2156.86</ele>
        <time>2021-06-25T09:53:02Z</time>
      </trkpt>
      <trkpt lat="45.62193" lon="6.54536">
        <ele>2158.3</ele>
        <time>2021-06-25T09:53:15Z</time>
      </trkpt>
      <trkpt lat="45.62194" lon="6.54529">
        <ele>2160.22</ele>
        <time>2021-06-25T09:53:28Z</time>
      </trkpt>
      <trkpt lat="45.62197" lon="6.54522">
        <ele>2162.14</ele>
        <time>2021-06-25T09:53:42Z</time>
      </trkpt>
      <trkpt lat="45.62203" lon="6.54521">
        <ele>2165.03</ele>
        <time>2021-06-25T09:53:56Z</time>
      </trkpt>
      <trkpt lat="45.62202" lon="6.54516">
        <ele>2165.99</ele>
        <time>2021-06-25T09:54:06Z</time>
      </trkpt>
      <trkpt lat="45.62199" lon="6.54507">
        <ele>2164.06</ele>
        <time>2021-06-25T09:54:17Z</time>
      </trkpt>
      <trkpt lat="45.62197" lon="6.5449">
        <ele>2163.58</ele>
        <time>2021-06-25T09:54:31Z</time>
      </trkpt>
      <trkpt lat="45.62195" lon="6.54483">
        <ele>2165.03</ele>
        <time>2021-06-25T09:54:39Z</time>
      </trkpt>
      <trkpt lat="45.62194" lon="6.54479">
        <ele>2165.99</ele>
        <time>2021-06-25T09:54:54Z</time>
      </trkpt>
      <trkpt lat="45.62194" lon="6.5448">
        <ele>2165.99</ele>
        <time>2021-06-25T09:55:13Z</time>
      </trkpt>
      <trkpt lat="45.62196" lon="6.5448">
        <ele>2165.99</ele>
        <time>2021-06-25T09:55:46Z</time>
      </trkpt>
      <trkpt lat="45.62198" lon="6.54478">
        <ele>2165.99</ele>
        <time>2021-06-25T09:56:09Z</time>
      </trkpt>
      <trkpt lat="45.62193" lon="6.54469">
        <ele>2165.99</ele>
        <time>2021-06-25T09:56:23Z</time>
      </trkpt>
      <trkpt lat="45.62189" lon="6.54464">
        <ele>2165.99</ele>
        <time>2021-06-25T09:56:37Z</time>
      </trkpt>
      <trkpt lat="45.6219" lon="6.54463">
        <ele>2165.99</ele>
        <time>2021-06-25T09:56:52Z</time>
      </trkpt>
      <trkpt lat="45.62188" lon="6.54462">
        <ele>2165.51</ele>
        <time>2021-06-25T09:57:22Z</time>
      </trkpt>
      <trkpt lat="45.6219" lon="6.54463">
        <ele>2166.95</ele>
        <time>2021-06-25T09:57:33Z</time>
      </trkpt>
      <trkpt lat="45.6219" lon="6.54464">
        <ele>2165.51</ele>
        <time>2021-06-25T09:57:53Z</time>
      </trkpt>
      <trkpt lat="45.62186" lon="6.54462">
        <ele>2164.55</ele>
        <time>2021-06-25T09:58:08Z</time>
      </trkpt>
      <trkpt lat="45.62185" lon="6.54455">
        <ele>2162.62</ele>
        <time>2021-06-25T09:58:20Z</time>
      </trkpt>
      <trkpt lat="45.62185" lon="6.54447">
        <ele>2161.18</ele>
        <time>2021-06-25T09:58:33Z</time>
      </trkpt>
      <trkpt lat="45.62183" lon="6.5444">
        <ele>2160.22</ele>
        <time>2021-06-25T09:58:45Z</time>
      </trkpt>
      <trkpt lat="45.62181" lon="6.54433">
        <ele>2159.74</ele>
        <time>2021-06-25T09:59:00Z</time>
      </trkpt>
      <trkpt lat="45.6218" lon="6.54424">
        <ele>2157.82</ele>
        <time>2021-06-25T09:59:13Z</time>
      </trkpt>
      <trkpt lat="45.62183" lon="6.54421">
        <ele>2157.82</ele>
        <time>2021-06-25T09:59:20Z</time>
      </trkpt>
      <trkpt lat="45.62182" lon="6.54415">
        <ele>2157.34</ele>
        <time>2021-06-25T09:59:25Z</time>
      </trkpt>
      <trkpt lat="45.62182" lon="6.54404">
        <ele>2156.37</ele>
        <time>2021-06-25T09:59:37Z</time>
      </trkpt>
      <trkpt lat="45.62181" lon="6.544">
        <ele>2153.01</ele>
        <time>2021-06-25T09:59:41Z</time>
      </trkpt>
      <trkpt lat="45.62181" lon="6.54399">
        <ele>2155.89</ele>
        <time>2021-06-25T09:59:44Z</time>
      </trkpt>
      <trkpt lat="45.62182" lon="6.54391">
        <ele>2153.49</ele>
        <time>2021-06-25T09:59:54Z</time>
      </trkpt>
      <trkpt lat="45.62183" lon="6.54383">
        <ele>2153.97</ele>
        <time>2021-06-25T10:00:05Z</time>
      </trkpt>
      <trkpt lat="45.62179" lon="6.54379">
        <ele>2152.53</ele>
        <time>2021-06-25T10:00:17Z</time>
      </trkpt>
      <trkpt lat="45.62178" lon="6.54371">
        <ele>2152.05</ele>
        <time>2021-06-25T10:00:30Z</time>
      </trkpt>
      <trkpt lat="45.6218" lon="6.54367">
        <ele>2151.57</ele>
        <time>2021-06-25T10:00:34Z</time>
      </trkpt>
      <trkpt lat="45.62183" lon="6.54353">
        <ele>2150.13</ele>
        <time>2021-06-25T10:00:47Z</time>
      </trkpt>
      <trkpt lat="45.62179" lon="6.54349">
        <ele>2147.72</ele>
        <time>2021-06-25T10:00:59Z</time>
      </trkpt>
      <trkpt lat="45.62173" lon="6.54342">
        <ele>2144.36</ele>
        <time>2021-06-25T10:01:12Z</time>
      </trkpt>
      <trkpt lat="45.62166" lon="6.54337">
        <ele>2142.44</ele>
        <time>2021-06-25T10:01:23Z</time>
      </trkpt>
      <trkpt lat="45.62162" lon="6.5433">
        <ele>2140.99</ele>
        <time>2021-06-25T10:01:33Z</time>
      </trkpt>
      <trkpt lat="45.62158" lon="6.54323">
        <ele>2140.03</ele>
        <time>2021-06-25T10:01:39Z</time>
      </trkpt>
      <trkpt lat="45.62151" lon="6.54315">
        <ele>2136.67</ele>
        <time>2021-06-25T10:01:51Z</time>
      </trkpt>
      <trkpt lat="45.62149" lon="6.54311">
        <ele>2134.26</ele>
        <time>2021-06-25T10:02:04Z</time>
      </trkpt>
      <trkpt lat="45.62143" lon="6.54306">
        <ele>2131.86</ele>
        <time>2021-06-25T10:02:16Z</time>
      </trkpt>
      <trkpt lat="45.62139" lon="6.54307">
        <ele>2131.86</ele>
        <time>2021-06-25T10:02:29Z</time>
      </trkpt>
      <trkpt lat="45.6214" lon="6.54307">
        <ele>2131.86</ele>
        <time>2021-06-25T10:02:45Z</time>
      </trkpt>
      <trkpt lat="45.62139" lon="6.54307">
        <ele>2131.86</ele>
        <time>2021-06-25T10:02:59Z</time>
      </trkpt>
      <trkpt lat="45.6214" lon="6.54305">
        <ele>2133.78</ele>
        <time>2021-06-25T10:03:15Z</time>
      </trkpt>
      <trkpt lat="45.6214" lon="6.54305">
        <ele>2131.86</ele>
        <time>2021-06-25T10:03:19Z</time>
      </trkpt>
      <trkpt lat="45.62145" lon="6.54304">
        <ele>2131.86</ele>
        <time>2021-06-25T10:03:39Z</time>
      </trkpt>
      <trkpt lat="45.62147" lon="6.54304">
        <ele>2131.86</ele>
        <time>2021-06-25T10:04:00Z</time>
      </trkpt>
      <trkpt lat="45.62146" lon="6.54302">
        <ele>2131.86</ele>
        <time>2021-06-25T10:04:16Z</time>
      </trkpt>
      <trkpt lat="45.62145" lon="6.54303">
        <ele>2131.86</ele>
        <time>2021-06-25T10:04:34Z</time>
      </trkpt>
      <trkpt lat="45.62144" lon="6.54305">
        <ele>2131.86</ele>
        <time>2021-06-25T10:05:00Z</time>
      </trkpt>
      <trkpt lat="45.62144" lon="6.54307">
        <ele>2130.9</ele>
        <time>2021-06-25T10:05:16Z</time>
      </trkpt>
      <trkpt lat="45.62141" lon="6.54305">
        <ele>2130.9</ele>
        <time>2021-06-25T10:05:52Z</time>
      </trkpt>
      <trkpt lat="45.62143" lon="6.54307">
        <ele>2130.9</ele>
        <time>2021-06-25T10:06:27Z</time>
      </trkpt>
      <trkpt lat="45.62143" lon="6.54307">
        <ele>2130.9</ele>
        <time>2021-06-25T10:06:49Z</time>
      </trkpt>
      <trkpt lat="45.62143" lon="6.54307">
        <ele>2130.9</ele>
        <time>2021-06-25T10:07:14Z</time>
      </trkpt>
      <trkpt lat="45.62144" lon="6.54307">
        <ele>2130.9</ele>
        <time>2021-06-25T10:07:18Z</time>
      </trkpt>
      <trkpt lat="45.62149" lon="6.54303">
        <ele>2128.5</ele>
        <time>2021-06-25T10:07:24Z</time>
      </trkpt>
      <trkpt lat="45.6215" lon="6.54303">
        <ele>2133.3</ele>
        <time>2021-06-25T10:07:25Z</time>
      </trkpt>
      <trkpt lat="45.62153" lon="6.543">
        <ele>2129.94</ele>
        <time>2021-06-25T10:07:33Z</time>
      </trkpt>
      <trkpt lat="45.62163" lon="6.54294">
        <ele>2131.86</ele>
        <time>2021-06-25T10:07:50Z</time>
      </trkpt>
      <trkpt lat="45.62167" lon="6.5428">
        <ele>2132.82</ele>
        <time>2021-06-25T10:08:06Z</time>
      </trkpt>
      <trkpt lat="45.62169" lon="6.54271">
        <ele>2132.82</ele>
        <time>2021-06-25T10:08:21Z</time>
      </trkpt>
      <trkpt lat="45.62169" lon="6.54269">
        <ele>2129.46</ele>
        <time>2021-06-25T10:08:23Z</time>
      </trkpt>
      <trkpt lat="45.62169" lon="6.54269">
        <ele>2134.26</ele>
        <time>2021-06-25T10:08:24Z</time>
      </trkpt>
      <trkpt lat="45.62169" lon="6.54268">
        <ele>2131.38</ele>
        <time>2021-06-25T10:08:26Z</time>
      </trkpt>
      <trkpt lat="45.6217" lon="6.54265">
        <ele>2127.53</ele>
        <time>2021-06-25T10:08:29Z</time>
      </trkpt>
      <trkpt lat="45.6217" lon="6.54265">
        <ele>2135.23</ele>
        <time>2021-06-25T10:08:30Z</time>
      </trkpt>
      <trkpt lat="45.6217" lon="6.54265">
        <ele>2131.86</ele>
        <time>2021-06-25T10:08:31Z</time>
      </trkpt>
      <trkpt lat="45.6217" lon="6.54264">
        <ele>2131.38</ele>
        <time>2021-06-25T10:08:33Z</time>
      </trkpt>
      <trkpt lat="45.62171" lon="6.54261">
        <ele>2136.67</ele>
        <time>2021-06-25T10:08:39Z</time>
      </trkpt>
      <trkpt lat="45.62172" lon="6.5426">
        <ele>2133.3</ele>
        <time>2021-06-25T10:08:40Z</time>
      </trkpt>
      <trkpt lat="45.62172" lon="6.54259">
        <ele>2129.46</ele>
        <time>2021-06-25T10:08:42Z</time>
      </trkpt>
      <trkpt lat="45.62171" lon="6.54258">
        <ele>2134.26</ele>
        <time>2021-06-25T10:08:43Z</time>
      </trkpt>
      <trkpt lat="45.62171" lon="6.54257">
        <ele>2131.38</ele>
        <time>2021-06-25T10:08:44Z</time>
      </trkpt>
      <trkpt lat="45.62171" lon="6.54253">
        <ele>2135.71</ele>
        <time>2021-06-25T10:08:49Z</time>
      </trkpt>
      <trkpt lat="45.62171" lon="6.54251">
        <ele>2132.34</ele>
        <time>2021-06-25T10:08:50Z</time>
      </trkpt>
      <trkpt lat="45.6217" lon="6.54247">
        <ele>2136.19</ele>
        <time>2021-06-25T10:08:54Z</time>
      </trkpt>
      <trkpt lat="45.6217" lon="6.54246">
        <ele>2131.86</ele>
        <time>2021-06-25T10:08:55Z</time>
      </trkpt>
      <trkpt lat="45.6217" lon="6.54241">
        <ele>2132.82</ele>
        <time>2021-06-25T10:08:59Z</time>
      </trkpt>
      <trkpt lat="45.62171" lon="6.54228">
        <ele>2133.78</ele>
        <time>2021-06-25T10:09:14Z</time>
      </trkpt>
      <trkpt lat="45.6217" lon="6.54227">
        <ele>2128.5</ele>
        <time>2021-06-25T10:09:17Z</time>
      </trkpt>
      <trkpt lat="45.6217" lon="6.54227">
        <ele>2136.19</ele>
        <time>2021-06-25T10:09:18Z</time>
      </trkpt>
      <trkpt lat="45.6217" lon="6.54226">
        <ele>2131.38</ele>
        <time>2021-06-25T10:09:19Z</time>
      </trkpt>
      <trkpt lat="45.62171" lon="6.54213">
        <ele>2132.82</ele>
        <time>2021-06-25T10:09:34Z</time>
      </trkpt>
      <trkpt lat="45.62171" lon="6.54211">
        <ele>2133.78</ele>
        <time>2021-06-25T10:09:36Z</time>
      </trkpt>
      <trkpt lat="45.62171" lon="6.54209">
        <ele>2129.94</ele>
        <time>2021-06-25T10:09:39Z</time>
      </trkpt>
      <trkpt lat="45.62171" lon="6.54208">
        <ele>2135.71</ele>
        <time>2021-06-25T10:09:40Z</time>
      </trkpt>
      <trkpt lat="45.62172" lon="6.54205">
        <ele>2129.46</ele>
        <time>2021-06-25T10:09:42Z</time>
      </trkpt>
      <trkpt lat="45.62172" lon="6.54204">
        <ele>2136.19</ele>
        <time>2021-06-25T10:09:43Z</time>
      </trkpt>
      <trkpt lat="45.62172" lon="6.54203">
        <ele>2131.38</ele>
        <time>2021-06-25T10:09:44Z</time>
      </trkpt>
      <trkpt lat="45.62173" lon="6.54202">
        <ele>2137.15</ele>
        <time>2021-06-25T10:09:45Z</time>
      </trkpt>
      <trkpt lat="45.62173" lon="6.54201">
        <ele>2132.34</ele>
        <time>2021-06-25T10:09:46Z</time>
      </trkpt>
      <trkpt lat="45.62177" lon="6.54191">
        <ele>2134.26</ele>
        <time>2021-06-25T10:09:56Z</time>
      </trkpt>
      <trkpt lat="45.62179" lon="6.54173">
        <ele>2134.26</ele>
        <time>2021-06-25T10:10:10Z</time>
      </trkpt>
      <trkpt lat="45.62181" lon="6.54169">
        <ele>2134.74</ele>
        <time>2021-06-25T10:10:16Z</time>
      </trkpt>
      <trkpt lat="45.62183" lon="6.54167">
        <ele>2134.74</ele>
        <time>2021-06-25T10:10:19Z</time>
      </trkpt>
      <trkpt lat="45.62184" lon="6.54165">
        <ele>2131.86</ele>
        <time>2021-06-25T10:10:21Z</time>
      </trkpt>
      <trkpt lat="45.62185" lon="6.54164">
        <ele>2133.78</ele>
        <time>2021-06-25T10:10:22Z</time>
      </trkpt>
      <trkpt lat="45.62186" lon="6.54153">
        <ele>2132.34</ele>
        <time>2021-06-25T10:10:33Z</time>
      </trkpt>
      <trkpt lat="45.62185" lon="6.54152">
        <ele>2136.67</ele>
        <time>2021-06-25T10:10:34Z</time>
      </trkpt>
      <trkpt lat="45.62186" lon="6.54152">
        <ele>2136.67</ele>
        <time>2021-06-25T10:10:35Z</time>
      </trkpt>
      <trkpt lat="45.62186" lon="6.5415">
        <ele>2133.78</ele>
        <time>2021-06-25T10:10:38Z</time>
      </trkpt>
      <trkpt lat="45.62186" lon="6.54137">
        <ele>2133.3</ele>
        <time>2021-06-25T10:10:52Z</time>
      </trkpt>
      <trkpt lat="45.62185" lon="6.54136">
        <ele>2133.3</ele>
        <time>2021-06-25T10:10:53Z</time>
      </trkpt>
      <trkpt lat="45.62183" lon="6.54135">
        <ele>2132.34</ele>
        <time>2021-06-25T10:10:56Z</time>
      </trkpt>
      <trkpt lat="45.62183" lon="6.54123">
        <ele>2130.9</ele>
        <time>2021-06-25T10:11:09Z</time>
      </trkpt>
      <trkpt lat="45.62182" lon="6.54118">
        <ele>2134.26</ele>
        <time>2021-06-25T10:11:13Z</time>
      </trkpt>
      <trkpt lat="45.62182" lon="6.54117">
        <ele>2134.26</ele>
        <time>2021-06-25T10:11:14Z</time>
      </trkpt>
      <trkpt lat="45.62181" lon="6.54115">
        <ele>2132.34</ele>
        <time>2021-06-25T10:11:16Z</time>
      </trkpt>
      <trkpt lat="45.62179" lon="6.54113">
        <ele>2128.98</ele>
        <time>2021-06-25T10:11:18Z</time>
      </trkpt>
      <trkpt lat="45.62179" lon="6.54112">
        <ele>2134.26</ele>
        <time>2021-06-25T10:11:19Z</time>
      </trkpt>
      <trkpt lat="45.62178" lon="6.54111">
        <ele>2128.02</ele>
        <time>2021-06-25T10:11:20Z</time>
      </trkpt>
      <trkpt lat="45.62178" lon="6.54111">
        <ele>2135.71</ele>
        <time>2021-06-25T10:11:21Z</time>
      </trkpt>
      <trkpt lat="45.62177" lon="6.54111">
        <ele>2130.9</ele>
        <time>2021-06-25T10:11:22Z</time>
      </trkpt>
      <trkpt lat="45.62177" lon="6.5411">
        <ele>2133.3</ele>
        <time>2021-06-25T10:11:23Z</time>
      </trkpt>
      <trkpt lat="45.62176" lon="6.54106">
        <ele>2135.23</ele>
        <time>2021-06-25T10:11:26Z</time>
      </trkpt>
      <trkpt lat="45.62176" lon="6.54104">
        <ele>2131.38</ele>
        <time>2021-06-25T10:11:27Z</time>
      </trkpt>
      <trkpt lat="45.62175" lon="6.54102">
        <ele>2134.74</ele>
        <time>2021-06-25T10:11:29Z</time>
      </trkpt>
      <trkpt lat="45.62174" lon="6.54101">
        <ele>2133.3</ele>
        <time>2021-06-25T10:11:30Z</time>
      </trkpt>
      <trkpt lat="45.62173" lon="6.54099">
        <ele>2131.86</ele>
        <time>2021-06-25T10:11:32Z</time>
      </trkpt>
      <trkpt lat="45.62166" lon="6.54079">
        <ele>2132.34</ele>
        <time>2021-06-25T10:11:46Z</time>
      </trkpt>
      <trkpt lat="45.62166" lon="6.54076">
        <ele>2134.26</ele>
        <time>2021-06-25T10:11:48Z</time>
      </trkpt>
      <trkpt lat="45.62165" lon="6.54071">
        <ele>2130.9</ele>
        <time>2021-06-25T10:11:54Z</time>
      </trkpt>
      <trkpt lat="45.62166" lon="6.54069">
        <ele>2135.23</ele>
        <time>2021-06-25T10:11:55Z</time>
      </trkpt>
      <trkpt lat="45.62165" lon="6.54068">
        <ele>2135.23</ele>
        <time>2021-06-25T10:11:56Z</time>
      </trkpt>
      <trkpt lat="45.62164" lon="6.54065">
        <ele>2132.82</ele>
        <time>2021-06-25T10:11:58Z</time>
      </trkpt>
      <trkpt lat="45.62163" lon="6.54064">
        <ele>2134.74</ele>
        <time>2021-06-25T10:11:59Z</time>
      </trkpt>
      <trkpt lat="45.62157" lon="6.54051">
        <ele>2131.38</ele>
        <time>2021-06-25T10:12:10Z</time>
      </trkpt>
      <trkpt lat="45.62157" lon="6.54048">
        <ele>2128.5</ele>
        <time>2021-06-25T10:12:12Z</time>
      </trkpt>
      <trkpt lat="45.62157" lon="6.54044">
        <ele>2128.02</ele>
        <time>2021-06-25T10:12:15Z</time>
      </trkpt>
      <trkpt lat="45.62157" lon="6.54042">
        <ele>2132.34</ele>
        <time>2021-06-25T10:12:16Z</time>
      </trkpt>
      <trkpt lat="45.62156" lon="6.54036">
        <ele>2130.42</ele>
        <time>2021-06-25T10:12:20Z</time>
      </trkpt>
      <trkpt lat="45.62155" lon="6.54035">
        <ele>2131.86</ele>
        <time>2021-06-25T10:12:21Z</time>
      </trkpt>
      <trkpt lat="45.62154" lon="6.54031">
        <ele>2128.98</ele>
        <time>2021-06-25T10:12:24Z</time>
      </trkpt>
      <trkpt lat="45.62151" lon="6.54027">
        <ele>2127.53</ele>
        <time>2021-06-25T10:12:29Z</time>
      </trkpt>
      <trkpt lat="45.62151" lon="6.54026">
        <ele>2132.82</ele>
        <time>2021-06-25T10:12:30Z</time>
      </trkpt>
      <trkpt lat="45.62151" lon="6.54025">
        <ele>2129.46</ele>
        <time>2021-06-25T10:12:31Z</time>
      </trkpt>
      <trkpt lat="45.6215" lon="6.54024">
        <ele>2132.82</ele>
        <time>2021-06-25T10:12:34Z</time>
      </trkpt>
      <trkpt lat="45.6215" lon="6.54024">
        <ele>2126.57</ele>
        <time>2021-06-25T10:12:35Z</time>
      </trkpt>
      <trkpt lat="45.6215" lon="6.54024">
        <ele>2131.86</ele>
        <time>2021-06-25T10:12:36Z</time>
      </trkpt>
      <trkpt lat="45.6215" lon="6.54022">
        <ele>2129.46</ele>
        <time>2021-06-25T10:12:40Z</time>
      </trkpt>
      <trkpt lat="45.62153" lon="6.54018">
        <ele>2130.9</ele>
        <time>2021-06-25T10:12:46Z</time>
      </trkpt>
      <trkpt lat="45.62152" lon="6.54014">
        <ele>2128.5</ele>
        <time>2021-06-25T10:12:49Z</time>
      </trkpt>
      <trkpt lat="45.62151" lon="6.54009">
        <ele>2129.94</ele>
        <time>2021-06-25T10:13:09Z</time>
      </trkpt>
      <trkpt lat="45.62151" lon="6.5401">
        <ele>2131.38</ele>
        <time>2021-06-25T10:13:23Z</time>
      </trkpt>
      <trkpt lat="45.62152" lon="6.5401">
        <ele>2130.42</ele>
        <time>2021-06-25T10:13:25Z</time>
      </trkpt>
      <trkpt lat="45.62152" lon="6.5401">
        <ele>2128.98</ele>
        <time>2021-06-25T10:13:29Z</time>
      </trkpt>
      <trkpt lat="45.6215" lon="6.54008">
        <ele>2129.46</ele>
        <time>2021-06-25T10:13:42Z</time>
      </trkpt>
      <trkpt lat="45.62152" lon="6.54009">
        <ele>2130.9</ele>
        <time>2021-06-25T10:13:47Z</time>
      </trkpt>
      <trkpt lat="45.62151" lon="6.54009">
        <ele>2129.46</ele>
        <time>2021-06-25T10:13:49Z</time>
      </trkpt>
      <trkpt lat="45.62148" lon="6.54009">
        <ele>2130.42</ele>
        <time>2021-06-25T10:14:13Z</time>
      </trkpt>
      <trkpt lat="45.62148" lon="6.54009">
        <ele>2129.46</ele>
        <time>2021-06-25T10:14:41Z</time>
      </trkpt>
      <trkpt lat="45.62145" lon="6.54008">
        <ele>2126.09</ele>
        <time>2021-06-25T10:14:47Z</time>
      </trkpt>
      <trkpt lat="45.62145" lon="6.54008">
        <ele>2131.86</ele>
        <time>2021-06-25T10:14:48Z</time>
      </trkpt>
      <trkpt lat="45.62145" lon="6.54011">
        <ele>2127.05</ele>
        <time>2021-06-25T10:14:52Z</time>
      </trkpt>
      <trkpt lat="45.62145" lon="6.54012">
        <ele>2132.34</ele>
        <time>2021-06-25T10:14:53Z</time>
      </trkpt>
      <trkpt lat="45.62146" lon="6.54012">
        <ele>2128.02</ele>
        <time>2021-06-25T10:14:54Z</time>
      </trkpt>
      <trkpt lat="45.62146" lon="6.54013">
        <ele>2131.86</ele>
        <time>2021-06-25T10:14:55Z</time>
      </trkpt>
      <trkpt lat="45.62147" lon="6.54014">
        <ele>2128.5</ele>
        <time>2021-06-25T10:14:56Z</time>
      </trkpt>
      <trkpt lat="45.62145" lon="6.54024">
        <ele>2125.61</ele>
        <time>2021-06-25T10:15:10Z</time>
      </trkpt>
      <trkpt lat="45.62145" lon="6.54024">
        <ele>2135.23</ele>
        <time>2021-06-25T10:15:11Z</time>
      </trkpt>
      <trkpt lat="45.62145" lon="6.54025">
        <ele>2128.98</ele>
        <time>2021-06-25T10:15:12Z</time>
      </trkpt>
      <trkpt lat="45.62144" lon="6.54025">
        <ele>2125.61</ele>
        <time>2021-06-25T10:15:14Z</time>
      </trkpt>
      <trkpt lat="45.62144" lon="6.54026">
        <ele>2133.78</ele>
        <time>2021-06-25T10:15:15Z</time>
      </trkpt>
      <trkpt lat="45.62143" lon="6.54027">
        <ele>2128.5</ele>
        <time>2021-06-25T10:15:16Z</time>
      </trkpt>
      <trkpt lat="45.62144" lon="6.5403">
        <ele>2131.38</ele>
        <time>2021-06-25T10:15:18Z</time>
      </trkpt>
      <trkpt lat="45.62149" lon="6.54036">
        <ele>2132.34</ele>
        <time>2021-06-25T10:15:27Z</time>
      </trkpt>
      <trkpt lat="45.62151" lon="6.54038">
        <ele>2131.38</ele>
        <time>2021-06-25T10:15:29Z</time>
      </trkpt>
      <trkpt lat="45.62152" lon="6.5404">
        <ele>2130.42</ele>
        <time>2021-06-25T10:15:31Z</time>
      </trkpt>
      <trkpt lat="45.62156" lon="6.54057">
        <ele>2133.3</ele>
        <time>2021-06-25T10:15:46Z</time>
      </trkpt>
      <trkpt lat="45.62156" lon="6.54058">
        <ele>2133.3</ele>
        <time>2021-06-25T10:15:47Z</time>
      </trkpt>
      <trkpt lat="45.62155" lon="6.5406">
        <ele>2129.46</ele>
        <time>2021-06-25T10:15:48Z</time>
      </trkpt>
      <trkpt lat="45.62155" lon="6.5406">
        <ele>2135.71</ele>
        <time>2021-06-25T10:15:49Z</time>
      </trkpt>
      <trkpt lat="45.62153" lon="6.54061">
        <ele>2128.98</ele>
        <time>2021-06-25T10:15:51Z</time>
      </trkpt>
      <trkpt lat="45.62153" lon="6.54062">
        <ele>2136.67</ele>
        <time>2021-06-25T10:15:52Z</time>
      </trkpt>
      <trkpt lat="45.62152" lon="6.54063">
        <ele>2131.38</ele>
        <time>2021-06-25T10:15:53Z</time>
      </trkpt>
      <trkpt lat="45.62152" lon="6.54063">
        <ele>2136.19</ele>
        <time>2021-06-25T10:15:54Z</time>
      </trkpt>
      <trkpt lat="45.6215" lon="6.54063">
        <ele>2132.34</ele>
        <time>2021-06-25T10:16:06Z</time>
      </trkpt>
      <trkpt lat="45.62152" lon="6.54061">
        <ele>2132.82</ele>
        <time>2021-06-25T10:16:19Z</time>
      </trkpt>
      <trkpt lat="45.62152" lon="6.54062">
        <ele>2129.46</ele>
        <time>2021-06-25T10:16:20Z</time>
      </trkpt>
      <trkpt lat="45.62152" lon="6.54062">
        <ele>2135.23</ele>
        <time>2021-06-25T10:16:21Z</time>
      </trkpt>
      <trkpt lat="45.62151" lon="6.54062">
        <ele>2131.38</ele>
        <time>2021-06-25T10:16:22Z</time>
      </trkpt>
      <trkpt lat="45.6215" lon="6.54063">
        <ele>2134.74</ele>
        <time>2021-06-25T10:16:23Z</time>
      </trkpt>
      <trkpt lat="45.62149" lon="6.54064">
        <ele>2131.38</ele>
        <time>2021-06-25T10:16:26Z</time>
      </trkpt>
      <trkpt lat="45.62149" lon="6.54064">
        <ele>2127.05</ele>
        <time>2021-06-25T10:16:27Z</time>
      </trkpt>
      <trkpt lat="45.62149" lon="6.54065">
        <ele>2130.9</ele>
        <time>2021-06-25T10:16:28Z</time>
      </trkpt>
      <trkpt lat="45.62149" lon="6.54066">
        <ele>2141.47</ele>
        <time>2021-06-25T10:16:29Z</time>
      </trkpt>
      <trkpt lat="45.62149" lon="6.54067">
        <ele>2134.74</ele>
        <time>2021-06-25T10:16:30Z</time>
      </trkpt>
      <trkpt lat="45.6215" lon="6.54068">
        <ele>2135.71</ele>
        <time>2021-06-25T10:16:31Z</time>
      </trkpt>
      <trkpt lat="45.6216" lon="6.54079">
        <ele>2134.26</ele>
        <time>2021-06-25T10:16:45Z</time>
      </trkpt>
      <trkpt lat="45.62167" lon="6.54093">
        <ele>2131.86</ele>
        <time>2021-06-25T10:16:59Z</time>
      </trkpt>
      <trkpt lat="45.62173" lon="6.54103">
        <ele>2132.82</ele>
        <time>2021-06-25T10:17:08Z</time>
      </trkpt>
      <trkpt lat="45.62177" lon="6.54119">
        <ele>2132.34</ele>
        <time>2021-06-25T10:17:24Z</time>
      </trkpt>
      <trkpt lat="45.62178" lon="6.54122">
        <ele>2134.26</ele>
        <time>2021-06-25T10:17:27Z</time>
      </trkpt>
      <trkpt lat="45.62178" lon="6.54122">
        <ele>2130.9</ele>
        <time>2021-06-25T10:17:28Z</time>
      </trkpt>
      <trkpt lat="45.62178" lon="6.54129">
        <ele>2131.86</ele>
        <time>2021-06-25T10:17:34Z</time>
      </trkpt>
      <trkpt lat="45.62178" lon="6.54134">
        <ele>2128.98</ele>
        <time>2021-06-25T10:17:37Z</time>
      </trkpt>
      <trkpt lat="45.62178" lon="6.54136">
        <ele>2135.23</ele>
        <time>2021-06-25T10:17:38Z</time>
      </trkpt>
      <trkpt lat="45.62177" lon="6.54138">
        <ele>2128.02</ele>
        <time>2021-06-25T10:17:40Z</time>
      </trkpt>
      <trkpt lat="45.62177" lon="6.54139">
        <ele>2136.19</ele>
        <time>2021-06-25T10:17:41Z</time>
      </trkpt>
      <trkpt lat="45.62178" lon="6.54139">
        <ele>2132.34</ele>
        <time>2021-06-25T10:17:42Z</time>
      </trkpt>
      <trkpt lat="45.62178" lon="6.5414">
        <ele>2132.34</ele>
        <time>2021-06-25T10:17:48Z</time>
      </trkpt>
      <trkpt lat="45.62175" lon="6.54138">
        <ele>2131.86</ele>
        <time>2021-06-25T10:18:25Z</time>
      </trkpt>
      <trkpt lat="45.62175" lon="6.54135">
        <ele>2133.3</ele>
        <time>2021-06-25T10:18:47Z</time>
      </trkpt>
      <trkpt lat="45.62175" lon="6.54136">
        <ele>2131.86</ele>
        <time>2021-06-25T10:18:54Z</time>
      </trkpt>
      <trkpt lat="45.62175" lon="6.54138">
        <ele>2133.3</ele>
        <time>2021-06-25T10:19:08Z</time>
      </trkpt>
      <trkpt lat="45.62176" lon="6.5414">
        <ele>2131.38</ele>
        <time>2021-06-25T10:19:10Z</time>
      </trkpt>
      <trkpt lat="45.62177" lon="6.54141">
        <ele>2134.74</ele>
        <time>2021-06-25T10:19:11Z</time>
      </trkpt>
      <trkpt lat="45.62178" lon="6.54142">
        <ele>2130.9</ele>
        <time>2021-06-25T10:19:12Z</time>
      </trkpt>
      <trkpt lat="45.62179" lon="6.54144">
        <ele>2135.71</ele>
        <time>2021-06-25T10:19:14Z</time>
      </trkpt>
      <trkpt lat="45.62179" lon="6.54145">
        <ele>2130.42</ele>
        <time>2021-06-25T10:19:15Z</time>
      </trkpt>
      <trkpt lat="45.62179" lon="6.54146">
        <ele>2135.71</ele>
        <time>2021-06-25T10:19:16Z</time>
      </trkpt>
      <trkpt lat="45.62178" lon="6.54165">
        <ele>2134.26</ele>
        <time>2021-06-25T10:19:32Z</time>
      </trkpt>
      <trkpt lat="45.62177" lon="6.5417">
        <ele>2137.15</ele>
        <time>2021-06-25T10:19:38Z</time>
      </trkpt>
      <trkpt lat="45.62176" lon="6.54173">
        <ele>2132.82</ele>
        <time>2021-06-25T10:19:41Z</time>
      </trkpt>
      <trkpt lat="45.62176" lon="6.54174">
        <ele>2136.19</ele>
        <time>2021-06-25T10:19:42Z</time>
      </trkpt>
      <trkpt lat="45.62176" lon="6.54175">
        <ele>2131.38</ele>
        <time>2021-06-25T10:19:44Z</time>
      </trkpt>
      <trkpt lat="45.62175" lon="6.54176">
        <ele>2139.55</ele>
        <time>2021-06-25T10:19:45Z</time>
      </trkpt>
      <trkpt lat="45.62175" lon="6.54177">
        <ele>2135.23</ele>
        <time>2021-06-25T10:19:46Z</time>
      </trkpt>
      <trkpt lat="45.62178" lon="6.54185">
        <ele>2136.19</ele>
        <time>2021-06-25T10:20:00Z</time>
      </trkpt>
      <trkpt lat="45.62175" lon="6.54193">
        <ele>2134.26</ele>
        <time>2021-06-25T10:20:13Z</time>
      </trkpt>
      <trkpt lat="45.62173" lon="6.54198">
        <ele>2136.19</ele>
        <time>2021-06-25T10:20:17Z</time>
      </trkpt>
      <trkpt lat="45.62173" lon="6.54203">
        <ele>2132.82</ele>
        <time>2021-06-25T10:20:21Z</time>
      </trkpt>
      <trkpt lat="45.62173" lon="6.54205">
        <ele>2137.15</ele>
        <time>2021-06-25T10:20:22Z</time>
      </trkpt>
      <trkpt lat="45.62169" lon="6.54205">
        <ele>2133.78</ele>
        <time>2021-06-25T10:20:28Z</time>
      </trkpt>
      <trkpt lat="45.62169" lon="6.54222">
        <ele>2132.34</ele>
        <time>2021-06-25T10:20:42Z</time>
      </trkpt>
      <trkpt lat="45.62171" lon="6.54231">
        <ele>2128.98</ele>
        <time>2021-06-25T10:20:51Z</time>
      </trkpt>
      <trkpt lat="45.6217" lon="6.54232">
        <ele>2135.71</ele>
        <time>2021-06-25T10:20:52Z</time>
      </trkpt>
      <trkpt lat="45.62169" lon="6.54235">
        <ele>2133.78</ele>
        <time>2021-06-25T10:20:54Z</time>
      </trkpt>
      <trkpt lat="45.62166" lon="6.54242">
        <ele>2133.3</ele>
        <time>2021-06-25T10:21:00Z</time>
      </trkpt>
      <trkpt lat="45.62165" lon="6.54247">
        <ele>2132.34</ele>
        <time>2021-06-25T10:21:05Z</time>
      </trkpt>
      <trkpt lat="45.62165" lon="6.54248">
        <ele>2133.78</ele>
        <time>2021-06-25T10:21:06Z</time>
      </trkpt>
      <trkpt lat="45.62166" lon="6.54256">
        <ele>2133.3</ele>
        <time>2021-06-25T10:21:12Z</time>
      </trkpt>
      <trkpt lat="45.62165" lon="6.5426">
        <ele>2130.9</ele>
        <time>2021-06-25T10:21:17Z</time>
      </trkpt>
      <trkpt lat="45.62166" lon="6.54261">
        <ele>2126.09</ele>
        <time>2021-06-25T10:21:18Z</time>
      </trkpt>
      <trkpt lat="45.62166" lon="6.54262">
        <ele>2137.15</ele>
        <time>2021-06-25T10:21:19Z</time>
      </trkpt>
      <trkpt lat="45.62166" lon="6.54262">
        <ele>2130.42</ele>
        <time>2021-06-25T10:21:20Z</time>
      </trkpt>
      <trkpt lat="45.62166" lon="6.54263">
        <ele>2134.26</ele>
        <time>2021-06-25T10:21:21Z</time>
      </trkpt>
      <trkpt lat="45.62167" lon="6.54264">
        <ele>2128.5</ele>
        <time>2021-06-25T10:21:22Z</time>
      </trkpt>
      <trkpt lat="45.62167" lon="6.54265">
        <ele>2132.34</ele>
        <time>2021-06-25T10:21:23Z</time>
      </trkpt>
      <trkpt lat="45.62165" lon="6.54274">
        <ele>2131.86</ele>
        <time>2021-06-25T10:21:32Z</time>
      </trkpt>
      <trkpt lat="45.62163" lon="6.54287">
        <ele>2128.5</ele>
        <time>2021-06-25T10:21:43Z</time>
      </trkpt>
      <trkpt lat="45.62163" lon="6.54287">
        <ele>2131.38</ele>
        <time>2021-06-25T10:21:44Z</time>
      </trkpt>
      <trkpt lat="45.62162" lon="6.54288">
        <ele>2136.67</ele>
        <time>2021-06-25T10:21:45Z</time>
      </trkpt>
      <trkpt lat="45.62161" lon="6.54289">
        <ele>2132.82</ele>
        <time>2021-06-25T10:21:46Z</time>
      </trkpt>
      <trkpt lat="45.62158" lon="6.54294">
        <ele>2133.3</ele>
        <time>2021-06-25T10:21:52Z</time>
      </trkpt>
      <trkpt lat="45.62158" lon="6.54295">
        <ele>2130.42</ele>
        <time>2021-06-25T10:21:53Z</time>
      </trkpt>
      <trkpt lat="45.62155" lon="6.54298">
        <ele>2132.82</ele>
        <time>2021-06-25T10:21:59Z</time>
      </trkpt>
      <trkpt lat="45.62152" lon="6.543">
        <ele>2132.34</ele>
        <time>2021-06-25T10:22:01Z</time>
      </trkpt>
      <trkpt lat="45.62151" lon="6.54301">
        <ele>2125.61</ele>
        <time>2021-06-25T10:22:04Z</time>
      </trkpt>
      <trkpt lat="45.62151" lon="6.54301">
        <ele>2137.15</ele>
        <time>2021-06-25T10:22:05Z</time>
      </trkpt>
      <trkpt lat="45.62151" lon="6.54302">
        <ele>2133.78</ele>
        <time>2021-06-25T10:22:06Z</time>
      </trkpt>
      <trkpt lat="45.6215" lon="6.54302">
        <ele>2131.38</ele>
        <time>2021-06-25T10:22:08Z</time>
      </trkpt>
      <trkpt lat="45.62145" lon="6.54303">
        <ele>2126.57</ele>
        <time>2021-06-25T10:22:15Z</time>
      </trkpt>
      <trkpt lat="45.62145" lon="6.54303">
        <ele>2126.57</ele>
        <time>2021-06-25T10:22:16Z</time>
      </trkpt>
      <trkpt lat="45.62144" lon="6.54303">
        <ele>2133.78</ele>
        <time>2021-06-25T10:22:17Z</time>
      </trkpt>
      <trkpt lat="45.62142" lon="6.54304">
        <ele>2128.5</ele>
        <time>2021-06-25T10:22:24Z</time>
      </trkpt>
      <trkpt lat="45.62142" lon="6.54303">
        <ele>2131.86</ele>
        <time>2021-06-25T10:22:27Z</time>
      </trkpt>
      <trkpt lat="45.6214" lon="6.543">
        <ele>2132.82</ele>
        <time>2021-06-25T10:22:39Z</time>
      </trkpt>
      <trkpt lat="45.6214" lon="6.54301">
        <ele>2127.05</ele>
        <time>2021-06-25T10:22:41Z</time>
      </trkpt>
      <trkpt lat="45.6214" lon="6.54302">
        <ele>2135.71</ele>
        <time>2021-06-25T10:22:42Z</time>
      </trkpt>
      <trkpt lat="45.62141" lon="6.54302">
        <ele>2132.82</ele>
        <time>2021-06-25T10:22:43Z</time>
      </trkpt>
      <trkpt lat="45.62141" lon="6.54303">
        <ele>2131.86</ele>
        <time>2021-06-25T10:22:45Z</time>
      </trkpt>
      <trkpt lat="45.62142" lon="6.54306">
        <ele>2133.78</ele>
        <time>2021-06-25T10:23:07Z</time>
      </trkpt>
      <trkpt lat="45.62142" lon="6.54306">
        <ele>2131.86</ele>
        <time>2021-06-25T10:23:09Z</time>
      </trkpt>
      <trkpt lat="45.62142" lon="6.54306">
        <ele>2128.98</ele>
        <time>2021-06-25T10:23:15Z</time>
      </trkpt>
      <trkpt lat="45.62141" lon="6.54306">
        <ele>2123.69</ele>
        <time>2021-06-25T10:23:16Z</time>
      </trkpt>
      <trkpt lat="45.62141" lon="6.54307">
        <ele>2134.74</ele>
        <time>2021-06-25T10:23:17Z</time>
      </trkpt>
      <trkpt lat="45.62141" lon="6.54307">
        <ele>2134.74</ele>
        <time>2021-06-25T10:23:18Z</time>
      </trkpt>
      <trkpt lat="45.62141" lon="6.54307">
        <ele>2131.86</ele>
        <time>2021-06-25T10:23:22Z</time>
      </trkpt>
      <trkpt lat="45.62143" lon="6.54308">
        <ele>2133.3</ele>
        <time>2021-06-25T10:23:29Z</time>
      </trkpt>
      <trkpt lat="45.62143" lon="6.54307">
        <ele>2131.38</ele>
        <time>2021-06-25T10:23:31Z</time>
      </trkpt>
      <trkpt lat="45.62142" lon="6.54305">
        <ele>2127.53</ele>
        <time>2021-06-25T10:23:47Z</time>
      </trkpt>
      <trkpt lat="45.62142" lon="6.54305">
        <ele>2129.94</ele>
        <time>2021-06-25T10:23:48Z</time>
      </trkpt>
      <trkpt lat="45.62142" lon="6.54306">
        <ele>2132.82</ele>
        <time>2021-06-25T10:23:51Z</time>
      </trkpt>
      <trkpt lat="45.62142" lon="6.54306">
        <ele>2128.98</ele>
        <time>2021-06-25T10:23:54Z</time>
      </trkpt>
      <trkpt lat="45.62142" lon="6.54306">
        <ele>2133.3</ele>
        <time>2021-06-25T10:23:55Z</time>
      </trkpt>
      <trkpt lat="45.62142" lon="6.54306">
        <ele>2130.42</ele>
        <time>2021-06-25T10:23:56Z</time>
      </trkpt>
      <trkpt lat="45.62142" lon="6.54305">
        <ele>2133.78</ele>
        <time>2021-06-25T10:24:01Z</time>
      </trkpt>
      <trkpt lat="45.62142" lon="6.54305">
        <ele>2128.98</ele>
        <time>2021-06-25T10:24:02Z</time>
      </trkpt>
      <trkpt lat="45.62142" lon="6.54305">
        <ele>2134.26</ele>
        <time>2021-06-25T10:24:03Z</time>
      </trkpt>
      <trkpt lat="45.62142" lon="6.54305">
        <ele>2130.9</ele>
        <time>2021-06-25T10:24:05Z</time>
      </trkpt>
      <trkpt lat="45.62142" lon="6.54306">
        <ele>2130.9</ele>
        <time>2021-06-25T10:24:06Z</time>
      </trkpt>
      <trkpt lat="45.62141" lon="6.54307">
        <ele>2133.78</ele>
        <time>2021-06-25T10:24:09Z</time>
      </trkpt>
      <trkpt lat="45.62141" lon="6.54308">
        <ele>2129.94</ele>
        <time>2021-06-25T10:24:14Z</time>
      </trkpt>
      <trkpt lat="45.62141" lon="6.54308">
        <ele>2129.94</ele>
        <time>2021-06-25T10:24:15Z</time>
      </trkpt>
      <trkpt lat="45.62141" lon="6.54308">
        <ele>2132.82</ele>
        <time>2021-06-25T10:24:17Z</time>
      </trkpt>
      <trkpt lat="45.62142" lon="6.54309">
        <ele>2127.05</ele>
        <time>2021-06-25T10:24:22Z</time>
      </trkpt>
      <trkpt lat="45.62142" lon="6.54309">
        <ele>2131.38</ele>
        <time>2021-06-25T10:24:23Z</time>
      </trkpt>
      <trkpt lat="45.62142" lon="6.54308">
        <ele>2134.26</ele>
        <time>2021-06-25T10:24:27Z</time>
      </trkpt>
      <trkpt lat="45.62142" lon="6.54308">
        <ele>2134.26</ele>
        <time>2021-06-25T10:24:28Z</time>
      </trkpt>
      <trkpt lat="45.62143" lon="6.54308">
        <ele>2128.98</ele>
        <time>2021-06-25T10:24:30Z</time>
      </trkpt>
      <trkpt lat="45.62143" lon="6.54308">
        <ele>2128.98</ele>
        <time>2021-06-25T10:24:31Z</time>
      </trkpt>
      <trkpt lat="45.62143" lon="6.54308">
        <ele>2131.86</ele>
        <time>2021-06-25T10:24:33Z</time>
      </trkpt>
      <trkpt lat="45.62144" lon="6.54309">
        <ele>2133.78</ele>
        <time>2021-06-25T10:24:38Z</time>
      </trkpt>
      <trkpt lat="45.62144" lon="6.5431">
        <ele>2131.86</ele>
        <time>2021-06-25T10:24:40Z</time>
      </trkpt>
      <trkpt lat="45.62143" lon="6.54308">
        <ele>2124.17</ele>
        <time>2021-06-25T10:24:49Z</time>
      </trkpt>
      <trkpt lat="45.62142" lon="6.54308">
        <ele>2133.78</ele>
        <time>2021-06-25T10:24:50Z</time>
      </trkpt>
      <trkpt lat="45.62142" lon="6.54309">
        <ele>2130.9</ele>
        <time>2021-06-25T10:24:54Z</time>
      </trkpt>
      <trkpt lat="45.62141" lon="6.54308">
        <ele>2130.9</ele>
        <time>2021-06-25T10:25:27Z</time>
      </trkpt>
      <trkpt lat="45.62142" lon="6.54307">
        <ele>2130.9</ele>
        <time>2021-06-25T10:26:02Z</time>
      </trkpt>
      <trkpt lat="45.62143" lon="6.54309">
        <ele>2130.9</ele>
        <time>2021-06-25T10:26:20Z</time>
      </trkpt>
      <trkpt lat="45.62143" lon="6.54309">
        <ele>2130.42</ele>
        <time>2021-06-25T10:26:49Z</time>
      </trkpt>
      <trkpt lat="45.62143" lon="6.54311">
        <ele>2130.42</ele>
        <time>2021-06-25T10:27:24Z</time>
      </trkpt>
      <trkpt lat="45.62143" lon="6.54309">
        <ele>2130.42</ele>
        <time>2021-06-25T10:27:55Z</time>
      </trkpt>
      <trkpt lat="45.62144" lon="6.54308">
        <ele>2130.42</ele>
        <time>2021-06-25T10:28:31Z</time>
      </trkpt>
      <trkpt lat="45.62144" lon="6.54309">
        <ele>2130.9</ele>
        <time>2021-06-25T10:29:11Z</time>
      </trkpt>
      <trkpt lat="45.62142" lon="6.54309">
        <ele>2130.9</ele>
        <time>2021-06-25T10:29:43Z</time>
      </trkpt>
      <trkpt lat="45.62142" lon="6.54307">
        <ele>2130.9</ele>
        <time>2021-06-25T10:30:13Z</time>
      </trkpt>
      <trkpt lat="45.62142" lon="6.54307">
        <ele>2130.42</ele>
        <time>2021-06-25T10:30:50Z</time>
      </trkpt>
      <trkpt lat="45.62141" lon="6.54308">
        <ele>2130.9</ele>
        <time>2021-06-25T10:31:21Z</time>
      </trkpt>
      <trkpt lat="45.62141" lon="6.54307">
        <ele>2130.9</ele>
        <time>2021-06-25T10:31:51Z</time>
      </trkpt>
      <trkpt lat="45.62142" lon="6.54306">
        <ele>2130.9</ele>
        <time>2021-06-25T10:32:24Z</time>
      </trkpt>
      <trkpt lat="45.6214" lon="6.54307">
        <ele>2130.9</ele>
        <time>2021-06-25T10:32:56Z</time>
      </trkpt>
      <trkpt lat="45.62141" lon="6.54306">
        <ele>2131.38</ele>
        <time>2021-06-25T10:33:26Z</time>
      </trkpt>
      <trkpt lat="45.6214" lon="6.54307">
        <ele>2131.38</ele>
        <time>2021-06-25T10:34:03Z</time>
      </trkpt>
      <trkpt lat="45.62142" lon="6.54306">
        <ele>2131.38</ele>
        <time>2021-06-25T10:34:35Z</time>
      </trkpt>
      <trkpt lat="45.6214" lon="6.54308">
        <ele>2131.38</ele>
        <time>2021-06-25T10:35:09Z</time>
      </trkpt>
      <trkpt lat="45.62141" lon="6.54307">
        <ele>2131.86</ele>
        <time>2021-06-25T10:35:43Z</time>
      </trkpt>
      <trkpt lat="45.62142" lon="6.54308">
        <ele>2131.86</ele>
        <time>2021-06-25T10:36:18Z</time>
      </trkpt>
      <trkpt lat="45.6214" lon="6.54307">
        <ele>2131.86</ele>
        <time>2021-06-25T10:36:44Z</time>
      </trkpt>
      <trkpt lat="45.62142" lon="6.54306">
        <ele>2131.86</ele>
        <time>2021-06-25T10:37:18Z</time>
      </trkpt>
      <trkpt lat="45.62142" lon="6.54308">
        <ele>2131.86</ele>
        <time>2021-06-25T10:37:51Z</time>
      </trkpt>
      <trkpt lat="45.62141" lon="6.54308">
        <ele>2132.34</ele>
        <time>2021-06-25T10:38:19Z</time>
      </trkpt>
      <trkpt lat="45.62141" lon="6.54307">
        <ele>2132.34</ele>
        <time>2021-06-25T10:38:55Z</time>
      </trkpt>
      <trkpt lat="45.62142" lon="6.54308">
        <ele>2132.34</ele>
        <time>2021-06-25T10:39:19Z</time>
      </trkpt>
      <trkpt lat="45.62141" lon="6.54309">
        <ele>2131.86</ele>
        <time>2021-06-25T10:39:56Z</time>
      </trkpt>
      <trkpt lat="45.62138" lon="6.54309">
        <ele>2131.86</ele>
        <time>2021-06-25T10:40:28Z</time>
      </trkpt>
      <trkpt lat="45.62138" lon="6.54308">
        <ele>2131.86</ele>
        <time>2021-06-25T10:41:03Z</time>
      </trkpt>
      <trkpt lat="45.6214" lon="6.54308">
        <ele>2131.86</ele>
        <time>2021-06-25T10:41:37Z</time>
      </trkpt>
      <trkpt lat="45.62142" lon="6.54307">
        <ele>2132.34</ele>
        <time>2021-06-25T10:42:08Z</time>
      </trkpt>
      <trkpt lat="45.62141" lon="6.54308">
        <ele>2132.34</ele>
        <time>2021-06-25T10:42:43Z</time>
      </trkpt>
      <trkpt lat="45.6214" lon="6.54308">
        <ele>2132.34</ele>
        <time>2021-06-25T10:43:15Z</time>
      </trkpt>
      <trkpt lat="45.62139" lon="6.54307">
        <ele>2132.34</ele>
        <time>2021-06-25T10:43:50Z</time>
      </trkpt>
      <trkpt lat="45.62137" lon="6.54308">
        <ele>2132.34</ele>
        <time>2021-06-25T10:44:21Z</time>
      </trkpt>
      <trkpt lat="45.62137" lon="6.54307">
        <ele>2133.78</ele>
        <time>2021-06-25T10:44:51Z</time>
      </trkpt>
      <trkpt lat="45.62139" lon="6.54308">
        <ele>2133.78</ele>
        <time>2021-06-25T10:45:22Z</time>
      </trkpt>
      <trkpt lat="45.62143" lon="6.54307">
        <ele>2133.78</ele>
        <time>2021-06-25T10:45:52Z</time>
      </trkpt>
      <trkpt lat="45.6214" lon="6.54307">
        <ele>2133.78</ele>
        <time>2021-06-25T10:46:17Z</time>
      </trkpt>
      <trkpt lat="45.62141" lon="6.54308">
        <ele>2133.78</ele>
        <time>2021-06-25T10:46:49Z</time>
      </trkpt>
      <trkpt lat="45.6214" lon="6.54308">
        <ele>2134.26</ele>
        <time>2021-06-25T10:47:30Z</time>
      </trkpt>
      <trkpt lat="45.6214" lon="6.54308">
        <ele>2134.74</ele>
        <time>2021-06-25T10:48:07Z</time>
      </trkpt>
      <trkpt lat="45.62138" lon="6.54306">
        <ele>2134.74</ele>
        <time>2021-06-25T10:48:43Z</time>
      </trkpt>
      <trkpt lat="45.62138" lon="6.54306">
        <ele>2134.74</ele>
        <time>2021-06-25T10:49:06Z</time>
      </trkpt>
      <trkpt lat="45.6214" lon="6.54307">
        <ele>2134.74</ele>
        <time>2021-06-25T10:49:39Z</time>
      </trkpt>
      <trkpt lat="45.6214" lon="6.54307">
        <ele>2134.74</ele>
        <time>2021-06-25T10:50:06Z</time>
      </trkpt>
      <trkpt lat="45.62139" lon="6.54308">
        <ele>2134.74</ele>
        <time>2021-06-25T10:50:42Z</time>
      </trkpt>
      <trkpt lat="45.62141" lon="6.54308">
        <ele>2134.74</ele>
        <time>2021-06-25T10:51:10Z</time>
      </trkpt>
      <trkpt lat="45.6214" lon="6.54307">
        <ele>2135.23</ele>
        <time>2021-06-25T10:51:35Z</time>
      </trkpt>
      <trkpt lat="45.62141" lon="6.54308">
        <ele>2135.23</ele>
        <time>2021-06-25T10:51:58Z</time>
      </trkpt>
      <trkpt lat="45.62141" lon="6.54308">
        <ele>2135.23</ele>
        <time>2021-06-25T10:52:31Z</time>
      </trkpt>
      <trkpt lat="45.6214" lon="6.54307">
        <ele>2135.23</ele>
        <time>2021-06-25T10:53:01Z</time>
      </trkpt>
      <trkpt lat="45.62141" lon="6.54307">
        <ele>2135.71</ele>
        <time>2021-06-25T10:53:35Z</time>
      </trkpt>
      <trkpt lat="45.62142" lon="6.54306">
        <ele>2135.71</ele>
        <time>2021-06-25T10:54:03Z</time>
      </trkpt>
      <trkpt lat="45.62141" lon="6.54306">
        <ele>2135.71</ele>
        <time>2021-06-25T10:54:32Z</time>
      </trkpt>
      <trkpt lat="45.6214" lon="6.54308">
        <ele>2135.71</ele>
        <time>2021-06-25T10:55:05Z</time>
      </trkpt>
      <trkpt lat="45.62142" lon="6.54307">
        <ele>2135.71</ele>
        <time>2021-06-25T10:55:30Z</time>
      </trkpt>
      <trkpt lat="45.62141" lon="6.54306">
        <ele>2135.71</ele>
        <time>2021-06-25T10:55:54Z</time>
      </trkpt>
      <trkpt lat="45.62142" lon="6.54306">
        <ele>2135.71</ele>
        <time>2021-06-25T10:56:24Z</time>
      </trkpt>
      <trkpt lat="45.62141" lon="6.54308">
        <ele>2135.71</ele>
        <time>2021-06-25T10:56:58Z</time>
      </trkpt>
      <trkpt lat="45.6214" lon="6.54307">
        <ele>2135.71</ele>
        <time>2021-06-25T10:57:28Z</time>
      </trkpt>
      <trkpt lat="45.62139" lon="6.54307">
        <ele>2135.71</ele>
        <time>2021-06-25T10:57:58Z</time>
      </trkpt>
      <trkpt lat="45.6214" lon="6.54308">
        <ele>2136.19</ele>
        <time>2021-06-25T10:58:27Z</time>
      </trkpt>
      <trkpt lat="45.62139" lon="6.54308">
        <ele>2136.19</ele>
        <time>2021-06-25T10:58:51Z</time>
      </trkpt>
      <trkpt lat="45.6214" lon="6.54307">
        <ele>2136.19</ele>
        <time>2021-06-25T10:59:24Z</time>
      </trkpt>
      <trkpt lat="45.62141" lon="6.54307">
        <ele>2136.19</ele>
        <time>2021-06-25T10:59:57Z</time>
      </trkpt>
      <trkpt lat="45.62139" lon="6.54306">
        <ele>2136.19</ele>
        <time>2021-06-25T11:00:27Z</time>
      </trkpt>
      <trkpt lat="45.6214" lon="6.54308">
        <ele>2136.19</ele>
        <time>2021-06-25T11:00:59Z</time>
      </trkpt>
      <trkpt lat="45.6214" lon="6.54307">
        <ele>2136.19</ele>
        <time>2021-06-25T11:01:30Z</time>
      </trkpt>
      <trkpt lat="45.62141" lon="6.54308">
        <ele>2136.67</ele>
        <time>2021-06-25T11:01:58Z</time>
      </trkpt>
      <trkpt lat="45.62139" lon="6.54306">
        <ele>2136.67</ele>
        <time>2021-06-25T11:02:36Z</time>
      </trkpt>
      <trkpt lat="45.62139" lon="6.54308">
        <ele>2136.67</ele>
        <time>2021-06-25T11:03:12Z</time>
      </trkpt>
      <trkpt lat="45.62138" lon="6.54308">
        <ele>2136.67</ele>
        <time>2021-06-25T11:03:45Z</time>
      </trkpt>
      <trkpt lat="45.6214" lon="6.54308">
        <ele>2136.67</ele>
        <time>2021-06-25T11:04:11Z</time>
      </trkpt>
      <trkpt lat="45.62139" lon="6.54309">
        <ele>2135.71</ele>
        <time>2021-06-25T11:04:39Z</time>
      </trkpt>
      <trkpt lat="45.62139" lon="6.54309">
        <ele>2135.71</ele>
        <time>2021-06-25T11:05:17Z</time>
      </trkpt>
      <trkpt lat="45.62139" lon="6.54307">
        <ele>2135.71</ele>
        <time>2021-06-25T11:05:52Z</time>
      </trkpt>
      <trkpt lat="45.62139" lon="6.54308">
        <ele>2135.71</ele>
        <time>2021-06-25T11:06:20Z</time>
      </trkpt>
      <trkpt lat="45.6214" lon="6.54308">
        <ele>2137.15</ele>
        <time>2021-06-25T11:06:25Z</time>
      </trkpt>
      <trkpt lat="45.62141" lon="6.54308">
        <ele>2137.63</ele>
        <time>2021-06-25T11:06:40Z</time>
      </trkpt>
      <trkpt lat="45.62144" lon="6.54309">
        <ele>2137.63</ele>
        <time>2021-06-25T11:06:52Z</time>
      </trkpt>
      <trkpt lat="45.62146" lon="6.54319">
        <ele>2138.11</ele>
        <time>2021-06-25T11:07:04Z</time>
      </trkpt>
      <trkpt lat="45.6215" lon="6.54324">
        <ele>2139.55</ele>
        <time>2021-06-25T11:07:18Z</time>
      </trkpt>
      <trkpt lat="45.62152" lon="6.54326">
        <ele>2140.99</ele>
        <time>2021-06-25T11:07:32Z</time>
      </trkpt>
      <trkpt lat="45.62154" lon="6.54333">
        <ele>2143.4</ele>
        <time>2021-06-25T11:07:50Z</time>
      </trkpt>
      <trkpt lat="45.62155" lon="6.54339">
        <ele>2144.84</ele>
        <time>2021-06-25T11:08:05Z</time>
      </trkpt>
      <trkpt lat="45.62154" lon="6.54342">
        <ele>2145.32</ele>
        <time>2021-06-25T11:08:22Z</time>
      </trkpt>
      <trkpt lat="45.62158" lon="6.54342">
        <ele>2146.28</ele>
        <time>2021-06-25T11:08:42Z</time>
      </trkpt>
      <trkpt lat="45.62159" lon="6.5435">
        <ele>2148.2</ele>
        <time>2021-06-25T11:08:57Z</time>
      </trkpt>
      <trkpt lat="45.62154" lon="6.54357">
        <ele>2149.65</ele>
        <time>2021-06-25T11:09:10Z</time>
      </trkpt>
      <trkpt lat="45.6215" lon="6.54362">
        <ele>2150.61</ele>
        <time>2021-06-25T11:09:24Z</time>
      </trkpt>
      <trkpt lat="45.62148" lon="6.54369">
        <ele>2151.57</ele>
        <time>2021-06-25T11:09:37Z</time>
      </trkpt>
      <trkpt lat="45.62144" lon="6.54378">
        <ele>2153.49</ele>
        <time>2021-06-25T11:09:49Z</time>
      </trkpt>
      <trkpt lat="45.62143" lon="6.54389">
        <ele>2154.93</ele>
        <time>2021-06-25T11:10:03Z</time>
      </trkpt>
      <trkpt lat="45.6215" lon="6.54399">
        <ele>2155.89</ele>
        <time>2021-06-25T11:10:17Z</time>
      </trkpt>
      <trkpt lat="45.62156" lon="6.5441">
        <ele>2155.89</ele>
        <time>2021-06-25T11:10:32Z</time>
      </trkpt>
      <trkpt lat="45.6216" lon="6.5442">
        <ele>2156.37</ele>
        <time>2021-06-25T11:10:46Z</time>
      </trkpt>
      <trkpt lat="45.62159" lon="6.54434">
        <ele>2157.82</ele>
        <time>2021-06-25T11:11:01Z</time>
      </trkpt>
      <trkpt lat="45.62164" lon="6.54439">
        <ele>2158.78</ele>
        <time>2021-06-25T11:11:16Z</time>
      </trkpt>
      <trkpt lat="45.62159" lon="6.54445">
        <ele>2155.89</ele>
        <time>2021-06-25T11:11:28Z</time>
      </trkpt>
      <trkpt lat="45.62155" lon="6.54456">
        <ele>2154.93</ele>
        <time>2021-06-25T11:11:40Z</time>
      </trkpt>
      <trkpt lat="45.62153" lon="6.54469">
        <ele>2153.49</ele>
        <time>2021-06-25T11:11:55Z</time>
      </trkpt>
      <trkpt lat="45.62153" lon="6.54482">
        <ele>2153.01</ele>
        <time>2021-06-25T11:12:08Z</time>
      </trkpt>
      <trkpt lat="45.62154" lon="6.5449">
        <ele>2152.05</ele>
        <time>2021-06-25T11:12:19Z</time>
      </trkpt>
      <trkpt lat="45.62151" lon="6.54495">
        <ele>2150.13</ele>
        <time>2021-06-25T11:12:31Z</time>
      </trkpt>
      <trkpt lat="45.62153" lon="6.54504">
        <ele>2148.68</ele>
        <time>2021-06-25T11:12:45Z</time>
      </trkpt>
      <trkpt lat="45.62154" lon="6.54509">
        <ele>2148.68</ele>
        <time>2021-06-25T11:13:02Z</time>
      </trkpt>
      <trkpt lat="45.62155" lon="6.54513">
        <ele>2150.13</ele>
        <time>2021-06-25T11:13:08Z</time>
      </trkpt>
      <trkpt lat="45.6216" lon="6.54522">
        <ele>2150.61</ele>
        <time>2021-06-25T11:13:20Z</time>
      </trkpt>
      <trkpt lat="45.62162" lon="6.54525">
        <ele>2150.61</ele>
        <time>2021-06-25T11:13:25Z</time>
      </trkpt>
      <trkpt lat="45.62166" lon="6.54537">
        <ele>2151.09</ele>
        <time>2021-06-25T11:13:39Z</time>
      </trkpt>
      <trkpt lat="45.62171" lon="6.54542">
        <ele>2152.53</ele>
        <time>2021-06-25T11:13:52Z</time>
      </trkpt>
      <trkpt lat="45.62175" lon="6.54551">
        <ele>2153.49</ele>
        <time>2021-06-25T11:14:04Z</time>
      </trkpt>
      <trkpt lat="45.6218" lon="6.54558">
        <ele>2154.45</ele>
        <time>2021-06-25T11:14:15Z</time>
      </trkpt>
      <trkpt lat="45.62181" lon="6.5456">
        <ele>2154.45</ele>
        <time>2021-06-25T11:14:17Z</time>
      </trkpt>
      <trkpt lat="45.62189" lon="6.54569">
        <ele>2155.89</ele>
        <time>2021-06-25T11:14:34Z</time>
      </trkpt>
      <trkpt lat="45.62194" lon="6.54578">
        <ele>2157.34</ele>
        <time>2021-06-25T11:14:49Z</time>
      </trkpt>
      <trkpt lat="45.62198" lon="6.54587">
        <ele>2158.3</ele>
        <time>2021-06-25T11:15:00Z</time>
      </trkpt>
      <trkpt lat="45.62201" lon="6.54593">
        <ele>2158.3</ele>
        <time>2021-06-25T11:15:13Z</time>
      </trkpt>
      <trkpt lat="45.62199" lon="6.54599">
        <ele>2156.86</ele>
        <time>2021-06-25T11:15:27Z</time>
      </trkpt>
      <trkpt lat="45.62198" lon="6.54608">
        <ele>2155.89</ele>
        <time>2021-06-25T11:15:39Z</time>
      </trkpt>
      <trkpt lat="45.62196" lon="6.54614">
        <ele>2154.93</ele>
        <time>2021-06-25T11:15:52Z</time>
      </trkpt>
      <trkpt lat="45.62199" lon="6.54619">
        <ele>2152.53</ele>
        <time>2021-06-25T11:16:06Z</time>
      </trkpt>
      <trkpt lat="45.622" lon="6.54625">
        <ele>2150.61</ele>
        <time>2021-06-25T11:16:18Z</time>
      </trkpt>
      <trkpt lat="45.622" lon="6.54625">
        <ele>2150.61</ele>
        <time>2021-06-25T11:16:31Z</time>
      </trkpt>
      <trkpt lat="45.622" lon="6.54629">
        <ele>2149.65</ele>
        <time>2021-06-25T11:16:48Z</time>
      </trkpt>
      <trkpt lat="45.62202" lon="6.54631">
        <ele>2148.2</ele>
        <time>2021-06-25T11:17:08Z</time>
      </trkpt>
      <trkpt lat="45.622" lon="6.54636">
        <ele>2147.72</ele>
        <time>2021-06-25T11:17:19Z</time>
      </trkpt>
      <trkpt lat="45.62202" lon="6.54642">
        <ele>2145.32</ele>
        <time>2021-06-25T11:17:33Z</time>
      </trkpt>
      <trkpt lat="45.62204" lon="6.54655">
        <ele>2142.92</ele>
        <time>2021-06-25T11:17:49Z</time>
      </trkpt>
      <trkpt lat="45.62204" lon="6.54661">
        <ele>2144.36</ele>
        <time>2021-06-25T11:17:55Z</time>
      </trkpt>
      <trkpt lat="45.62204" lon="6.54666">
        <ele>2144.36</ele>
        <time>2021-06-25T11:18:07Z</time>
      </trkpt>
      <trkpt lat="45.62202" lon="6.5467">
        <ele>2142.44</ele>
        <time>2021-06-25T11:18:21Z</time>
      </trkpt>
      <trkpt lat="45.62204" lon="6.54677">
        <ele>2140.99</ele>
        <time>2021-06-25T11:18:34Z</time>
      </trkpt>
      <trkpt lat="45.62207" lon="6.54679">
        <ele>2139.07</ele>
        <time>2021-06-25T11:18:46Z</time>
      </trkpt>
      <trkpt lat="45.6221" lon="6.5468">
        <ele>2137.63</ele>
        <time>2021-06-25T11:19:01Z</time>
      </trkpt>
      <trkpt lat="45.62211" lon="6.54679">
        <ele>2137.15</ele>
        <time>2021-06-25T11:19:17Z</time>
      </trkpt>
      <trkpt lat="45.62214" lon="6.54675">
        <ele>2136.67</ele>
        <time>2021-06-25T11:19:32Z</time>
      </trkpt>
      <trkpt lat="45.62215" lon="6.54678">
        <ele>2135.71</ele>
        <time>2021-06-25T11:19:48Z</time>
      </trkpt>
      <trkpt lat="45.62213" lon="6.54687">
        <ele>2134.74</ele>
        <time>2021-06-25T11:20:01Z</time>
      </trkpt>
      <trkpt lat="45.62209" lon="6.54692">
        <ele>2134.74</ele>
        <time>2021-06-25T11:20:26Z</time>
      </trkpt>
      <trkpt lat="45.6221" lon="6.54695">
        <ele>2134.26</ele>
        <time>2021-06-25T11:20:53Z</time>
      </trkpt>
      <trkpt lat="45.62212" lon="6.54701">
        <ele>2132.82</ele>
        <time>2021-06-25T11:21:05Z</time>
      </trkpt>
      <trkpt lat="45.62212" lon="6.54709">
        <ele>2131.86</ele>
        <time>2021-06-25T11:21:17Z</time>
      </trkpt>
      <trkpt lat="45.62211" lon="6.54718">
        <ele>2129.94</ele>
        <time>2021-06-25T11:21:27Z</time>
      </trkpt>
      <trkpt lat="45.62211" lon="6.54733">
        <ele>2130.42</ele>
        <time>2021-06-25T11:21:41Z</time>
      </trkpt>
      <trkpt lat="45.62212" lon="6.54733">
        <ele>2130.42</ele>
        <time>2021-06-25T11:21:42Z</time>
      </trkpt>
      <trkpt lat="45.6221" lon="6.54739">
        <ele>2129.46</ele>
        <time>2021-06-25T11:21:53Z</time>
      </trkpt>
      <trkpt lat="45.6221" lon="6.5474">
        <ele>2128.02</ele>
        <time>2021-06-25T11:22:04Z</time>
      </trkpt>
      <trkpt lat="45.62214" lon="6.54752">
        <ele>2128.5</ele>
        <time>2021-06-25T11:22:16Z</time>
      </trkpt>
      <trkpt lat="45.62215" lon="6.54752">
        <ele>2128.5</ele>
        <time>2021-06-25T11:22:17Z</time>
      </trkpt>
      <trkpt lat="45.62218" lon="6.54762">
        <ele>2128.02</ele>
        <time>2021-06-25T11:22:30Z</time>
      </trkpt>
      <trkpt lat="45.62222" lon="6.54774">
        <ele>2127.05</ele>
        <time>2021-06-25T11:22:42Z</time>
      </trkpt>
      <trkpt lat="45.62225" lon="6.54791">
        <ele>2126.09</ele>
        <time>2021-06-25T11:22:56Z</time>
      </trkpt>
      <trkpt lat="45.62228" lon="6.54808">
        <ele>2125.13</ele>
        <time>2021-06-25T11:23:11Z</time>
      </trkpt>
      <trkpt lat="45.62232" lon="6.54824">
        <ele>2122.73</ele>
        <time>2021-06-25T11:23:26Z</time>
      </trkpt>
      <trkpt lat="45.62237" lon="6.54827">
        <ele>2122.73</ele>
        <time>2021-06-25T11:23:32Z</time>
      </trkpt>
      <trkpt lat="45.62248" lon="6.5484">
        <ele>2122.25</ele>
        <time>2021-06-25T11:23:48Z</time>
      </trkpt>
      <trkpt lat="45.62259" lon="6.54852">
        <ele>2121.77</ele>
        <time>2021-06-25T11:24:04Z</time>
      </trkpt>
      <trkpt lat="45.62263" lon="6.54861">
        <ele>2122.73</ele>
        <time>2021-06-25T11:24:13Z</time>
      </trkpt>
      <trkpt lat="45.62267" lon="6.5487">
        <ele>2123.21</ele>
        <time>2021-06-25T11:24:29Z</time>
      </trkpt>
      <trkpt lat="45.62263" lon="6.54879">
        <ele>2120.32</ele>
        <time>2021-06-25T11:24:42Z</time>
      </trkpt>
      <trkpt lat="45.62262" lon="6.54882">
        <ele>2120.32</ele>
        <time>2021-06-25T11:24:44Z</time>
      </trkpt>
      <trkpt lat="45.62266" lon="6.54903">
        <ele>2119.36</ele>
        <time>2021-06-25T11:25:00Z</time>
      </trkpt>
      <trkpt lat="45.62275" lon="6.54914">
        <ele>2118.4</ele>
        <time>2021-06-25T11:25:16Z</time>
      </trkpt>
      <trkpt lat="45.62277" lon="6.54927">
        <ele>2119.84</ele>
        <time>2021-06-25T11:25:30Z</time>
      </trkpt>
      <trkpt lat="45.62282" lon="6.54937">
        <ele>2122.25</ele>
        <time>2021-06-25T11:25:47Z</time>
      </trkpt>
      <trkpt lat="45.62283" lon="6.54946">
        <ele>2123.21</ele>
        <time>2021-06-25T11:26:01Z</time>
      </trkpt>
      <trkpt lat="45.62286" lon="6.54958">
        <ele>2126.09</ele>
        <time>2021-06-25T11:26:19Z</time>
      </trkpt>
      <trkpt lat="45.62288" lon="6.54966">
        <ele>2128.5</ele>
        <time>2021-06-25T11:26:36Z</time>
      </trkpt>
      <trkpt lat="45.6229" lon="6.54972">
        <ele>2129.94</ele>
        <time>2021-06-25T11:26:50Z</time>
      </trkpt>
      <trkpt lat="45.62291" lon="6.54986">
        <ele>2131.86</ele>
        <time>2021-06-25T11:27:06Z</time>
      </trkpt>
      <trkpt lat="45.62293" lon="6.55005">
        <ele>2133.78</ele>
        <time>2021-06-25T11:27:22Z</time>
      </trkpt>
      <trkpt lat="45.62298" lon="6.55019">
        <ele>2133.78</ele>
        <time>2021-06-25T11:27:37Z</time>
      </trkpt>
      <trkpt lat="45.62301" lon="6.55032">
        <ele>2134.26</ele>
        <time>2021-06-25T11:27:51Z</time>
      </trkpt>
      <trkpt lat="45.62301" lon="6.55044">
        <ele>2135.23</ele>
        <time>2021-06-25T11:28:05Z</time>
      </trkpt>
      <trkpt lat="45.623" lon="6.55047">
        <ele>2135.23</ele>
        <time>2021-06-25T11:28:17Z</time>
      </trkpt>
      <trkpt lat="45.62299" lon="6.55047">
        <ele>2135.23</ele>
        <time>2021-06-25T11:28:49Z</time>
      </trkpt>
      <trkpt lat="45.62299" lon="6.55047">
        <ele>2135.23</ele>
        <time>2021-06-25T11:29:11Z</time>
      </trkpt>
      <trkpt lat="45.62299" lon="6.55048">
        <ele>2135.23</ele>
        <time>2021-06-25T11:29:34Z</time>
      </trkpt>
      <trkpt lat="45.62299" lon="6.55052">
        <ele>2135.71</ele>
        <time>2021-06-25T11:30:06Z</time>
      </trkpt>
      <trkpt lat="45.62299" lon="6.55065">
        <ele>2135.71</ele>
        <time>2021-06-25T11:30:21Z</time>
      </trkpt>
      <trkpt lat="45.62305" lon="6.55071">
        <ele>2135.71</ele>
        <time>2021-06-25T11:30:35Z</time>
      </trkpt>
      <trkpt lat="45.6231" lon="6.5508">
        <ele>2137.63</ele>
        <time>2021-06-25T11:30:49Z</time>
      </trkpt>
      <trkpt lat="45.62317" lon="6.55083">
        <ele>2139.07</ele>
        <time>2021-06-25T11:31:01Z</time>
      </trkpt>
      <trkpt lat="45.62321" lon="6.55082">
        <ele>2138.11</ele>
        <time>2021-06-25T11:31:13Z</time>
      </trkpt>
      <trkpt lat="45.62324" lon="6.55092">
        <ele>2136.19</ele>
        <time>2021-06-25T11:31:27Z</time>
      </trkpt>
      <trkpt lat="45.62321" lon="6.55102">
        <ele>2134.26</ele>
        <time>2021-06-25T11:31:39Z</time>
      </trkpt>
      <trkpt lat="45.62321" lon="6.55108">
        <ele>2133.3</ele>
        <time>2021-06-25T11:31:50Z</time>
      </trkpt>
      <trkpt lat="45.62326" lon="6.55112">
        <ele>2130.9</ele>
        <time>2021-06-25T11:32:02Z</time>
      </trkpt>
      <trkpt lat="45.6233" lon="6.55116">
        <ele>2129.94</ele>
        <time>2021-06-25T11:32:14Z</time>
      </trkpt>
      <trkpt lat="45.62333" lon="6.55125">
        <ele>2128.98</ele>
        <time>2021-06-25T11:32:27Z</time>
      </trkpt>
      <trkpt lat="45.62335" lon="6.55132">
        <ele>2128.98</ele>
        <time>2021-06-25T11:32:41Z</time>
      </trkpt>
      <trkpt lat="45.6234" lon="6.55138">
        <ele>2128.02</ele>
        <time>2021-06-25T11:32:58Z</time>
      </trkpt>
      <trkpt lat="45.62342" lon="6.55148">
        <ele>2128.02</ele>
        <time>2021-06-25T11:33:10Z</time>
      </trkpt>
      <trkpt lat="45.62346" lon="6.55153">
        <ele>2129.46</ele>
        <time>2021-06-25T11:33:23Z</time>
      </trkpt>
      <trkpt lat="45.62345" lon="6.55161">
        <ele>2129.94</ele>
        <time>2021-06-25T11:33:36Z</time>
      </trkpt>
      <trkpt lat="45.62347" lon="6.55166">
        <ele>2131.86</ele>
        <time>2021-06-25T11:33:49Z</time>
      </trkpt>
      <trkpt lat="45.62351" lon="6.5517">
        <ele>2132.34</ele>
        <time>2021-06-25T11:34:03Z</time>
      </trkpt>
      <trkpt lat="45.62353" lon="6.55167">
        <ele>2133.3</ele>
        <time>2021-06-25T11:34:18Z</time>
      </trkpt>
      <trkpt lat="45.62358" lon="6.55168">
        <ele>2135.23</ele>
        <time>2021-06-25T11:34:32Z</time>
      </trkpt>
      <trkpt lat="45.6236" lon="6.5517">
        <ele>2133.78</ele>
        <time>2021-06-25T11:34:36Z</time>
      </trkpt>
      <trkpt lat="45.62363" lon="6.55174">
        <ele>2132.82</ele>
        <time>2021-06-25T11:34:49Z</time>
      </trkpt>
      <trkpt lat="45.62366" lon="6.55182">
        <ele>2130.42</ele>
        <time>2021-06-25T11:35:01Z</time>
      </trkpt>
      <trkpt lat="45.62375" lon="6.55203">
        <ele>2130.42</ele>
        <time>2021-06-25T11:35:19Z</time>
      </trkpt>
      <trkpt lat="45.6238" lon="6.55208">
        <ele>2130.42</ele>
        <time>2021-06-25T11:35:32Z</time>
      </trkpt>
      <trkpt lat="45.62383" lon="6.55213">
        <ele>2129.94</ele>
        <time>2021-06-25T11:35:46Z</time>
      </trkpt>
      <trkpt lat="45.62384" lon="6.55217">
        <ele>2128.02</ele>
        <time>2021-06-25T11:36:00Z</time>
      </trkpt>
      <trkpt lat="45.62389" lon="6.55226">
        <ele>2126.09</ele>
        <time>2021-06-25T11:36:12Z</time>
      </trkpt>
      <trkpt lat="45.62391" lon="6.55239">
        <ele>2125.13</ele>
        <time>2021-06-25T11:36:24Z</time>
      </trkpt>
      <trkpt lat="45.62395" lon="6.55245">
        <ele>2125.13</ele>
        <time>2021-06-25T11:36:36Z</time>
      </trkpt>
      <trkpt lat="45.62396" lon="6.55252">
        <ele>2123.21</ele>
        <time>2021-06-25T11:36:50Z</time>
      </trkpt>
      <trkpt lat="45.62397" lon="6.55257">
        <ele>2123.21</ele>
        <time>2021-06-25T11:36:54Z</time>
      </trkpt>
      <trkpt lat="45.62397" lon="6.55269">
        <ele>2121.77</ele>
        <time>2021-06-25T11:37:04Z</time>
      </trkpt>
      <trkpt lat="45.62404" lon="6.55276">
        <ele>2120.32</ele>
        <time>2021-06-25T11:37:14Z</time>
      </trkpt>
      <trkpt lat="45.62408" lon="6.55283">
        <ele>2118.88</ele>
        <time>2021-06-25T11:37:21Z</time>
      </trkpt>
      <trkpt lat="45.6241" lon="6.55292">
        <ele>2118.4</ele>
        <time>2021-06-25T11:37:27Z</time>
      </trkpt>
      <trkpt lat="45.62411" lon="6.55311">
        <ele>2118.4</ele>
        <time>2021-06-25T11:37:41Z</time>
      </trkpt>
      <trkpt lat="45.62412" lon="6.55319">
        <ele>2119.84</ele>
        <time>2021-06-25T11:37:49Z</time>
      </trkpt>
      <trkpt lat="45.62415" lon="6.55328">
        <ele>2120.32</ele>
        <time>2021-06-25T11:37:57Z</time>
      </trkpt>
      <trkpt lat="45.62421" lon="6.55348">
        <ele>2121.29</ele>
        <time>2021-06-25T11:38:15Z</time>
      </trkpt>
      <trkpt lat="45.62425" lon="6.55365">
        <ele>2121.29</ele>
        <time>2021-06-25T11:38:29Z</time>
      </trkpt>
      <trkpt lat="45.62429" lon="6.55381">
        <ele>2121.77</ele>
        <time>2021-06-25T11:38:42Z</time>
      </trkpt>
      <trkpt lat="45.62429" lon="6.55385">
        <ele>2121.77</ele>
        <time>2021-06-25T11:38:45Z</time>
      </trkpt>
      <trkpt lat="45.62431" lon="6.55395">
        <ele>2121.77</ele>
        <time>2021-06-25T11:38:53Z</time>
      </trkpt>
      <trkpt lat="45.62432" lon="6.55408">
        <ele>2121.77</ele>
        <time>2021-06-25T11:39:03Z</time>
      </trkpt>
      <trkpt lat="45.62432" lon="6.55428">
        <ele>2121.77</ele>
        <time>2021-06-25T11:39:18Z</time>
      </trkpt>
      <trkpt lat="45.62436" lon="6.55438">
        <ele>2121.77</ele>
        <time>2021-06-25T11:39:27Z</time>
      </trkpt>
      <trkpt lat="45.62435" lon="6.55439">
        <ele>2122.25</ele>
        <time>2021-06-25T11:39:33Z</time>
      </trkpt>
      <trkpt lat="45.62432" lon="6.55438">
        <ele>2122.25</ele>
        <time>2021-06-25T11:39:51Z</time>
      </trkpt>
      <trkpt lat="45.62433" lon="6.55439">
        <ele>2122.25</ele>
        <time>2021-06-25T11:40:29Z</time>
      </trkpt>
      <trkpt lat="45.62433" lon="6.55439">
        <ele>2123.69</ele>
        <time>2021-06-25T11:40:58Z</time>
      </trkpt>
      <trkpt lat="45.62432" lon="6.5544">
        <ele>2122.25</ele>
        <time>2021-06-25T11:41:20Z</time>
      </trkpt>
      <trkpt lat="45.62434" lon="6.55439">
        <ele>2121.77</ele>
        <time>2021-06-25T11:41:24Z</time>
      </trkpt>
      <trkpt lat="45.62439" lon="6.55437">
        <ele>2121.77</ele>
        <time>2021-06-25T11:41:40Z</time>
      </trkpt>
      <trkpt lat="45.62438" lon="6.55437">
        <ele>2123.21</ele>
        <time>2021-06-25T11:41:51Z</time>
      </trkpt>
      <trkpt lat="45.62438" lon="6.55437">
        <ele>2121.77</ele>
        <time>2021-06-25T11:42:07Z</time>
      </trkpt>
      <trkpt lat="45.62437" lon="6.55438">
        <ele>2122.73</ele>
        <time>2021-06-25T11:42:34Z</time>
      </trkpt>
      <trkpt lat="45.62436" lon="6.55438">
        <ele>2121.29</ele>
        <time>2021-06-25T11:42:59Z</time>
      </trkpt>
      <trkpt lat="45.62434" lon="6.55439">
        <ele>2121.29</ele>
        <time>2021-06-25T11:43:31Z</time>
      </trkpt>
      <trkpt lat="45.62435" lon="6.55438">
        <ele>2121.29</ele>
        <time>2021-06-25T11:43:59Z</time>
      </trkpt>
      <trkpt lat="45.62434" lon="6.55438">
        <ele>2121.29</ele>
        <time>2021-06-25T11:44:26Z</time>
      </trkpt>
      <trkpt lat="45.62436" lon="6.55438">
        <ele>2121.29</ele>
        <time>2021-06-25T11:44:56Z</time>
      </trkpt>
      <trkpt lat="45.62435" lon="6.55439">
        <ele>2121.29</ele>
        <time>2021-06-25T11:45:19Z</time>
      </trkpt>
      <trkpt lat="45.62435" lon="6.55438">
        <ele>2121.29</ele>
        <time>2021-06-25T11:45:43Z</time>
      </trkpt>
      <trkpt lat="45.62434" lon="6.55441">
        <ele>2121.29</ele>
        <time>2021-06-25T11:46:11Z</time>
      </trkpt>
      <trkpt lat="45.62434" lon="6.5544">
        <ele>2121.29</ele>
        <time>2021-06-25T11:46:33Z</time>
      </trkpt>
      <trkpt lat="45.62438" lon="6.55443">
        <ele>2119.84</ele>
        <time>2021-06-25T11:46:46Z</time>
      </trkpt>
      <trkpt lat="45.62447" lon="6.55455">
        <ele>2118.4</ele>
        <time>2021-06-25T11:47:01Z</time>
      </trkpt>
      <trkpt lat="45.62451" lon="6.55459">
        <ele>2117.44</ele>
        <time>2021-06-25T11:47:12Z</time>
      </trkpt>
      <trkpt lat="45.62459" lon="6.55463">
        <ele>2115.04</ele>
        <time>2021-06-25T11:47:25Z</time>
      </trkpt>
      <trkpt lat="45.62466" lon="6.5547">
        <ele>2112.15</ele>
        <time>2021-06-25T11:47:37Z</time>
      </trkpt>
      <trkpt lat="45.62472" lon="6.5548">
        <ele>2109.75</ele>
        <time>2021-06-25T11:47:51Z</time>
      </trkpt>
      <trkpt lat="45.62472" lon="6.55484">
        <ele>2109.27</ele>
        <time>2021-06-25T11:47:57Z</time>
      </trkpt>
      <trkpt lat="45.62481" lon="6.55488">
        <ele>2107.35</ele>
        <time>2021-06-25T11:48:11Z</time>
      </trkpt>
      <trkpt lat="45.62488" lon="6.55499">
        <ele>2103.98</ele>
        <time>2021-06-25T11:48:25Z</time>
      </trkpt>
      <trkpt lat="45.62497" lon="6.55507">
        <ele>2100.14</ele>
        <time>2021-06-25T11:48:41Z</time>
      </trkpt>
      <trkpt lat="45.62503" lon="6.55518">
        <ele>2097.73</ele>
        <time>2021-06-25T11:48:55Z</time>
      </trkpt>
      <trkpt lat="45.62507" lon="6.55523">
        <ele>2095.81</ele>
        <time>2021-06-25T11:49:04Z</time>
      </trkpt>
      <trkpt lat="45.62516" lon="6.55536">
        <ele>2093.89</ele>
        <time>2021-06-25T11:49:19Z</time>
      </trkpt>
      <trkpt lat="45.62521" lon="6.55545">
        <ele>2091.97</ele>
        <time>2021-06-25T11:49:32Z</time>
      </trkpt>
      <trkpt lat="45.62521" lon="6.55546">
        <ele>2091</ele>
        <time>2021-06-25T11:49:44Z</time>
      </trkpt>
      <trkpt lat="45.62526" lon="6.55551">
        <ele>2090.04</ele>
        <time>2021-06-25T11:49:57Z</time>
      </trkpt>
      <trkpt lat="45.62533" lon="6.55559">
        <ele>2088.12</ele>
        <time>2021-06-25T11:50:09Z</time>
      </trkpt>
      <trkpt lat="45.6254" lon="6.55565">
        <ele>2086.2</ele>
        <time>2021-06-25T11:50:21Z</time>
      </trkpt>
      <trkpt lat="45.62548" lon="6.55572">
        <ele>2084.28</ele>
        <time>2021-06-25T11:50:35Z</time>
      </trkpt>
      <trkpt lat="45.62558" lon="6.55582">
        <ele>2082.35</ele>
        <time>2021-06-25T11:50:50Z</time>
      </trkpt>
      <trkpt lat="45.62563" lon="6.55588">
        <ele>2080.91</ele>
        <time>2021-06-25T11:50:58Z</time>
      </trkpt>
      <trkpt lat="45.62572" lon="6.55598">
        <ele>2078.03</ele>
        <time>2021-06-25T11:51:12Z</time>
      </trkpt>
      <trkpt lat="45.6258" lon="6.55605">
        <ele>2075.62</ele>
        <time>2021-06-25T11:51:26Z</time>
      </trkpt>
      <trkpt lat="45.62589" lon="6.55616">
        <ele>2073.22</ele>
        <time>2021-06-25T11:51:42Z</time>
      </trkpt>
      <trkpt lat="45.62595" lon="6.55627">
        <ele>2071.3</ele>
        <time>2021-06-25T11:51:55Z</time>
      </trkpt>
      <trkpt lat="45.62603" lon="6.55633">
        <ele>2068.89</ele>
        <time>2021-06-25T11:52:09Z</time>
      </trkpt>
      <trkpt lat="45.62609" lon="6.55635">
        <ele>2067.45</ele>
        <time>2021-06-25T11:52:16Z</time>
      </trkpt>
      <trkpt lat="45.62622" lon="6.55645">
        <ele>2064.57</ele>
        <time>2021-06-25T11:52:32Z</time>
      </trkpt>
      <trkpt lat="45.6263" lon="6.5565">
        <ele>2062.17</ele>
        <time>2021-06-25T11:52:45Z</time>
      </trkpt>
      <trkpt lat="45.62634" lon="6.55659">
        <ele>2059.76</ele>
        <time>2021-06-25T11:52:57Z</time>
      </trkpt>
      <trkpt lat="45.62641" lon="6.55669">
        <ele>2057.36</ele>
        <time>2021-06-25T11:53:10Z</time>
      </trkpt>
      <trkpt lat="45.62646" lon="6.55677">
        <ele>2054.47</ele>
        <time>2021-06-25T11:53:22Z</time>
      </trkpt>
      <trkpt lat="45.62652" lon="6.55685">
        <ele>2052.55</ele>
        <time>2021-06-25T11:53:34Z</time>
      </trkpt>
      <trkpt lat="45.62655" lon="6.55691">
        <ele>2051.11</ele>
        <time>2021-06-25T11:53:42Z</time>
      </trkpt>
      <trkpt lat="45.62656" lon="6.55692">
        <ele>2050.63</ele>
        <time>2021-06-25T11:53:44Z</time>
      </trkpt>
      <trkpt lat="45.62655" lon="6.55706">
        <ele>2048.23</ele>
        <time>2021-06-25T11:53:54Z</time>
      </trkpt>
      <trkpt lat="45.62663" lon="6.55715">
        <ele>2045.34</ele>
        <time>2021-06-25T11:54:09Z</time>
      </trkpt>
      <trkpt lat="45.62668" lon="6.55726">
        <ele>2042.94</ele>
        <time>2021-06-25T11:54:22Z</time>
      </trkpt>
      <trkpt lat="45.62677" lon="6.55734">
        <ele>2039.57</ele>
        <time>2021-06-25T11:54:35Z</time>
      </trkpt>
      <trkpt lat="45.62684" lon="6.55748">
        <ele>2036.69</ele>
        <time>2021-06-25T11:54:51Z</time>
      </trkpt>
      <trkpt lat="45.62692" lon="6.55759">
        <ele>2033.81</ele>
        <time>2021-06-25T11:55:05Z</time>
      </trkpt>
      <trkpt lat="45.627" lon="6.55774">
        <ele>2030.92</ele>
        <time>2021-06-25T11:55:20Z</time>
      </trkpt>
      <trkpt lat="45.62707" lon="6.55784">
        <ele>2028.04</ele>
        <time>2021-06-25T11:55:36Z</time>
      </trkpt>
      <trkpt lat="45.62709" lon="6.55797">
        <ele>2025.64</ele>
        <time>2021-06-25T11:55:49Z</time>
      </trkpt>
      <trkpt lat="45.62718" lon="6.55806">
        <ele>2022.27</ele>
        <time>2021-06-25T11:56:03Z</time>
      </trkpt>
      <trkpt lat="45.62722" lon="6.55812">
        <ele>2019.39</ele>
        <time>2021-06-25T11:56:17Z</time>
      </trkpt>
      <trkpt lat="45.62726" lon="6.55815">
        <ele>2019.39</ele>
        <time>2021-06-25T11:56:21Z</time>
      </trkpt>
      <trkpt lat="45.62738" lon="6.55829">
        <ele>2016.5</ele>
        <time>2021-06-25T11:56:38Z</time>
      </trkpt>
      <trkpt lat="45.62745" lon="6.55841">
        <ele>2013.14</ele>
        <time>2021-06-25T11:56:53Z</time>
      </trkpt>
      <trkpt lat="45.6275" lon="6.55851">
        <ele>2010.25</ele>
        <time>2021-06-25T11:57:05Z</time>
      </trkpt>
      <trkpt lat="45.62759" lon="6.55868">
        <ele>2007.85</ele>
        <time>2021-06-25T11:57:21Z</time>
      </trkpt>
      <trkpt lat="45.6276" lon="6.55873">
        <ele>2007.85</ele>
        <time>2021-06-25T11:57:26Z</time>
      </trkpt>
      <trkpt lat="45.62759" lon="6.55881">
        <ele>2006.41</ele>
        <time>2021-06-25T11:57:31Z</time>
      </trkpt>
      <trkpt lat="45.62764" lon="6.55887">
        <ele>2005.45</ele>
        <time>2021-06-25T11:57:41Z</time>
      </trkpt>
      <trkpt lat="45.62774" lon="6.55893">
        <ele>2003.04</ele>
        <time>2021-06-25T11:57:55Z</time>
      </trkpt>
      <trkpt lat="45.62778" lon="6.55899">
        <ele>2001.12</ele>
        <time>2021-06-25T11:58:03Z</time>
      </trkpt>
      <trkpt lat="45.62781" lon="6.55916">
        <ele>1998.72</ele>
        <time>2021-06-25T11:58:18Z</time>
      </trkpt>
      <trkpt lat="45.62786" lon="6.55924">
        <ele>1996.32</ele>
        <time>2021-06-25T11:58:31Z</time>
      </trkpt>
      <trkpt lat="45.62789" lon="6.55929">
        <ele>1994.39</ele>
        <time>2021-06-25T11:58:43Z</time>
      </trkpt>
      <trkpt lat="45.6279" lon="6.55936">
        <ele>1991.51</ele>
        <time>2021-06-25T11:58:54Z</time>
      </trkpt>
      <trkpt lat="45.62796" lon="6.55947">
        <ele>1989.1</ele>
        <time>2021-06-25T11:59:07Z</time>
      </trkpt>
      <trkpt lat="45.62803" lon="6.55954">
        <ele>1986.22</ele>
        <time>2021-06-25T11:59:20Z</time>
      </trkpt>
      <trkpt lat="45.62805" lon="6.55957">
        <ele>1984.78</ele>
        <time>2021-06-25T11:59:26Z</time>
      </trkpt>
      <trkpt lat="45.62818" lon="6.55961">
        <ele>1981.9</ele>
        <time>2021-06-25T11:59:41Z</time>
      </trkpt>
      <trkpt lat="45.62819" lon="6.55962">
        <ele>1981.41</ele>
        <time>2021-06-25T11:59:43Z</time>
      </trkpt>
      <trkpt lat="45.62827" lon="6.55967">
        <ele>1978.05</ele>
        <time>2021-06-25T11:59:56Z</time>
      </trkpt>
      <trkpt lat="45.62833" lon="6.55976">
        <ele>1974.69</ele>
        <time>2021-06-25T12:00:08Z</time>
      </trkpt>
      <trkpt lat="45.62841" lon="6.55981">
        <ele>1971.32</ele>
        <time>2021-06-25T12:00:20Z</time>
      </trkpt>
      <trkpt lat="45.62854" lon="6.55982">
        <ele>1968.92</ele>
        <time>2021-06-25T12:00:35Z</time>
      </trkpt>
      <trkpt lat="45.62865" lon="6.55982">
        <ele>1965.55</ele>
        <time>2021-06-25T12:00:49Z</time>
      </trkpt>
      <trkpt lat="45.62877" lon="6.55985">
        <ele>1963.15</ele>
        <time>2021-06-25T12:01:03Z</time>
      </trkpt>
      <trkpt lat="45.62882" lon="6.55996">
        <ele>1960.75</ele>
        <time>2021-06-25T12:01:16Z</time>
      </trkpt>
      <trkpt lat="45.62886" lon="6.56">
        <ele>1958.82</ele>
        <time>2021-06-25T12:01:28Z</time>
      </trkpt>
      <trkpt lat="45.629" lon="6.56007">
        <ele>1956.42</ele>
        <time>2021-06-25T12:01:43Z</time>
      </trkpt>
      <trkpt lat="45.62908" lon="6.56007">
        <ele>1954.5</ele>
        <time>2021-06-25T12:01:55Z</time>
      </trkpt>
      <trkpt lat="45.62915" lon="6.56022">
        <ele>1952.09</ele>
        <time>2021-06-25T12:02:09Z</time>
      </trkpt>
      <trkpt lat="45.62921" lon="6.56034">
        <ele>1949.21</ele>
        <time>2021-06-25T12:02:22Z</time>
      </trkpt>
      <trkpt lat="45.62925" lon="6.56051">
        <ele>1945.85</ele>
        <time>2021-06-25T12:02:37Z</time>
      </trkpt>
      <trkpt lat="45.62937" lon="6.56059">
        <ele>1943.92</ele>
        <time>2021-06-25T12:02:55Z</time>
      </trkpt>
      <trkpt lat="45.62942" lon="6.56069">
        <ele>1941.52</ele>
        <time>2021-06-25T12:03:08Z</time>
      </trkpt>
      <trkpt lat="45.6295" lon="6.56074">
        <ele>1940.56</ele>
        <time>2021-06-25T12:03:20Z</time>
      </trkpt>
      <trkpt lat="45.62957" lon="6.56085">
        <ele>1938.16</ele>
        <time>2021-06-25T12:03:34Z</time>
      </trkpt>
      <trkpt lat="45.62962" lon="6.56095">
        <ele>1935.27</ele>
        <time>2021-06-25T12:03:47Z</time>
      </trkpt>
      <trkpt lat="45.62965" lon="6.56107">
        <ele>1932.87</ele>
        <time>2021-06-25T12:04:01Z</time>
      </trkpt>
      <trkpt lat="45.62967" lon="6.5611">
        <ele>1931.91</ele>
        <time>2021-06-25T12:04:05Z</time>
      </trkpt>
      <trkpt lat="45.62973" lon="6.56121">
        <ele>1929.02</ele>
        <time>2021-06-25T12:04:20Z</time>
      </trkpt>
      <trkpt lat="45.62974" lon="6.56129">
        <ele>1926.14</ele>
        <time>2021-06-25T12:04:28Z</time>
      </trkpt>
      <trkpt lat="45.62977" lon="6.56142">
        <ele>1923.25</ele>
        <time>2021-06-25T12:04:41Z</time>
      </trkpt>
      <trkpt lat="45.62983" lon="6.56155">
        <ele>1921.33</ele>
        <time>2021-06-25T12:04:55Z</time>
      </trkpt>
      <trkpt lat="45.62989" lon="6.56162">
        <ele>1917.49</ele>
        <time>2021-06-25T12:05:05Z</time>
      </trkpt>
      <trkpt lat="45.62989" lon="6.56162">
        <ele>1917.49</ele>
        <time>2021-06-25T12:05:06Z</time>
      </trkpt>
      <trkpt lat="45.6299" lon="6.56163">
        <ele>1917.49</ele>
        <time>2021-06-25T12:05:07Z</time>
      </trkpt>
      <trkpt lat="45.62997" lon="6.56171">
        <ele>1914.6</ele>
        <time>2021-06-25T12:05:19Z</time>
      </trkpt>
      <trkpt lat="45.63001" lon="6.56178">
        <ele>1912.68</ele>
        <time>2021-06-25T12:05:31Z</time>
      </trkpt>
      <trkpt lat="45.63002" lon="6.56184">
        <ele>1912.2</ele>
        <time>2021-06-25T12:05:37Z</time>
      </trkpt>
      <trkpt lat="45.63011" lon="6.56195">
        <ele>1909.32</ele>
        <time>2021-06-25T12:05:51Z</time>
      </trkpt>
      <trkpt lat="45.63012" lon="6.56198">
        <ele>1907.87</ele>
        <time>2021-06-25T12:05:54Z</time>
      </trkpt>
      <trkpt lat="45.63011" lon="6.56205">
        <ele>1906.91</ele>
        <time>2021-06-25T12:06:06Z</time>
      </trkpt>
      <trkpt lat="45.63013" lon="6.56213">
        <ele>1904.99</ele>
        <time>2021-06-25T12:06:18Z</time>
      </trkpt>
      <trkpt lat="45.63016" lon="6.56226">
        <ele>1902.11</ele>
        <time>2021-06-25T12:06:32Z</time>
      </trkpt>
      <trkpt lat="45.63022" lon="6.56235">
        <ele>1899.7</ele>
        <time>2021-06-25T12:06:45Z</time>
      </trkpt>
      <trkpt lat="45.63027" lon="6.56241">
        <ele>1897.78</ele>
        <time>2021-06-25T12:06:59Z</time>
      </trkpt>
      <trkpt lat="45.63031" lon="6.56247">
        <ele>1895.38</ele>
        <time>2021-06-25T12:07:11Z</time>
      </trkpt>
      <trkpt lat="45.63035" lon="6.56248">
        <ele>1892.97</ele>
        <time>2021-06-25T12:07:23Z</time>
      </trkpt>
      <trkpt lat="45.6304" lon="6.5625">
        <ele>1891.05</ele>
        <time>2021-06-25T12:07:36Z</time>
      </trkpt>
      <trkpt lat="45.63044" lon="6.56254">
        <ele>1888.65</ele>
        <time>2021-06-25T12:07:50Z</time>
      </trkpt>
      <trkpt lat="45.63048" lon="6.56259">
        <ele>1886.24</ele>
        <time>2021-06-25T12:08:03Z</time>
      </trkpt>
      <trkpt lat="45.63055" lon="6.56262">
        <ele>1883.84</ele>
        <time>2021-06-25T12:08:15Z</time>
      </trkpt>
      <trkpt lat="45.63056" lon="6.56268">
        <ele>1882.4</ele>
        <time>2021-06-25T12:08:27Z</time>
      </trkpt>
      <trkpt lat="45.63059" lon="6.56271">
        <ele>1880</ele>
        <time>2021-06-25T12:08:39Z</time>
      </trkpt>
      <trkpt lat="45.63062" lon="6.56269">
        <ele>1879.51</ele>
        <time>2021-06-25T12:08:43Z</time>
      </trkpt>
      <trkpt lat="45.6307" lon="6.56264">
        <ele>1877.59</ele>
        <time>2021-06-25T12:08:56Z</time>
      </trkpt>
      <trkpt lat="45.63073" lon="6.56274">
        <ele>1875.67</ele>
        <time>2021-06-25T12:09:08Z</time>
      </trkpt>
      <trkpt lat="45.63076" lon="6.5628">
        <ele>1873.27</ele>
        <time>2021-06-25T12:09:20Z</time>
      </trkpt>
      <trkpt lat="45.6308" lon="6.56274">
        <ele>1871.82</ele>
        <time>2021-06-25T12:09:31Z</time>
      </trkpt>
      <trkpt lat="45.63082" lon="6.56286">
        <ele>1868.46</ele>
        <time>2021-06-25T12:09:45Z</time>
      </trkpt>
      <trkpt lat="45.63085" lon="6.56289">
        <ele>1867.02</ele>
        <time>2021-06-25T12:09:57Z</time>
      </trkpt>
      <trkpt lat="45.63089" lon="6.56277">
        <ele>1865.58</ele>
        <time>2021-06-25T12:10:10Z</time>
      </trkpt>
      <trkpt lat="45.63094" lon="6.56275">
        <ele>1863.65</ele>
        <time>2021-06-25T12:10:24Z</time>
      </trkpt>
      <trkpt lat="45.63096" lon="6.56282">
        <ele>1861.73</ele>
        <time>2021-06-25T12:10:35Z</time>
      </trkpt>
      <trkpt lat="45.631" lon="6.56291">
        <ele>1859.33</ele>
        <time>2021-06-25T12:10:48Z</time>
      </trkpt>
      <trkpt lat="45.63101" lon="6.56297">
        <ele>1857.4</ele>
        <time>2021-06-25T12:10:59Z</time>
      </trkpt>
      <trkpt lat="45.6311" lon="6.5629">
        <ele>1855</ele>
        <time>2021-06-25T12:11:15Z</time>
      </trkpt>
      <trkpt lat="45.63113" lon="6.56299">
        <ele>1852.6</ele>
        <time>2021-06-25T12:11:29Z</time>
      </trkpt>
      <trkpt lat="45.63117" lon="6.56309">
        <ele>1850.19</ele>
        <time>2021-06-25T12:11:43Z</time>
      </trkpt>
      <trkpt lat="45.63124" lon="6.56311">
        <ele>1847.79</ele>
        <time>2021-06-25T12:11:57Z</time>
      </trkpt>
      <trkpt lat="45.6313" lon="6.56316">
        <ele>1845.39</ele>
        <time>2021-06-25T12:12:09Z</time>
      </trkpt>
      <trkpt lat="45.63129" lon="6.56325">
        <ele>1844.43</ele>
        <time>2021-06-25T12:12:21Z</time>
      </trkpt>
      <trkpt lat="45.63132" lon="6.56336">
        <ele>1842.5</ele>
        <time>2021-06-25T12:12:35Z</time>
      </trkpt>
      <trkpt lat="45.63133" lon="6.56338">
        <ele>1842.5</ele>
        <time>2021-06-25T12:12:37Z</time>
      </trkpt>
      <trkpt lat="45.63139" lon="6.56348">
        <ele>1840.58</ele>
        <time>2021-06-25T12:12:50Z</time>
      </trkpt>
      <trkpt lat="45.63141" lon="6.56357">
        <ele>1838.66</ele>
        <time>2021-06-25T12:13:02Z</time>
      </trkpt>
      <trkpt lat="45.63148" lon="6.56375">
        <ele>1837.22</ele>
        <time>2021-06-25T12:13:16Z</time>
      </trkpt>
      <trkpt lat="45.63149" lon="6.56395">
        <ele>1835.29</ele>
        <time>2021-06-25T12:13:31Z</time>
      </trkpt>
      <trkpt lat="45.63155" lon="6.56408">
        <ele>1834.81</ele>
        <time>2021-06-25T12:13:45Z</time>
      </trkpt>
      <trkpt lat="45.63155" lon="6.56421">
        <ele>1832.41</ele>
        <time>2021-06-25T12:13:59Z</time>
      </trkpt>
      <trkpt lat="45.63156" lon="6.56422">
        <ele>1831.93</ele>
        <time>2021-06-25T12:14:01Z</time>
      </trkpt>
      <trkpt lat="45.63163" lon="6.56433">
        <ele>1828.56</ele>
        <time>2021-06-25T12:14:15Z</time>
      </trkpt>
      <trkpt lat="45.63169" lon="6.5644">
        <ele>1826.64</ele>
        <time>2021-06-25T12:14:27Z</time>
      </trkpt>
      <trkpt lat="45.63179" lon="6.56447">
        <ele>1823.76</ele>
        <time>2021-06-25T12:14:40Z</time>
      </trkpt>
      <trkpt lat="45.63182" lon="6.56448">
        <ele>1823.28</ele>
        <time>2021-06-25T12:14:42Z</time>
      </trkpt>
      <trkpt lat="45.63186" lon="6.56454">
        <ele>1822.8</ele>
        <time>2021-06-25T12:14:48Z</time>
      </trkpt>
      <trkpt lat="45.63198" lon="6.56457">
        <ele>1819.91</ele>
        <time>2021-06-25T12:15:03Z</time>
      </trkpt>
      <trkpt lat="45.63201" lon="6.56471">
        <ele>1817.03</ele>
        <time>2021-06-25T12:15:16Z</time>
      </trkpt>
      <trkpt lat="45.63209" lon="6.56469">
        <ele>1815.11</ele>
        <time>2021-06-25T12:15:29Z</time>
      </trkpt>
      <trkpt lat="45.63214" lon="6.56466">
        <ele>1813.18</ele>
        <time>2021-06-25T12:15:42Z</time>
      </trkpt>
      <trkpt lat="45.63212" lon="6.56468">
        <ele>1812.22</ele>
        <time>2021-06-25T12:15:55Z</time>
      </trkpt>
      <trkpt lat="45.63213" lon="6.56465">
        <ele>1811.74</ele>
        <time>2021-06-25T12:16:26Z</time>
      </trkpt>
      <trkpt lat="45.63212" lon="6.56468">
        <ele>1813.18</ele>
        <time>2021-06-25T12:16:51Z</time>
      </trkpt>
      <trkpt lat="45.63212" lon="6.56468">
        <ele>1813.18</ele>
        <time>2021-06-25T12:16:52Z</time>
      </trkpt>
      <trkpt lat="45.63213" lon="6.56467">
        <ele>1812.7</ele>
        <time>2021-06-25T12:17:15Z</time>
      </trkpt>
      <trkpt lat="45.63215" lon="6.56477">
        <ele>1811.26</ele>
        <time>2021-06-25T12:17:34Z</time>
      </trkpt>
      <trkpt lat="45.63212" lon="6.56492">
        <ele>1809.82</ele>
        <time>2021-06-25T12:17:48Z</time>
      </trkpt>
      <trkpt lat="45.63217" lon="6.56499">
        <ele>1807.42</ele>
        <time>2021-06-25T12:18:00Z</time>
      </trkpt>
      <trkpt lat="45.63227" lon="6.56506">
        <ele>1805.49</ele>
        <time>2021-06-25T12:18:13Z</time>
      </trkpt>
      <trkpt lat="45.63231" lon="6.56514">
        <ele>1802.61</ele>
        <time>2021-06-25T12:18:25Z</time>
      </trkpt>
      <trkpt lat="45.63232" lon="6.56518">
        <ele>1801.65</ele>
        <time>2021-06-25T12:18:30Z</time>
      </trkpt>
      <trkpt lat="45.63234" lon="6.5652">
        <ele>1800.69</ele>
        <time>2021-06-25T12:18:32Z</time>
      </trkpt>
      <trkpt lat="45.63241" lon="6.5653">
        <ele>1798.28</ele>
        <time>2021-06-25T12:18:45Z</time>
      </trkpt>
      <trkpt lat="45.63244" lon="6.56536">
        <ele>1796.84</ele>
        <time>2021-06-25T12:18:57Z</time>
      </trkpt>
      <trkpt lat="45.63252" lon="6.56536">
        <ele>1794.92</ele>
        <time>2021-06-25T12:19:10Z</time>
      </trkpt>
      <trkpt lat="45.6326" lon="6.56535">
        <ele>1793.48</ele>
        <time>2021-06-25T12:19:24Z</time>
      </trkpt>
      <trkpt lat="45.63267" lon="6.56532">
        <ele>1790.11</ele>
        <time>2021-06-25T12:19:40Z</time>
      </trkpt>
      <trkpt lat="45.63268" lon="6.56538">
        <ele>1789.63</ele>
        <time>2021-06-25T12:19:54Z</time>
      </trkpt>
      <trkpt lat="45.63273" lon="6.56543">
        <ele>1788.19</ele>
        <time>2021-06-25T12:20:06Z</time>
      </trkpt>
      <trkpt lat="45.63283" lon="6.56543">
        <ele>1785.79</ele>
        <time>2021-06-25T12:20:19Z</time>
      </trkpt>
      <trkpt lat="45.63287" lon="6.56556">
        <ele>1783.38</ele>
        <time>2021-06-25T12:20:32Z</time>
      </trkpt>
      <trkpt lat="45.63289" lon="6.56558">
        <ele>1781.94</ele>
        <time>2021-06-25T12:20:35Z</time>
      </trkpt>
      <trkpt lat="45.63299" lon="6.5656">
        <ele>1780.02</ele>
        <time>2021-06-25T12:20:47Z</time>
      </trkpt>
      <trkpt lat="45.63303" lon="6.56572">
        <ele>1777.13</ele>
        <time>2021-06-25T12:21:02Z</time>
      </trkpt>
      <trkpt lat="45.63304" lon="6.56572">
        <ele>1777.13</ele>
        <time>2021-06-25T12:21:03Z</time>
      </trkpt>
      <trkpt lat="45.63307" lon="6.56566">
        <ele>1774.73</ele>
        <time>2021-06-25T12:21:13Z</time>
      </trkpt>
      <trkpt lat="45.6331" lon="6.56557">
        <ele>1772.33</ele>
        <time>2021-06-25T12:21:28Z</time>
      </trkpt>
      <trkpt lat="45.63313" lon="6.56545">
        <ele>1768.96</ele>
        <time>2021-06-25T12:21:41Z</time>
      </trkpt>
      <trkpt lat="45.63318" lon="6.56543">
        <ele>1767.52</ele>
        <time>2021-06-25T12:21:52Z</time>
      </trkpt>
      <trkpt lat="45.63323" lon="6.5655">
        <ele>1766.08</ele>
        <time>2021-06-25T12:22:04Z</time>
      </trkpt>
      <trkpt lat="45.63329" lon="6.56547">
        <ele>1764.64</ele>
        <time>2021-06-25T12:22:21Z</time>
      </trkpt>
      <trkpt lat="45.63331" lon="6.56547">
        <ele>1764.64</ele>
        <time>2021-06-25T12:22:41Z</time>
      </trkpt>
      <trkpt lat="45.63337" lon="6.56545">
        <ele>1764.16</ele>
        <time>2021-06-25T12:22:55Z</time>
      </trkpt>
      <trkpt lat="45.63338" lon="6.56553">
        <ele>1763.2</ele>
        <time>2021-06-25T12:23:07Z</time>
      </trkpt>
      <trkpt lat="45.63341" lon="6.56557">
        <ele>1762.23</ele>
        <time>2021-06-25T12:23:20Z</time>
      </trkpt>
      <trkpt lat="45.63347" lon="6.56565">
        <ele>1760.31</ele>
        <time>2021-06-25T12:23:32Z</time>
      </trkpt>
      <trkpt lat="45.63358" lon="6.56568">
        <ele>1758.87</ele>
        <time>2021-06-25T12:23:45Z</time>
      </trkpt>
      <trkpt lat="45.63364" lon="6.56573">
        <ele>1756.95</ele>
        <time>2021-06-25T12:23:56Z</time>
      </trkpt>
      <trkpt lat="45.63371" lon="6.56579">
        <ele>1755.02</ele>
        <time>2021-06-25T12:24:09Z</time>
      </trkpt>
      <trkpt lat="45.63378" lon="6.56582">
        <ele>1753.58</ele>
        <time>2021-06-25T12:24:22Z</time>
      </trkpt>
      <trkpt lat="45.63379" lon="6.56584">
        <ele>1753.1</ele>
        <time>2021-06-25T12:24:29Z</time>
      </trkpt>
      <trkpt lat="45.63386" lon="6.56594">
        <ele>1749.74</ele>
        <time>2021-06-25T12:24:43Z</time>
      </trkpt>
      <trkpt lat="45.63395" lon="6.56593">
        <ele>1749.74</ele>
        <time>2021-06-25T12:24:55Z</time>
      </trkpt>
      <trkpt lat="45.634" lon="6.566">
        <ele>1748.29</ele>
        <time>2021-06-25T12:25:07Z</time>
      </trkpt>
      <trkpt lat="45.63406" lon="6.56607">
        <ele>1746.37</ele>
        <time>2021-06-25T12:25:20Z</time>
      </trkpt>
      <trkpt lat="45.63405" lon="6.56617">
        <ele>1743.97</ele>
        <time>2021-06-25T12:25:32Z</time>
      </trkpt>
      <trkpt lat="45.63403" lon="6.56625">
        <ele>1741.57</ele>
        <time>2021-06-25T12:25:45Z</time>
      </trkpt>
      <trkpt lat="45.63403" lon="6.5663">
        <ele>1739.64</ele>
        <time>2021-06-25T12:25:56Z</time>
      </trkpt>
      <trkpt lat="45.634" lon="6.56638">
        <ele>1737.72</ele>
        <time>2021-06-25T12:26:08Z</time>
      </trkpt>
      <trkpt lat="45.63406" lon="6.56643">
        <ele>1736.28</ele>
        <time>2021-06-25T12:26:21Z</time>
      </trkpt>
      <trkpt lat="45.63409" lon="6.56649">
        <ele>1733.88</ele>
        <time>2021-06-25T12:26:35Z</time>
      </trkpt>
      <trkpt lat="45.63412" lon="6.56654">
        <ele>1732.91</ele>
        <time>2021-06-25T12:26:48Z</time>
      </trkpt>
      <trkpt lat="45.6341" lon="6.56657">
        <ele>1732.43</ele>
        <time>2021-06-25T12:27:02Z</time>
      </trkpt>
      <trkpt lat="45.6341" lon="6.5666">
        <ele>1732.43</ele>
        <time>2021-06-25T12:27:28Z</time>
      </trkpt>
      <trkpt lat="45.63411" lon="6.56656">
        <ele>1732.43</ele>
        <time>2021-06-25T12:27:47Z</time>
      </trkpt>
      <trkpt lat="45.63412" lon="6.56661">
        <ele>1730.99</ele>
        <time>2021-06-25T12:28:09Z</time>
      </trkpt>
      <trkpt lat="45.63402" lon="6.56666">
        <ele>1729.07</ele>
        <time>2021-06-25T12:28:23Z</time>
      </trkpt>
      <trkpt lat="45.63396" lon="6.5667">
        <ele>1729.07</ele>
        <time>2021-06-25T12:28:37Z</time>
      </trkpt>
      <trkpt lat="45.63399" lon="6.56681">
        <ele>1728.11</ele>
        <time>2021-06-25T12:28:50Z</time>
      </trkpt>
      <trkpt lat="45.63404" lon="6.56688">
        <ele>1729.07</ele>
        <time>2021-06-25T12:29:00Z</time>
      </trkpt>
      <trkpt lat="45.63412" lon="6.56688">
        <ele>1730.51</ele>
        <time>2021-06-25T12:29:13Z</time>
      </trkpt>
      <trkpt lat="45.63421" lon="6.56696">
        <ele>1730.51</ele>
        <time>2021-06-25T12:29:25Z</time>
      </trkpt>
      <trkpt lat="45.63426" lon="6.56709">
        <ele>1727.15</ele>
        <time>2021-06-25T12:29:40Z</time>
      </trkpt>
      <trkpt lat="45.6343" lon="6.56722">
        <ele>1726.67</ele>
        <time>2021-06-25T12:29:50Z</time>
      </trkpt>
      <trkpt lat="45.6344" lon="6.56744">
        <ele>1725.7</ele>
        <time>2021-06-25T12:30:07Z</time>
      </trkpt>
      <trkpt lat="45.63448" lon="6.56757">
        <ele>1723.3</ele>
        <time>2021-06-25T12:30:23Z</time>
      </trkpt>
      <trkpt lat="45.63461" lon="6.56764">
        <ele>1722.34</ele>
        <time>2021-06-25T12:30:37Z</time>
      </trkpt>
      <trkpt lat="45.63473" lon="6.56779">
        <ele>1722.34</ele>
        <time>2021-06-25T12:30:53Z</time>
      </trkpt>
      <trkpt lat="45.63479" lon="6.56794">
        <ele>1722.34</ele>
        <time>2021-06-25T12:31:06Z</time>
      </trkpt>
      <trkpt lat="45.6348" lon="6.5681">
        <ele>1720.9</ele>
        <time>2021-06-25T12:31:20Z</time>
      </trkpt>
      <trkpt lat="45.63478" lon="6.56817">
        <ele>1719.94</ele>
        <time>2021-06-25T12:31:26Z</time>
      </trkpt>
      <trkpt lat="45.63483" lon="6.56833">
        <ele>1719.46</ele>
        <time>2021-06-25T12:31:39Z</time>
      </trkpt>
      <trkpt lat="45.63489" lon="6.56841">
        <ele>1719.46</ele>
        <time>2021-06-25T12:31:50Z</time>
      </trkpt>
      <trkpt lat="45.63504" lon="6.56844">
        <ele>1719.46</ele>
        <time>2021-06-25T12:32:04Z</time>
      </trkpt>
      <trkpt lat="45.63513" lon="6.56855">
        <ele>1716.57</ele>
        <time>2021-06-25T12:32:19Z</time>
      </trkpt>
      <trkpt lat="45.63522" lon="6.56867">
        <ele>1714.17</ele>
        <time>2021-06-25T12:32:34Z</time>
      </trkpt>
      <trkpt lat="45.63523" lon="6.56868">
        <ele>1714.17</ele>
        <time>2021-06-25T12:32:35Z</time>
      </trkpt>
      <trkpt lat="45.63524" lon="6.56885">
        <ele>1710.8</ele>
        <time>2021-06-25T12:32:50Z</time>
      </trkpt>
      <trkpt lat="45.63528" lon="6.56895">
        <ele>1708.88</ele>
        <time>2021-06-25T12:32:58Z</time>
      </trkpt>
      <trkpt lat="45.63539" lon="6.56903">
        <ele>1708.4</ele>
        <time>2021-06-25T12:33:13Z</time>
      </trkpt>
      <trkpt lat="45.63546" lon="6.56909">
        <ele>1706.96</ele>
        <time>2021-06-25T12:33:25Z</time>
      </trkpt>
      <trkpt lat="45.63551" lon="6.56916">
        <ele>1703.59</ele>
        <time>2021-06-25T12:33:37Z</time>
      </trkpt>
      <trkpt lat="45.63561" lon="6.56915">
        <ele>1702.63</ele>
        <time>2021-06-25T12:33:48Z</time>
      </trkpt>
      <trkpt lat="45.63575" lon="6.56912">
        <ele>1702.15</ele>
        <time>2021-06-25T12:34:03Z</time>
      </trkpt>
      <trkpt lat="45.63582" lon="6.56913">
        <ele>1703.59</ele>
        <time>2021-06-25T12:34:11Z</time>
      </trkpt>
      <trkpt lat="45.63587" lon="6.56925">
        <ele>1701.19</ele>
        <time>2021-06-25T12:34:27Z</time>
      </trkpt>
      <trkpt lat="45.63592" lon="6.56932">
        <ele>1698.31</ele>
        <time>2021-06-25T12:34:40Z</time>
      </trkpt>
      <trkpt lat="45.63594" lon="6.56946">
        <ele>1695.42</ele>
        <time>2021-06-25T12:34:52Z</time>
      </trkpt>
      <trkpt lat="45.63606" lon="6.56953">
        <ele>1694.94</ele>
        <time>2021-06-25T12:35:06Z</time>
      </trkpt>
      <trkpt lat="45.6361" lon="6.56955">
        <ele>1695.42</ele>
        <time>2021-06-25T12:35:10Z</time>
      </trkpt>
      <trkpt lat="45.63619" lon="6.56971">
        <ele>1694.94</ele>
        <time>2021-06-25T12:35:27Z</time>
      </trkpt>
      <trkpt lat="45.63625" lon="6.56981">
        <ele>1693.5</ele>
        <time>2021-06-25T12:35:37Z</time>
      </trkpt>
      <trkpt lat="45.63632" lon="6.56999">
        <ele>1692.54</ele>
        <time>2021-06-25T12:35:53Z</time>
      </trkpt>
      <trkpt lat="45.63632" lon="6.57">
        <ele>1692.06</ele>
        <time>2021-06-25T12:35:54Z</time>
      </trkpt>
      <trkpt lat="45.63631" lon="6.57015">
        <ele>1688.69</ele>
        <time>2021-06-25T12:36:08Z</time>
      </trkpt>
      <trkpt lat="45.63631" lon="6.57016">
        <ele>1688.69</ele>
        <time>2021-06-25T12:36:09Z</time>
      </trkpt>
      <trkpt lat="45.63626" lon="6.5703">
        <ele>1688.21</ele>
        <time>2021-06-25T12:36:23Z</time>
      </trkpt>
      <trkpt lat="45.63623" lon="6.57038">
        <ele>1687.73</ele>
        <time>2021-06-25T12:36:37Z</time>
      </trkpt>
      <trkpt lat="45.63631" lon="6.57038">
        <ele>1685.81</ele>
        <time>2021-06-25T12:36:50Z</time>
      </trkpt>
      <trkpt lat="45.63642" lon="6.57042">
        <ele>1684.37</ele>
        <time>2021-06-25T12:37:05Z</time>
      </trkpt>
      <trkpt lat="45.63648" lon="6.57051">
        <ele>1686.77</ele>
        <time>2021-06-25T12:37:19Z</time>
      </trkpt>
      <trkpt lat="45.6365" lon="6.57054">
        <ele>1685.33</ele>
        <time>2021-06-25T12:37:23Z</time>
      </trkpt>
      <trkpt lat="45.63663" lon="6.57062">
        <ele>1683.89</ele>
        <time>2021-06-25T12:37:40Z</time>
      </trkpt>
      <trkpt lat="45.63672" lon="6.57066">
        <ele>1680.52</ele>
        <time>2021-06-25T12:37:54Z</time>
      </trkpt>
      <trkpt lat="45.63682" lon="6.57069">
        <ele>1679.08</ele>
        <time>2021-06-25T12:38:08Z</time>
      </trkpt>
      <trkpt lat="45.63691" lon="6.57058">
        <ele>1677.16</ele>
        <time>2021-06-25T12:38:23Z</time>
      </trkpt>
      <trkpt lat="45.63695" lon="6.57054">
        <ele>1675.23</ele>
        <time>2021-06-25T12:38:34Z</time>
      </trkpt>
      <trkpt lat="45.63692" lon="6.57057">
        <ele>1676.2</ele>
        <time>2021-06-25T12:38:48Z</time>
      </trkpt>
      <trkpt lat="45.63693" lon="6.57057">
        <ele>1676.2</ele>
        <time>2021-06-25T12:39:16Z</time>
      </trkpt>
      <trkpt lat="45.63696" lon="6.57056">
        <ele>1674.27</ele>
        <time>2021-06-25T12:39:31Z</time>
      </trkpt>
      <trkpt lat="45.63698" lon="6.57059">
        <ele>1673.79</ele>
        <time>2021-06-25T12:39:54Z</time>
      </trkpt>
      <trkpt lat="45.63704" lon="6.5706">
        <ele>1669.95</ele>
        <time>2021-06-25T12:40:06Z</time>
      </trkpt>
      <trkpt lat="45.63704" lon="6.57061">
        <ele>1669.95</ele>
        <time>2021-06-25T12:40:07Z</time>
      </trkpt>
      <trkpt lat="45.63712" lon="6.57073">
        <ele>1666.1</ele>
        <time>2021-06-25T12:40:21Z</time>
      </trkpt>
      <trkpt lat="45.63717" lon="6.57076">
        <ele>1665.14</ele>
        <time>2021-06-25T12:40:27Z</time>
      </trkpt>
      <trkpt lat="45.63718" lon="6.57078">
        <ele>1663.7</ele>
        <time>2021-06-25T12:40:30Z</time>
      </trkpt>
      <trkpt lat="45.63728" lon="6.57079">
        <ele>1661.3</ele>
        <time>2021-06-25T12:40:43Z</time>
      </trkpt>
      <trkpt lat="45.63734" lon="6.57074">
        <ele>1658.89</ele>
        <time>2021-06-25T12:40:54Z</time>
      </trkpt>
      <trkpt lat="45.6374" lon="6.57085">
        <ele>1656.49</ele>
        <time>2021-06-25T12:41:08Z</time>
      </trkpt>
      <trkpt lat="45.63746" lon="6.57079">
        <ele>1654.09</ele>
        <time>2021-06-25T12:41:20Z</time>
      </trkpt>
      <trkpt lat="45.6375" lon="6.5709">
        <ele>1651.2</ele>
        <time>2021-06-25T12:41:34Z</time>
      </trkpt>
      <trkpt lat="45.63755" lon="6.57085">
        <ele>1649.76</ele>
        <time>2021-06-25T12:41:47Z</time>
      </trkpt>
      <trkpt lat="45.63758" lon="6.57084">
        <ele>1646.88</ele>
        <time>2021-06-25T12:41:59Z</time>
      </trkpt>
      <trkpt lat="45.63762" lon="6.5709">
        <ele>1645.43</ele>
        <time>2021-06-25T12:42:05Z</time>
      </trkpt>
      <trkpt lat="45.63768" lon="6.571">
        <ele>1643.03</ele>
        <time>2021-06-25T12:42:19Z</time>
      </trkpt>
      <trkpt lat="45.63765" lon="6.57108">
        <ele>1641.11</ele>
        <time>2021-06-25T12:42:30Z</time>
      </trkpt>
      <trkpt lat="45.63765" lon="6.5711">
        <ele>1640.63</ele>
        <time>2021-06-25T12:42:45Z</time>
      </trkpt>
      <trkpt lat="45.63766" lon="6.57111">
        <ele>1640.63</ele>
        <time>2021-06-25T12:43:14Z</time>
      </trkpt>
      <trkpt lat="45.6377" lon="6.57113">
        <ele>1641.11</ele>
        <time>2021-06-25T12:43:32Z</time>
      </trkpt>
      <trkpt lat="45.63764" lon="6.57112">
        <ele>1641.11</ele>
        <time>2021-06-25T12:43:56Z</time>
      </trkpt>
      <trkpt lat="45.63765" lon="6.57111">
        <ele>1639.19</ele>
        <time>2021-06-25T12:44:10Z</time>
      </trkpt>
      <trkpt lat="45.63765" lon="6.57112">
        <ele>1640.63</ele>
        <time>2021-06-25T12:44:12Z</time>
      </trkpt>
      <trkpt lat="45.63777" lon="6.57113">
        <ele>1638.22</ele>
        <time>2021-06-25T12:44:26Z</time>
      </trkpt>
      <trkpt lat="45.63774" lon="6.57098">
        <ele>1637.26</ele>
        <time>2021-06-25T12:44:40Z</time>
      </trkpt>
      <trkpt lat="45.63782" lon="6.57097">
        <ele>1636.78</ele>
        <time>2021-06-25T12:44:52Z</time>
      </trkpt>
      <trkpt lat="45.63787" lon="6.57108">
        <ele>1636.3</ele>
        <time>2021-06-25T12:45:03Z</time>
      </trkpt>
      <trkpt lat="45.63791" lon="6.57121">
        <ele>1634.86</ele>
        <time>2021-06-25T12:45:16Z</time>
      </trkpt>
      <trkpt lat="45.63795" lon="6.57131">
        <ele>1634.86</ele>
        <time>2021-06-25T12:45:29Z</time>
      </trkpt>
      <trkpt lat="45.63796" lon="6.5715">
        <ele>1634.38</ele>
        <time>2021-06-25T12:45:45Z</time>
      </trkpt>
      <trkpt lat="45.63808" lon="6.57151">
        <ele>1632.94</ele>
        <time>2021-06-25T12:45:58Z</time>
      </trkpt>
      <trkpt lat="45.63818" lon="6.57158">
        <ele>1632.94</ele>
        <time>2021-06-25T12:46:12Z</time>
      </trkpt>
      <trkpt lat="45.63827" lon="6.57161">
        <ele>1632.94</ele>
        <time>2021-06-25T12:46:26Z</time>
      </trkpt>
      <trkpt lat="45.63833" lon="6.57164">
        <ele>1632.94</ele>
        <time>2021-06-25T12:46:37Z</time>
      </trkpt>
      <trkpt lat="45.63834" lon="6.5717">
        <ele>1632.94</ele>
        <time>2021-06-25T12:46:52Z</time>
      </trkpt>
      <trkpt lat="45.63833" lon="6.5717">
        <ele>1632.94</ele>
        <time>2021-06-25T12:47:19Z</time>
      </trkpt>
      <trkpt lat="45.63832" lon="6.57171">
        <ele>1632.94</ele>
        <time>2021-06-25T12:47:45Z</time>
      </trkpt>
      <trkpt lat="45.63832" lon="6.57173">
        <ele>1632.94</ele>
        <time>2021-06-25T12:48:03Z</time>
      </trkpt>
      <trkpt lat="45.63831" lon="6.57179">
        <ele>1632.94</ele>
        <time>2021-06-25T12:48:20Z</time>
      </trkpt>
      <trkpt lat="45.63836" lon="6.57184">
        <ele>1631.98</ele>
        <time>2021-06-25T12:48:46Z</time>
      </trkpt>
      <trkpt lat="45.6384" lon="6.57191">
        <ele>1631.49</ele>
        <time>2021-06-25T12:49:01Z</time>
      </trkpt>
      <trkpt lat="45.63842" lon="6.57191">
        <ele>1631.49</ele>
        <time>2021-06-25T12:49:23Z</time>
      </trkpt>
      <trkpt lat="45.63842" lon="6.57186">
        <ele>1631.01</ele>
        <time>2021-06-25T12:49:48Z</time>
      </trkpt>
      <trkpt lat="45.63842" lon="6.57188">
        <ele>1631.01</ele>
        <time>2021-06-25T12:50:09Z</time>
      </trkpt>
      <trkpt lat="45.63844" lon="6.57194">
        <ele>1631.01</ele>
        <time>2021-06-25T12:50:28Z</time>
      </trkpt>
      <trkpt lat="45.6385" lon="6.57198">
        <ele>1629.09</ele>
        <time>2021-06-25T12:50:40Z</time>
      </trkpt>
      <trkpt lat="45.63857" lon="6.57203">
        <ele>1628.61</ele>
        <time>2021-06-25T12:50:53Z</time>
      </trkpt>
      <trkpt lat="45.63866" lon="6.5721">
        <ele>1628.13</ele>
        <time>2021-06-25T12:51:07Z</time>
      </trkpt>
      <trkpt lat="45.63877" lon="6.57222">
        <ele>1627.65</ele>
        <time>2021-06-25T12:51:21Z</time>
      </trkpt>
      <trkpt lat="45.63881" lon="6.57229">
        <ele>1627.17</ele>
        <time>2021-06-25T12:51:28Z</time>
      </trkpt>
      <trkpt lat="45.63885" lon="6.57237">
        <ele>1626.69</ele>
        <time>2021-06-25T12:51:35Z</time>
      </trkpt>
      <trkpt lat="45.63891" lon="6.57252">
        <ele>1623.8</ele>
        <time>2021-06-25T12:51:50Z</time>
      </trkpt>
      <trkpt lat="45.63896" lon="6.57263">
        <ele>1620.92</ele>
        <time>2021-06-25T12:52:02Z</time>
      </trkpt>
      <trkpt lat="45.639" lon="6.57269">
        <ele>1619.48</ele>
        <time>2021-06-25T12:52:09Z</time>
      </trkpt>
      <trkpt lat="45.63911" lon="6.57279">
        <ele>1616.11</ele>
        <time>2021-06-25T12:52:23Z</time>
      </trkpt>
      <trkpt lat="45.63913" lon="6.57283">
        <ele>1616.11</ele>
        <time>2021-06-25T12:52:26Z</time>
      </trkpt>
      <trkpt lat="45.63922" lon="6.57301">
        <ele>1612.75</ele>
        <time>2021-06-25T12:52:44Z</time>
      </trkpt>
      <trkpt lat="45.63925" lon="6.57308">
        <ele>1612.27</ele>
        <time>2021-06-25T12:53:03Z</time>
      </trkpt>
      <trkpt lat="45.6393" lon="6.57316">
        <ele>1610.35</ele>
        <time>2021-06-25T12:53:12Z</time>
      </trkpt>
      <trkpt lat="45.63934" lon="6.57328">
        <ele>1608.9</ele>
        <time>2021-06-25T12:53:23Z</time>
      </trkpt>
      <trkpt lat="45.63939" lon="6.57339">
        <ele>1606.02</ele>
        <time>2021-06-25T12:53:35Z</time>
      </trkpt>
      <trkpt lat="45.63945" lon="6.5734">
        <ele>1604.1</ele>
        <time>2021-06-25T12:53:48Z</time>
      </trkpt>
      <trkpt lat="45.63955" lon="6.57348">
        <ele>1603.62</ele>
        <time>2021-06-25T12:54:01Z</time>
      </trkpt>
      <trkpt lat="45.63961" lon="6.57348">
        <ele>1602.66</ele>
        <time>2021-06-25T12:54:09Z</time>
      </trkpt>
      <trkpt lat="45.6398" lon="6.57358">
        <ele>1601.21</ele>
        <time>2021-06-25T12:54:28Z</time>
      </trkpt>
      <trkpt lat="45.63988" lon="6.57363">
        <ele>1600.73</ele>
        <time>2021-06-25T12:54:40Z</time>
      </trkpt>
      <trkpt lat="45.6399" lon="6.57366">
        <ele>1600.73</ele>
        <time>2021-06-25T12:54:57Z</time>
      </trkpt>
      <trkpt lat="45.63998" lon="6.57371">
        <ele>1600.73</ele>
        <time>2021-06-25T12:55:13Z</time>
      </trkpt>
      <trkpt lat="45.64008" lon="6.5738">
        <ele>1600.25</ele>
        <time>2021-06-25T12:55:25Z</time>
      </trkpt>
      <trkpt lat="45.6401" lon="6.57386">
        <ele>1599.77</ele>
        <time>2021-06-25T12:55:30Z</time>
      </trkpt>
      <trkpt lat="45.64011" lon="6.5739">
        <ele>1599.29</ele>
        <time>2021-06-25T12:55:34Z</time>
      </trkpt>
      <trkpt lat="45.64012" lon="6.57412">
        <ele>1596.41</ele>
        <time>2021-06-25T12:55:49Z</time>
      </trkpt>
      <trkpt lat="45.64016" lon="6.57431">
        <ele>1593.52</ele>
        <time>2021-06-25T12:56:03Z</time>
      </trkpt>
      <trkpt lat="45.64023" lon="6.57435">
        <ele>1591.6</ele>
        <time>2021-06-25T12:56:14Z</time>
      </trkpt>
      <trkpt lat="45.64044" lon="6.57442">
        <ele>1588.72</ele>
        <time>2021-06-25T12:56:31Z</time>
      </trkpt>
      <trkpt lat="45.64058" lon="6.57457">
        <ele>1586.31</ele>
        <time>2021-06-25T12:56:47Z</time>
      </trkpt>
      <trkpt lat="45.64068" lon="6.57471">
        <ele>1584.87</ele>
        <time>2021-06-25T12:57:01Z</time>
      </trkpt>
      <trkpt lat="45.64076" lon="6.57485">
        <ele>1582.47</ele>
        <time>2021-06-25T12:57:14Z</time>
      </trkpt>
      <trkpt lat="45.64082" lon="6.57493">
        <ele>1581.03</ele>
        <time>2021-06-25T12:57:22Z</time>
      </trkpt>
      <trkpt lat="45.6409" lon="6.57501">
        <ele>1579.1</ele>
        <time>2021-06-25T12:57:32Z</time>
      </trkpt>
      <trkpt lat="45.64097" lon="6.57518">
        <ele>1576.22</ele>
        <time>2021-06-25T12:57:46Z</time>
      </trkpt>
      <trkpt lat="45.64102" lon="6.57535">
        <ele>1573.33</ele>
        <time>2021-06-25T12:58:02Z</time>
      </trkpt>
      <trkpt lat="45.64107" lon="6.57548">
        <ele>1571.89</ele>
        <time>2021-06-25T12:58:15Z</time>
      </trkpt>
      <trkpt lat="45.64109" lon="6.57552">
        <ele>1571.89</ele>
        <time>2021-06-25T12:58:19Z</time>
      </trkpt>
      <trkpt lat="45.64119" lon="6.57567">
        <ele>1569.01</ele>
        <time>2021-06-25T12:58:34Z</time>
      </trkpt>
      <trkpt lat="45.64127" lon="6.57577">
        <ele>1568.05</ele>
        <time>2021-06-25T12:58:47Z</time>
      </trkpt>
      <trkpt lat="45.64131" lon="6.57584">
        <ele>1567.09</ele>
        <time>2021-06-25T12:59:02Z</time>
      </trkpt>
      <trkpt lat="45.64128" lon="6.5759">
        <ele>1566.61</ele>
        <time>2021-06-25T12:59:19Z</time>
      </trkpt>
      <trkpt lat="45.64113" lon="6.57583">
        <ele>1565.64</ele>
        <time>2021-06-25T12:59:35Z</time>
      </trkpt>
      <trkpt lat="45.64107" lon="6.57577">
        <ele>1565.64</ele>
        <time>2021-06-25T12:59:44Z</time>
      </trkpt>
      <trkpt lat="45.64096" lon="6.57568">
        <ele>1564.68</ele>
        <time>2021-06-25T12:59:58Z</time>
      </trkpt>
      <trkpt lat="45.64091" lon="6.57564">
        <ele>1564.2</ele>
        <time>2021-06-25T13:00:13Z</time>
      </trkpt>
      <trkpt lat="45.64086" lon="6.57562">
        <ele>1563.72</ele>
        <time>2021-06-25T13:00:33Z</time>
      </trkpt>
      <trkpt lat="45.64086" lon="6.57557">
        <ele>1563.24</ele>
        <time>2021-06-25T13:00:45Z</time>
      </trkpt>
      <trkpt lat="45.64085" lon="6.57553">
        <ele>1563.24</ele>
        <time>2021-06-25T13:01:06Z</time>
      </trkpt>
      <trkpt lat="45.64082" lon="6.57552">
        <ele>1563.24</ele>
        <time>2021-06-25T13:01:10Z</time>
      </trkpt>
      <trkpt lat="45.64072" lon="6.57561">
        <ele>1562.76</ele>
        <time>2021-06-25T13:01:22Z</time>
      </trkpt>
      <trkpt lat="45.6407" lon="6.57585">
        <ele>1563.24</ele>
        <time>2021-06-25T13:01:37Z</time>
      </trkpt>
      <trkpt lat="45.64071" lon="6.57598">
        <ele>1563.24</ele>
        <time>2021-06-25T13:01:46Z</time>
      </trkpt>
      <trkpt lat="45.64072" lon="6.57608">
        <ele>1563.72</ele>
        <time>2021-06-25T13:01:59Z</time>
      </trkpt>
      <trkpt lat="45.64074" lon="6.57607">
        <ele>1563.72</ele>
        <time>2021-06-25T13:02:15Z</time>
      </trkpt>
      <trkpt lat="45.64076" lon="6.57606">
        <ele>1563.72</ele>
        <time>2021-06-25T13:02:46Z</time>
      </trkpt>
      <trkpt lat="45.64072" lon="6.57601">
        <ele>1563.72</ele>
        <time>2021-06-25T13:03:15Z</time>
      </trkpt>
      <trkpt lat="45.64071" lon="6.57614">
        <ele>1564.2</ele>
        <time>2021-06-25T13:03:39Z</time>
      </trkpt>
      <trkpt lat="45.64074" lon="6.57615">
        <ele>1564.2</ele>
        <time>2021-06-25T13:03:56Z</time>
      </trkpt>
      <trkpt lat="45.64078" lon="6.57625">
        <ele>1564.2</ele>
        <time>2021-06-25T13:04:12Z</time>
      </trkpt>
      <trkpt lat="45.64084" lon="6.57642">
        <ele>1564.68</ele>
        <time>2021-06-25T13:04:25Z</time>
      </trkpt>
      <trkpt lat="45.64094" lon="6.57657">
        <ele>1564.68</ele>
        <time>2021-06-25T13:04:40Z</time>
      </trkpt>
      <trkpt lat="45.64096" lon="6.57658">
        <ele>1564.68</ele>
        <time>2021-06-25T13:04:43Z</time>
      </trkpt>
      <trkpt lat="45.64101" lon="6.57663">
        <ele>1565.16</ele>
        <time>2021-06-25T13:05:00Z</time>
      </trkpt>
      <trkpt lat="45.64103" lon="6.57665">
        <ele>1565.16</ele>
        <time>2021-06-25T13:05:05Z</time>
      </trkpt>
      <trkpt lat="45.64114" lon="6.57672">
        <ele>1565.64</ele>
        <time>2021-06-25T13:05:19Z</time>
      </trkpt>
      <trkpt lat="45.64129" lon="6.5768">
        <ele>1565.16</ele>
        <time>2021-06-25T13:05:35Z</time>
      </trkpt>
      <trkpt lat="45.64138" lon="6.57686">
        <ele>1565.16</ele>
        <time>2021-06-25T13:05:43Z</time>
      </trkpt>
      <trkpt lat="45.64143" lon="6.57696">
        <ele>1565.16</ele>
        <time>2021-06-25T13:05:51Z</time>
      </trkpt>
      <trkpt lat="45.64146" lon="6.57709">
        <ele>1565.16</ele>
        <time>2021-06-25T13:05:59Z</time>
      </trkpt>
      <trkpt lat="45.64148" lon="6.57728">
        <ele>1564.2</ele>
        <time>2021-06-25T13:06:10Z</time>
      </trkpt>
      <trkpt lat="45.64148" lon="6.57739">
        <ele>1564.2</ele>
        <time>2021-06-25T13:06:17Z</time>
      </trkpt>
      <trkpt lat="45.64148" lon="6.57743">
        <ele>1564.2</ele>
        <time>2021-06-25T13:06:19Z</time>
      </trkpt>
      <trkpt lat="45.6415" lon="6.57749">
        <ele>1564.2</ele>
        <time>2021-06-25T13:06:22Z</time>
      </trkpt>
      <trkpt lat="45.64154" lon="6.57768">
        <ele>1564.2</ele>
        <time>2021-06-25T13:06:32Z</time>
      </trkpt>
      <trkpt lat="45.64159" lon="6.57781">
        <ele>1564.2</ele>
        <time>2021-06-25T13:06:41Z</time>
      </trkpt>
      <trkpt lat="45.64164" lon="6.57797">
        <ele>1563.72</ele>
        <time>2021-06-25T13:06:52Z</time>
      </trkpt>
      <trkpt lat="45.64168" lon="6.57822">
        <ele>1563.24</ele>
        <time>2021-06-25T13:07:08Z</time>
      </trkpt>
      <trkpt lat="45.64176" lon="6.57843">
        <ele>1563.24</ele>
        <time>2021-06-25T13:07:23Z</time>
      </trkpt>
      <trkpt lat="45.64182" lon="6.57859">
        <ele>1563.24</ele>
        <time>2021-06-25T13:07:35Z</time>
      </trkpt>
      <trkpt lat="45.64185" lon="6.57865">
        <ele>1563.24</ele>
        <time>2021-06-25T13:07:39Z</time>
      </trkpt>
      <trkpt lat="45.64185" lon="6.57878">
        <ele>1563.24</ele>
        <time>2021-06-25T13:07:47Z</time>
      </trkpt>
      <trkpt lat="45.64186" lon="6.57884">
        <ele>1563.24</ele>
        <time>2021-06-25T13:07:50Z</time>
      </trkpt>
      <trkpt lat="45.64186" lon="6.5789">
        <ele>1563.24</ele>
        <time>2021-06-25T13:07:54Z</time>
      </trkpt>
      <trkpt lat="45.64192" lon="6.57916">
        <ele>1563.24</ele>
        <time>2021-06-25T13:08:09Z</time>
      </trkpt>
      <trkpt lat="45.64192" lon="6.57918">
        <ele>1563.24</ele>
        <time>2021-06-25T13:08:10Z</time>
      </trkpt>
      <trkpt lat="45.642" lon="6.57933">
        <ele>1564.2</ele>
        <time>2021-06-25T13:08:24Z</time>
      </trkpt>
      <trkpt lat="45.64205" lon="6.57948">
        <ele>1564.68</ele>
        <time>2021-06-25T13:08:35Z</time>
      </trkpt>
      <trkpt lat="45.64201" lon="6.57964">
        <ele>1564.68</ele>
        <time>2021-06-25T13:08:44Z</time>
      </trkpt>
      <trkpt lat="45.64199" lon="6.57975">
        <ele>1564.68</ele>
        <time>2021-06-25T13:08:50Z</time>
      </trkpt>
      <trkpt lat="45.64203" lon="6.57986">
        <ele>1564.68</ele>
        <time>2021-06-25T13:08:58Z</time>
      </trkpt>
      <trkpt lat="45.64204" lon="6.57991">
        <ele>1564.68</ele>
        <time>2021-06-25T13:09:01Z</time>
      </trkpt>
      <trkpt lat="45.64208" lon="6.58011">
        <ele>1564.68</ele>
        <time>2021-06-25T13:09:15Z</time>
      </trkpt>
      <trkpt lat="45.64208" lon="6.58023">
        <ele>1564.68</ele>
        <time>2021-06-25T13:09:23Z</time>
      </trkpt>
      <trkpt lat="45.64198" lon="6.58042">
        <ele>1565.16</ele>
        <time>2021-06-25T13:09:39Z</time>
      </trkpt>
      <trkpt lat="45.64197" lon="6.58044">
        <ele>1565.16</ele>
        <time>2021-06-25T13:09:41Z</time>
      </trkpt>
      <trkpt lat="45.64183" lon="6.58073">
        <ele>1565.16</ele>
        <time>2021-06-25T13:09:59Z</time>
      </trkpt>
      <trkpt lat="45.64177" lon="6.58083">
        <ele>1565.16</ele>
        <time>2021-06-25T13:10:08Z</time>
      </trkpt>
      <trkpt lat="45.64175" lon="6.5809">
        <ele>1565.16</ele>
        <time>2021-06-25T13:10:12Z</time>
      </trkpt>
      <trkpt lat="45.64171" lon="6.58111">
        <ele>1565.16</ele>
        <time>2021-06-25T13:10:26Z</time>
      </trkpt>
      <trkpt lat="45.64169" lon="6.58127">
        <ele>1565.16</ele>
        <time>2021-06-25T13:10:35Z</time>
      </trkpt>
      <trkpt lat="45.6417" lon="6.58149">
        <ele>1566.12</ele>
        <time>2021-06-25T13:10:49Z</time>
      </trkpt>
      <trkpt lat="45.6417" lon="6.58152">
        <ele>1566.12</ele>
        <time>2021-06-25T13:10:51Z</time>
      </trkpt>
      <trkpt lat="45.6417" lon="6.58155">
        <ele>1566.61</ele>
        <time>2021-06-25T13:10:53Z</time>
      </trkpt>
      <trkpt lat="45.64174" lon="6.58177">
        <ele>1566.61</ele>
        <time>2021-06-25T13:11:07Z</time>
      </trkpt>
      <trkpt lat="45.64178" lon="6.58199">
        <ele>1567.57</ele>
        <time>2021-06-25T13:11:23Z</time>
      </trkpt>
      <trkpt lat="45.64179" lon="6.58218">
        <ele>1569.01</ele>
        <time>2021-06-25T13:11:36Z</time>
      </trkpt>
      <trkpt lat="45.64184" lon="6.58228">
        <ele>1569.01</ele>
        <time>2021-06-25T13:11:49Z</time>
      </trkpt>
      <trkpt lat="45.6419" lon="6.58238">
        <ele>1569.01</ele>
        <time>2021-06-25T13:12:04Z</time>
      </trkpt>
      <trkpt lat="45.64196" lon="6.58244">
        <ele>1567.57</ele>
        <time>2021-06-25T13:12:14Z</time>
      </trkpt>
      <trkpt lat="45.64198" lon="6.58246">
        <ele>1567.57</ele>
        <time>2021-06-25T13:12:16Z</time>
      </trkpt>
      <trkpt lat="45.64209" lon="6.58261">
        <ele>1567.57</ele>
        <time>2021-06-25T13:12:27Z</time>
      </trkpt>
      <trkpt lat="45.64221" lon="6.58273">
        <ele>1568.53</ele>
        <time>2021-06-25T13:12:37Z</time>
      </trkpt>
      <trkpt lat="45.64236" lon="6.58289">
        <ele>1570.45</ele>
        <time>2021-06-25T13:12:50Z</time>
      </trkpt>
      <trkpt lat="45.64242" lon="6.58294">
        <ele>1571.89</ele>
        <time>2021-06-25T13:13:02Z</time>
      </trkpt>
      <trkpt lat="45.64242" lon="6.58294">
        <ele>1572.37</ele>
        <time>2021-06-25T13:13:27Z</time>
      </trkpt>
      <trkpt lat="45.64245" lon="6.58292">
        <ele>1570.93</ele>
        <time>2021-06-25T13:13:45Z</time>
      </trkpt>
      <trkpt lat="45.64243" lon="6.58295">
        <ele>1570.93</ele>
        <time>2021-06-25T13:14:00Z</time>
      </trkpt>
      <trkpt lat="45.64247" lon="6.58296">
        <ele>1570.93</ele>
        <time>2021-06-25T13:14:15Z</time>
      </trkpt>
      <trkpt lat="45.64254" lon="6.58299">
        <ele>1571.89</ele>
        <time>2021-06-25T13:14:45Z</time>
      </trkpt>
      <trkpt lat="45.64263" lon="6.58305">
        <ele>1572.37</ele>
        <time>2021-06-25T13:14:58Z</time>
      </trkpt>
      <trkpt lat="45.64269" lon="6.58313">
        <ele>1573.82</ele>
        <time>2021-06-25T13:15:11Z</time>
      </trkpt>
      <trkpt lat="45.64257" lon="6.58309">
        <ele>1575.26</ele>
        <time>2021-06-25T13:15:25Z</time>
      </trkpt>
      <trkpt lat="45.64262" lon="6.58319">
        <ele>1576.7</ele>
        <time>2021-06-25T13:15:39Z</time>
      </trkpt>
      <trkpt lat="45.64275" lon="6.58325">
        <ele>1577.66</ele>
        <time>2021-06-25T13:15:54Z</time>
      </trkpt>
      <trkpt lat="45.64277" lon="6.58325">
        <ele>1577.66</ele>
        <time>2021-06-25T13:15:57Z</time>
      </trkpt>
      <trkpt lat="45.64285" lon="6.58327">
        <ele>1578.14</ele>
        <time>2021-06-25T13:16:14Z</time>
      </trkpt>
      <trkpt lat="45.64294" lon="6.58327">
        <ele>1578.14</ele>
        <time>2021-06-25T13:16:30Z</time>
      </trkpt>
      <trkpt lat="45.64296" lon="6.58328">
        <ele>1576.7</ele>
        <time>2021-06-25T13:16:33Z</time>
      </trkpt>
      <trkpt lat="45.64298" lon="6.58327">
        <ele>1576.7</ele>
        <time>2021-06-25T13:16:35Z</time>
      </trkpt>
      <trkpt lat="45.64309" lon="6.5832">
        <ele>1575.74</ele>
        <time>2021-06-25T13:16:50Z</time>
      </trkpt>
      <trkpt lat="45.64323" lon="6.58314">
        <ele>1574.3</ele>
        <time>2021-06-25T13:17:06Z</time>
      </trkpt>
      <trkpt lat="45.64328" lon="6.58327">
        <ele>1573.33</ele>
        <time>2021-06-25T13:17:20Z</time>
      </trkpt>
      <trkpt lat="45.64343" lon="6.58329">
        <ele>1572.85</ele>
        <time>2021-06-25T13:17:33Z</time>
      </trkpt>
      <trkpt lat="45.64356" lon="6.58326">
        <ele>1571.89</ele>
        <time>2021-06-25T13:17:42Z</time>
      </trkpt>
      <trkpt lat="45.64373" lon="6.58318">
        <ele>1570.45</ele>
        <time>2021-06-25T13:17:57Z</time>
      </trkpt>
      <trkpt lat="45.6439" lon="6.58304">
        <ele>1568.05</ele>
        <time>2021-06-25T13:18:11Z</time>
      </trkpt>
      <trkpt lat="45.64401" lon="6.58298">
        <ele>1567.09</ele>
        <time>2021-06-25T13:18:22Z</time>
      </trkpt>
      <trkpt lat="45.64412" lon="6.58297">
        <ele>1566.61</ele>
        <time>2021-06-25T13:18:36Z</time>
      </trkpt>
      <trkpt lat="45.64416" lon="6.58298">
        <ele>1566.61</ele>
        <time>2021-06-25T13:18:40Z</time>
      </trkpt>
      <trkpt lat="45.64436" lon="6.583">
        <ele>1565.64</ele>
        <time>2021-06-25T13:18:57Z</time>
      </trkpt>
      <trkpt lat="45.64449" lon="6.58305">
        <ele>1565.16</ele>
        <time>2021-06-25T13:19:10Z</time>
      </trkpt>
      <trkpt lat="45.64452" lon="6.58306">
        <ele>1565.16</ele>
        <time>2021-06-25T13:19:13Z</time>
      </trkpt>
      <trkpt lat="45.64463" lon="6.5831">
        <ele>1564.68</ele>
        <time>2021-06-25T13:19:26Z</time>
      </trkpt>
      <trkpt lat="45.64473" lon="6.58316">
        <ele>1563.72</ele>
        <time>2021-06-25T13:19:37Z</time>
      </trkpt>
      <trkpt lat="45.64491" lon="6.5831">
        <ele>1561.8</ele>
        <time>2021-06-25T13:19:50Z</time>
      </trkpt>
      <trkpt lat="45.64506" lon="6.58308">
        <ele>1561.32</ele>
        <time>2021-06-25T13:20:04Z</time>
      </trkpt>
      <trkpt lat="45.64517" lon="6.58311">
        <ele>1561.32</ele>
        <time>2021-06-25T13:20:18Z</time>
      </trkpt>
      <trkpt lat="45.64524" lon="6.58309">
        <ele>1562.28</ele>
        <time>2021-06-25T13:20:28Z</time>
      </trkpt>
      <trkpt lat="45.64539" lon="6.58312">
        <ele>1562.76</ele>
        <time>2021-06-25T13:20:42Z</time>
      </trkpt>
      <trkpt lat="45.64542" lon="6.58313">
        <ele>1562.76</ele>
        <time>2021-06-25T13:20:44Z</time>
      </trkpt>
      <trkpt lat="45.64557" lon="6.58315">
        <ele>1562.28</ele>
        <time>2021-06-25T13:20:58Z</time>
      </trkpt>
      <trkpt lat="45.64568" lon="6.58316">
        <ele>1561.32</ele>
        <time>2021-06-25T13:21:05Z</time>
      </trkpt>
      <trkpt lat="45.64573" lon="6.58318">
        <ele>1561.32</ele>
        <time>2021-06-25T13:21:09Z</time>
      </trkpt>
      <trkpt lat="45.6459" lon="6.58325">
        <ele>1560.36</ele>
        <time>2021-06-25T13:21:22Z</time>
      </trkpt>
      <trkpt lat="45.64593" lon="6.58329">
        <ele>1559.88</ele>
        <time>2021-06-25T13:21:25Z</time>
      </trkpt>
      <trkpt lat="45.64609" lon="6.58334">
        <ele>1559.4</ele>
        <time>2021-06-25T13:21:38Z</time>
      </trkpt>
      <trkpt lat="45.64623" lon="6.58321">
        <ele>1559.4</ele>
        <time>2021-06-25T13:21:51Z</time>
      </trkpt>
      <trkpt lat="45.6463" lon="6.58318">
        <ele>1559.4</ele>
        <time>2021-06-25T13:21:56Z</time>
      </trkpt>
      <trkpt lat="45.64645" lon="6.58326">
        <ele>1559.4</ele>
        <time>2021-06-25T13:22:11Z</time>
      </trkpt>
      <trkpt lat="45.64646" lon="6.58327">
        <ele>1559.4</ele>
        <time>2021-06-25T13:22:12Z</time>
      </trkpt>
      <trkpt lat="45.64649" lon="6.5833">
        <ele>1560.84</ele>
        <time>2021-06-25T13:22:17Z</time>
      </trkpt>
      <trkpt lat="45.6465" lon="6.58332">
        <ele>1559.4</ele>
        <time>2021-06-25T13:22:19Z</time>
      </trkpt>
      <trkpt lat="45.64651" lon="6.58333">
        <ele>1560.84</ele>
        <time>2021-06-25T13:22:21Z</time>
      </trkpt>
      <trkpt lat="45.64658" lon="6.58349">
        <ele>1561.8</ele>
        <time>2021-06-25T13:22:36Z</time>
      </trkpt>
      <trkpt lat="45.64659" lon="6.58359">
        <ele>1561.8</ele>
        <time>2021-06-25T13:22:45Z</time>
      </trkpt>
      <trkpt lat="45.6466" lon="6.58379">
        <ele>1562.28</ele>
        <time>2021-06-25T13:22:59Z</time>
      </trkpt>
      <trkpt lat="45.64666" lon="6.58395">
        <ele>1562.28</ele>
        <time>2021-06-25T13:23:11Z</time>
      </trkpt>
      <trkpt lat="45.64674" lon="6.58413">
        <ele>1562.76</ele>
        <time>2021-06-25T13:23:26Z</time>
      </trkpt>
      <trkpt lat="45.64685" lon="6.58429">
        <ele>1562.76</ele>
        <time>2021-06-25T13:23:41Z</time>
      </trkpt>
      <trkpt lat="45.6469" lon="6.58436">
        <ele>1561.8</ele>
        <time>2021-06-25T13:23:47Z</time>
      </trkpt>
      <trkpt lat="45.64696" lon="6.58446">
        <ele>1561.8</ele>
        <time>2021-06-25T13:23:56Z</time>
      </trkpt>
      <trkpt lat="45.64709" lon="6.58464">
        <ele>1560.84</ele>
        <time>2021-06-25T13:24:12Z</time>
      </trkpt>
      <trkpt lat="45.64719" lon="6.58476">
        <ele>1560.36</ele>
        <time>2021-06-25T13:24:28Z</time>
      </trkpt>
      <trkpt lat="45.6473" lon="6.58485">
        <ele>1559.88</ele>
        <time>2021-06-25T13:24:42Z</time>
      </trkpt>
      <trkpt lat="45.64739" lon="6.58487">
        <ele>1558.92</ele>
        <time>2021-06-25T13:24:52Z</time>
      </trkpt>
      <trkpt lat="45.64756" lon="6.5848">
        <ele>1558.92</ele>
        <time>2021-06-25T13:25:08Z</time>
      </trkpt>
      <trkpt lat="45.64758" lon="6.58479">
        <ele>1558.92</ele>
        <time>2021-06-25T13:25:10Z</time>
      </trkpt>
      <trkpt lat="45.64769" lon="6.58465">
        <ele>1557.95</ele>
        <time>2021-06-25T13:25:22Z</time>
      </trkpt>
      <trkpt lat="45.64775" lon="6.58455">
        <ele>1557.95</ele>
        <time>2021-06-25T13:25:36Z</time>
      </trkpt>
      <trkpt lat="45.64775" lon="6.58456">
        <ele>1557.95</ele>
        <time>2021-06-25T13:25:42Z</time>
      </trkpt>
      <trkpt lat="45.64785" lon="6.58447">
        <ele>1557.95</ele>
        <time>2021-06-25T13:25:53Z</time>
      </trkpt>
      <trkpt lat="45.64796" lon="6.58431">
        <ele>1557.95</ele>
        <time>2021-06-25T13:26:09Z</time>
      </trkpt>
      <trkpt lat="45.64806" lon="6.58416">
        <ele>1557.95</ele>
        <time>2021-06-25T13:26:24Z</time>
      </trkpt>
      <trkpt lat="45.64818" lon="6.58402">
        <ele>1557.95</ele>
        <time>2021-06-25T13:26:40Z</time>
      </trkpt>
      <trkpt lat="45.64828" lon="6.58395">
        <ele>1560.36</ele>
        <time>2021-06-25T13:26:56Z</time>
      </trkpt>
      <trkpt lat="45.64832" lon="6.58393">
        <ele>1560.36</ele>
        <time>2021-06-25T13:27:02Z</time>
      </trkpt>
      <trkpt lat="45.64848" lon="6.58389">
        <ele>1560.84</ele>
        <time>2021-06-25T13:27:17Z</time>
      </trkpt>
      <trkpt lat="45.64865" lon="6.58387">
        <ele>1562.28</ele>
        <time>2021-06-25T13:27:34Z</time>
      </trkpt>
      <trkpt lat="45.6488" lon="6.58386">
        <ele>1563.72</ele>
        <time>2021-06-25T13:27:48Z</time>
      </trkpt>
      <trkpt lat="45.64896" lon="6.58387">
        <ele>1564.68</ele>
        <time>2021-06-25T13:28:03Z</time>
      </trkpt>
      <trkpt lat="45.64909" lon="6.5839">
        <ele>1566.12</ele>
        <time>2021-06-25T13:28:17Z</time>
      </trkpt>
      <trkpt lat="45.64924" lon="6.58395">
        <ele>1567.09</ele>
        <time>2021-06-25T13:28:31Z</time>
      </trkpt>
      <trkpt lat="45.64936" lon="6.58399">
        <ele>1569.01</ele>
        <time>2021-06-25T13:28:45Z</time>
      </trkpt>
      <trkpt lat="45.6495" lon="6.58401">
        <ele>1569.49</ele>
        <time>2021-06-25T13:28:59Z</time>
      </trkpt>
      <trkpt lat="45.64965" lon="6.58398">
        <ele>1570.45</ele>
        <time>2021-06-25T13:29:14Z</time>
      </trkpt>
      <trkpt lat="45.64976" lon="6.58395">
        <ele>1571.89</ele>
        <time>2021-06-25T13:29:25Z</time>
      </trkpt>
      <trkpt lat="45.64984" lon="6.58392">
        <ele>1572.85</ele>
        <time>2021-06-25T13:29:33Z</time>
      </trkpt>
      <trkpt lat="45.64996" lon="6.58392">
        <ele>1574.3</ele>
        <time>2021-06-25T13:29:46Z</time>
      </trkpt>
      <trkpt lat="45.65012" lon="6.584">
        <ele>1575.26</ele>
        <time>2021-06-25T13:30:04Z</time>
      </trkpt>
      <trkpt lat="45.65015" lon="6.58407">
        <ele>1576.22</ele>
        <time>2021-06-25T13:30:09Z</time>
      </trkpt>
      <trkpt lat="45.65016" lon="6.5841">
        <ele>1576.22</ele>
        <time>2021-06-25T13:30:11Z</time>
      </trkpt>
      <trkpt lat="45.65026" lon="6.58427">
        <ele>1576.22</ele>
        <time>2021-06-25T13:30:26Z</time>
      </trkpt>
      <trkpt lat="45.65027" lon="6.58428">
        <ele>1576.22</ele>
        <time>2021-06-25T13:30:27Z</time>
      </trkpt>
      <trkpt lat="45.65039" lon="6.58445">
        <ele>1576.22</ele>
        <time>2021-06-25T13:30:43Z</time>
      </trkpt>
      <trkpt lat="45.65051" lon="6.58441">
        <ele>1576.22</ele>
        <time>2021-06-25T13:30:57Z</time>
      </trkpt>
      <trkpt lat="45.65057" lon="6.58435">
        <ele>1576.22</ele>
        <time>2021-06-25T13:31:04Z</time>
      </trkpt>
      <trkpt lat="45.65062" lon="6.58425">
        <ele>1576.22</ele>
        <time>2021-06-25T13:31:17Z</time>
      </trkpt>
      <trkpt lat="45.65064" lon="6.58418">
        <ele>1576.22</ele>
        <time>2021-06-25T13:31:22Z</time>
      </trkpt>
      <trkpt lat="45.65073" lon="6.58392">
        <ele>1576.22</ele>
        <time>2021-06-25T13:31:40Z</time>
      </trkpt>
      <trkpt lat="45.65077" lon="6.5838">
        <ele>1574.78</ele>
        <time>2021-06-25T13:31:48Z</time>
      </trkpt>
      <trkpt lat="45.65079" lon="6.58362">
        <ele>1574.78</ele>
        <time>2021-06-25T13:32:00Z</time>
      </trkpt>
      <trkpt lat="45.6508" lon="6.58356">
        <ele>1574.78</ele>
        <time>2021-06-25T13:32:04Z</time>
      </trkpt>
      <trkpt lat="45.65086" lon="6.58326">
        <ele>1573.82</ele>
        <time>2021-06-25T13:32:24Z</time>
      </trkpt>
      <trkpt lat="45.65099" lon="6.58303">
        <ele>1573.33</ele>
        <time>2021-06-25T13:32:41Z</time>
      </trkpt>
      <trkpt lat="45.65111" lon="6.58281">
        <ele>1572.37</ele>
        <time>2021-06-25T13:32:58Z</time>
      </trkpt>
      <trkpt lat="45.65115" lon="6.58271">
        <ele>1572.37</ele>
        <time>2021-06-25T13:33:06Z</time>
      </trkpt>
      <trkpt lat="45.65117" lon="6.58267">
        <ele>1572.37</ele>
        <time>2021-06-25T13:33:09Z</time>
      </trkpt>
      <trkpt lat="45.65117" lon="6.58261">
        <ele>1572.37</ele>
        <time>2021-06-25T13:33:21Z</time>
      </trkpt>
      <trkpt lat="45.65118" lon="6.5826">
        <ele>1572.37</ele>
        <time>2021-06-25T13:33:22Z</time>
      </trkpt>
      <trkpt lat="45.6512" lon="6.58255">
        <ele>1572.37</ele>
        <time>2021-06-25T13:33:26Z</time>
      </trkpt>
      <trkpt lat="45.65119" lon="6.58226">
        <ele>1573.33</ele>
        <time>2021-06-25T13:33:43Z</time>
      </trkpt>
      <trkpt lat="45.65117" lon="6.58199">
        <ele>1574.3</ele>
        <time>2021-06-25T13:34:00Z</time>
      </trkpt>
      <trkpt lat="45.65112" lon="6.58172">
        <ele>1575.26</ele>
        <time>2021-06-25T13:34:18Z</time>
      </trkpt>
      <trkpt lat="45.65105" lon="6.58144">
        <ele>1577.18</ele>
        <time>2021-06-25T13:34:36Z</time>
      </trkpt>
      <trkpt lat="45.65109" lon="6.58129">
        <ele>1579.58</ele>
        <time>2021-06-25T13:34:50Z</time>
      </trkpt>
    </trkseg>
  </trk>
</gpx>